[[{"header":{"parameterUnit":"m.s-1","parameterCategory":1,"la1":31.0,"la2":29.5877,"lo1":-88.7671,"lo2":-86.6584,"dx":0.0162,"dy":0.0185,"nx":115,"ny":88,"refTime":"2023-01-03T06:00:00:Z","depth":0,"parameterNumber":2,"parameterNumberName":"U-component_of_WINDS"},"data":[0.0,0.0,0.0,0.0,0.0,0.0,0.0,0.0,0.0,0.0,0.0,0.0,0.0,0.0,0.0,0.0,0.0,0.0,0.0,0.0,0.0,0.0,0.0,0.0,0.0,0.0,0.0,0.0,0.0,0.0,0.0,0.0,0.0,0.0,0.0,0.0,0.0,0.0,0.0,0.0,0.0,0.0,0.0,0.0,0.0,0.0,0.0,0.0,0.0,0.0,0.0,0.0,0.0,0.0,0.0,0.0,0.0,0.0,0.0,0.0,0.0,0.0,0.0,0.0,0.0,0.0,0.0,0.0,0.0,0.0,0.0,0.0,0.0,0.0,0.0,0.0,0.0,0.0,0.0,0.0,0.0,0.0,0.0,0.0,0.0,0.0,0.0,0.0,0.0,0.0,0.0,0.0,0.0,0.0,0.0,0.0,0.0,0.0,0.0,0.0,0.0,0.0,0.0,0.0,0.0,0.0,0.0,0.0,0.0,0.0,0.0,0.0,0.0,0.0,0.0,0.0,0.0,0.0,0.0,0.0,0.0,0.0,0.0,0.0,0.0,0.0,0.0,0.0,0.0,0.0,0.0,0.0,0.0,0.0,0.0,0.0,0.0,0.0,0.0,0.0,0.0,0.0,0.0,0.0,0.0,0.0,0.0,0.0,0.0,0.0,0.0,0.0,0.0,0.0,0.0,0.0,0.0,0.0,0.0,0.0,0.0,0.0,0.0,0.0,0.0,0.0,0.0,0.0,0.0,0.0,0.0,0.0,0.0,0.0,0.0,0.0,0.0,0.0,0.0,0.0,0.0,0.0,0.0,0.0,0.0,0.0,0.0,0.0,0.0,0.0,0.0,0.0,0.0,0.0,0.0,0.0,0.0,0.0,0.0,0.0,0.0,0.0,0.0,0.0,0.0,0.0,0.0,0.0,0.0,0.0,0.0,0.0,0.0,0.0,0.0,0.0,0.0,0.0,0.0,0.0,0.0,0.0,0.0,0.0,0.0,0.0,0.0,0.0,0.0,0.0,0.0,0.0,0.0,0.0,0.0,0.0,0.0,0.0,0.0,0.0,0.0,0.0,0.0,0.0,0.0,0.0,0.0,0.0,0.0,0.0,0.0,0.0,0.0,0.0,0.0,0.0,0.0,0.0,0.0,0.0,0.0,0.0,0.0,0.0,0.0,0.0,0.0,0.0,0.0,0.0,0.0,0.0,0.0,0.0,0.0,0.0,0.0,0.0,0.0,0.0,0.0,0.0,0.0,0.0,0.0,0.0,0.0,0.0,0.0,0.0,0.0,0.0,0.0,0.0,0.0,0.0,0.0,0.0,0.0,0.0,0.0,0.0,0.0,0.0,0.0,0.0,0.0,0.0,0.0,0.0,0.0,0.0,0.0,0.0,0.0,0.0,0.0,0.0,0.0,0.0,0.0,0.0,0.0,0.0,0.0,0.0,0.0,0.0,0.0,0.0,0.0,0.0,0.0,0.0,0.0,0.0,0.0,0.0,0.0,0.0,0.0,0.0,0.0,0.0,0.0,0.0,0.0,0.0,0.0,0.0,0.0,0.0,0.0,0.0,0.0,0.0,0.0,0.0,0.0,0.0,0.0,0.0,0.0,0.0,0.0,0.0,0.0,0.0,0.0,0.0,0.0,0.0,0.0,0.0,0.0,0.0,0.0,0.0,0.0,0.0,0.0,0.0,0.0,0.0,0.0,0.0,0.0,0.0,0.0,0.0,0.0,0.0,0.0,0.0,0.0,0.0,0.0,0.0,0.0,0.0,0.0,0.0,0.0,0.0,0.0,0.0,0.0,0.0,0.0,0.0,0.0,0.0,0.0,0.0,0.0,0.0,0.0,0.0,0.0,0.0,0.0,0.0,0.0,0.0,0.0,0.0,0.0,0.0,0.0,0.0,0.0,0.0,0.0,0.0,0.0,0.0,0.0,0.0,0.0,0.0,0.0,0.0,0.0,0.0,0.0,0.0,0.0,0.0,0.0,0.0,0.0,0.0,0.0,0.0,0.0,0.0,0.0,0.0,0.0,0.0,0.0,0.0,0.0,0.0,0.0,0.0,0.0,0.0,0.0,0.0,0.0,0.0,0.0,0.0,0.0,0.0,0.0,0.0,0.0,0.0,0.0,0.0,0.0,0.0,0.0,0.0,0.0,0.0,0.0,0.0,0.0,0.0,0.0,0.0,0.0,0.0,0.0,0.0,0.0,0.0,0.0,0.0,0.0,0.0,0.0,0.0,0.0,0.0,0.0,0.0,0.0,0.0,0.0,0.0,0.0,0.0,0.0,0.0,0.0,0.0,0.0,0.0,0.0,0.0,0.0,0.0,0.0,0.0,0.0,0.0,0.0,0.0,0.0,0.0,0.0,0.0,0.0,0.0,0.0,0.0,0.0,0.0,0.0,0.0,0.0,0.0,0.0,0.0,0.0,0.0,0.0,0.0,0.0,0.0,0.0,0.0,0.0,0.0,0.0,0.0,0.0,0.0,0.0,0.0,0.0,0.0,0.0,0.0,0.0,0.0,0.0,0.0,0.0,0.0,0.0,0.0,0.0,0.0,0.0,0.0,0.0,0.0,0.0,0.0,0.0,0.0,0.0,0.0,0.0,0.0,0.0,0.0,0.0,0.0,0.0,0.0,0.0,0.0,0.0,0.0,0.0,0.0,0.0,0.0,0.0,0.0,0.0,0.0,0.0,0.0,0.0,0.0,0.0,0.0,0.0,0.0,0.0,0.0,0.0,0.0,0.0,0.0,0.0,0.0,0.0,0.0,0.0,0.0,0.0,0.0,0.0,0.0,0.0,0.0,0.0,0.0,0.0,0.0,0.0,0.0,0.0,0.0,0.0,0.0,0.0,0.0,0.0,0.0,0.0,0.0,0.0,0.0,0.0,0.0,0.0,0.0,0.0,0.0,0.0,0.0,0.0,0.0,0.0,0.0,0.0,0.0,0.0,0.0,0.0,0.0,0.0,0.0,0.0,0.0,0.0,0.0,0.0,0.0,0.0,0.0,0.0,0.0,0.0,0.0,0.0,0.0,0.0,0.0,0.0,0.0,0.0,0.0,0.0,0.0,0.0,0.0,0.0,0.0,0.0,0.0,0.0,0.0,0.0,0.0,0.0,0.0,0.0,0.0,0.0,0.0,0.0,0.0,0.0,0.0,0.0,0.0,0.0,0.0,0.0,0.0,0.0,0.0,0.0,0.0,0.0,0.0,0.0,0.0,0.0,0.0,0.0,0.0,0.0,0.0,0.0,0.0,0.0,0.0,0.0,0.0,0.0,0.0,0.0,0.0,0.0,0.0,0.0,0.0,0.0,0.0,0.0,0.0,0.0,0.0,0.0,0.0,0.0,0.0,0.0,0.0,0.0,0.0,0.0,0.0,0.0,0.0,0.0,0.0,0.0,0.0,0.0,0.0,0.0,0.0,0.0,0.0,0.0,0.0,0.0,0.0,0.0,0.0,0.0,0.0,0.0,0.0,0.0,0.0,0.0,0.0,0.0,0.0,0.0,0.0,0.0,0.0,0.0,0.0,0.0,0.0,0.0,0.0,0.0,0.0,0.0,0.0,0.0,0.0,0.0,0.0,0.0,0.0,0.0,0.0,0.0,0.0,0.0,0.0,0.0,0.0,0.0,0.0,0.0,0.0,0.0,0.0,0.0,0.0,0.0,0.0,0.0,0.0,0.0,0.0,0.0,0.0,0.0,0.0,0.0,0.0,0.0,0.0,0.0,0.0,0.0,0.0,0.0,0.0,0.0,0.0,0.0,0.0,0.0,0.0,0.0,0.0,0.0,0.0,0.0,0.0,0.0,0.0,0.0,0.0,0.0,0.0,0.0,0.0,0.0,0.0,0.0,0.0,0.0,0.0,0.0,0.0,0.0,0.0,0.0,0.0,0.0,0.0,0.0,0.0,0.0,0.0,0.0,0.0,0.0,0.0,0.0,0.0,0.0,0.0,0.0,0.0,0.0,0.0,0.0,0.0,0.0,0.0,0.0,0.0,0.0,0.0,0.0,0.0,0.0,0.0,0.0,0.0,0.0,0.0,0.0,0.0,0.0,0.0,0.0,0.0,0.0,0.0,0.0,0.0,0.0,0.0,0.0,0.0,0.0,0.0,0.0,0.0,0.0,0.0,0.0,0.0,0.0,0.0,0.0,0.0,0.0,0.0,0.0,0.0,0.0,0.0,0.0,0.0,0.0,0.0,0.0,0.0,0.0,0.0,0.0,0.0,0.0,0.0,0.0,0.0,0.0,0.0,-2.5703,0.0,0.0,0.0,-2.7187,0.0,0.0,0.0,0.0,0.0,0.0,0.0,0.0,0.0,0.0,0.0,0.0,0.0,0.0,0.0,0.0,0.0,0.0,0.0,0.0,0.0,0.0,0.0,0.0,0.0,0.0,0.0,0.0,0.0,0.0,0.0,0.0,0.0,0.0,0.0,0.0,0.0,0.0,0.0,0.0,0.0,0.0,0.0,0.0,0.0,0.0,0.0,0.0,0.0,0.0,0.0,0.0,0.0,0.0,0.0,0.0,0.0,0.0,0.0,0.0,0.0,0.0,0.0,0.0,0.0,0.0,0.0,0.0,0.0,0.0,0.0,0.0,0.0,0.0,0.0,0.0,0.0,0.0,0.0,0.0,0.0,0.0,0.0,0.0,0.0,0.0,0.0,0.0,0.0,0.0,0.0,0.0,0.0,0.0,0.0,0.0,0.0,0.0,0.0,0.0,0.0,0.0,0.0,0.0,0.0,0.0,0.0,0.0,0.0,0.0,-2.5702,-2.5722,-2.6542,-2.7011,-2.7011,0.0,0.0,0.0,0.0,0.0,0.0,0.0,0.0,0.0,0.0,0.0,0.0,0.0,0.0,0.0,0.0,0.0,0.0,0.0,0.0,0.0,0.0,0.0,0.0,0.0,0.0,0.0,0.0,0.0,0.0,0.0,0.0,0.0,0.0,0.0,0.0,0.0,0.0,0.0,0.0,0.0,0.0,0.0,0.0,0.0,0.0,0.0,0.0,0.0,0.0,0.0,0.0,0.0,0.0,0.0,0.0,0.0,0.0,0.0,0.0,0.0,0.0,0.0,0.0,0.0,0.0,0.0,0.0,0.0,0.0,0.0,0.0,0.0,0.0,0.0,0.0,0.0,0.0,0.0,0.0,0.0,0.0,0.0,0.0,0.0,0.0,0.0,0.0,0.0,0.0,0.0,0.0,0.0,0.0,0.0,0.0,0.0,0.0,0.0,0.0,0.0,0.0,0.0,0.0,0.0,0.0,0.0,0.0,0.0,0.0,0.0,0.0,-2.6364,-2.6696,-2.6696,0.0,0.0,0.0,0.0,0.0,0.0,0.0,0.0,0.0,0.0,0.0,0.0,0.0,0.0,0.0,0.0,0.0,0.0,0.0,0.0,0.0,0.0,0.0,0.0,0.0,0.0,0.0,0.0,0.0,0.0,0.0,0.0,0.0,0.0,0.0,0.0,0.0,0.0,0.0,0.0,0.0,0.0,0.0,0.0,0.0,0.0,0.0,0.0,0.0,0.0,0.0,0.0,0.0,0.0,0.0,0.0,0.0,0.0,0.0,0.0,0.0,0.0,0.0,0.0,0.0,0.0,0.0,0.0,0.0,0.0,0.0,0.0,0.0,0.0,0.0,0.0,0.0,0.0,0.0,0.0,0.0,0.0,0.0,0.0,0.0,0.0,0.0,0.0,0.0,0.0,0.0,0.0,0.0,0.0,0.0,0.0,0.0,0.0,0.0,0.0,0.0,0.0,0.0,0.0,0.0,0.0,0.0,0.0,0.0,0.0,-2.57,-2.57,-2.5778,0.0,-2.5817,0.0,0.0,0.0,0.0,0.0,0.0,0.0,0.0,0.0,0.0,0.0,0.0,0.0,0.0,0.0,0.0,0.0,0.0,0.0,0.0,0.0,0.0,0.0,0.0,0.0,0.0,0.0,0.0,0.0,0.0,0.0,0.0,0.0,0.0,0.0,0.0,0.0,0.0,0.0,0.0,0.0,0.0,0.0,0.0,0.0,0.0,0.0,0.0,0.0,0.0,0.0,0.0,0.0,0.0,0.0,0.0,0.0,0.0,0.0,0.0,0.0,0.0,0.0,0.0,0.0,0.0,0.0,0.0,0.0,0.0,0.0,0.0,0.0,0.0,0.0,0.0,0.0,0.0,0.0,0.0,0.0,0.0,0.0,0.0,0.0,0.0,0.0,0.0,0.0,0.0,0.0,0.0,0.0,0.0,0.0,0.0,0.0,0.0,0.0,0.0,0.0,0.0,0.0,0.0,0.0,0.0,0.0,0.0,0.0,0.0,-2.6212,-2.5705,-2.5689,-2.5692,0.0,0.0,0.0,0.0,0.0,0.0,0.0,0.0,0.0,0.0,0.0,0.0,0.0,0.0,0.0,0.0,0.0,0.0,0.0,0.0,0.0,0.0,0.0,0.0,0.0,0.0,0.0,0.0,0.0,0.0,0.0,0.0,0.0,0.0,0.0,0.0,0.0,0.0,0.0,0.0,0.0,0.0,0.0,0.0,0.0,0.0,0.0,0.0,0.0,0.0,0.0,0.0,0.0,0.0,0.0,0.0,0.0,0.0,0.0,0.0,0.0,0.0,0.0,0.0,0.0,0.0,0.0,0.0,0.0,0.0,0.0,0.0,0.0,0.0,0.0,0.0,0.0,0.0,0.0,0.0,0.0,0.0,0.0,0.0,0.0,0.0,0.0,0.0,0.0,0.0,0.0,0.0,0.0,0.0,0.0,0.0,0.0,0.0,0.0,0.0,0.0,0.0,0.0,0.0,0.0,0.0,0.0,0.0,0.0,0.0,-2.6684,-2.6703,-2.6098,-2.6064,-2.5933,-2.5705,0.0,0.0,0.0,0.0,0.0,0.0,0.0,0.0,0.0,0.0,0.0,0.0,0.0,0.0,0.0,0.0,0.0,0.0,0.0,0.0,0.0,0.0,0.0,0.0,0.0,0.0,0.0,0.0,0.0,0.0,0.0,0.0,0.0,0.0,0.0,0.0,0.0,0.0,0.0,0.0,0.0,0.0,0.0,0.0,0.0,0.0,0.0,0.0,0.0,0.0,0.0,0.0,0.0,0.0,0.0,0.0,0.0,0.0,0.0,0.0,0.0,0.0,0.0,0.0,0.0,0.0,0.0,0.0,0.0,0.0,0.0,0.0,0.0,0.0,0.0,0.0,0.0,0.0,0.0,0.0,0.0,0.0,0.0,0.0,0.0,0.0,0.0,0.0,0.0,0.0,0.0,0.0,0.0,0.0,0.0,0.0,0.0,0.0,0.0,0.0,0.0,0.0,0.0,0.0,0.0,0.0,0.0,0.0,-2.6897,-2.6975,-2.6994,-2.6955,-2.6957,-2.655,0.0,0.0,0.0,0.0,0.0,0.0,0.0,0.0,0.0,0.0,0.0,0.0,0.0,0.0,0.0,0.0,0.0,0.0,0.0,0.0,0.0,0.0,0.0,0.0,0.0,0.0,0.0,0.0,0.0,0.0,0.0,0.0,0.0,0.0,0.0,0.0,0.0,0.0,0.0,0.0,0.0,0.0,0.0,0.0,0.0,0.0,0.0,0.0,0.0,0.0,0.0,0.0,0.0,0.0,0.0,0.0,0.0,0.0,0.0,0.0,0.0,0.0,0.0,0.0,0.0,0.0,0.0,0.0,0.0,0.0,0.0,0.0,0.0,0.0,0.0,0.0,0.0,0.0,0.0,0.0,0.0,0.0,0.0,0.0,0.0,0.0,0.0,0.0,0.0,0.0,0.0,0.0,0.0,0.0,0.0,0.0,0.0,0.0,0.0,0.0,0.0,0.0,0.0,0.0,0.0,0.0,0.0,0.0,0.0,-2.6955,-2.7481,-2.8048,-2.8541,-2.7537,-2.6786,0.0,0.0,0.0,0.0,0.0,0.0,0.0,0.0,0.0,0.0,0.0,0.0,0.0,0.0,0.0,0.0,0.0,0.0,0.0,0.0,0.0,0.0,0.0,0.0,0.0,0.0,0.0,0.0,0.0,0.0,0.0,0.0,0.0,0.0,0.0,0.0,0.0,0.0,0.0,0.0,0.0,0.0,0.0,0.0,0.0,0.0,0.0,0.0,0.0,0.0,0.0,0.0,0.0,0.0,0.0,0.0,0.0,0.0,0.0,0.0,0.0,0.0,0.0,0.0,0.0,0.0,0.0,0.0,0.0,0.0,0.0,0.0,0.0,0.0,0.0,0.0,0.0,0.0,0.0,0.0,0.0,0.0,0.0,0.0,0.0,0.0,0.0,0.0,0.0,0.0,0.0,0.0,0.0,0.0,0.0,0.0,0.0,0.0,0.0,0.0,0.0,0.0,0.0,0.0,0.0,0.0,0.0,0.0,0.0,-2.7315,-2.7901,-2.8351,-2.8595,-2.7532,-2.6786,0.0,0.0,0.0,0.0,0.0,0.0,0.0,0.0,0.0,0.0,0.0,0.0,0.0,0.0,0.0,0.0,0.0,0.0,0.0,0.0,0.0,0.0,0.0,0.0,0.0,0.0,0.0,0.0,0.0,0.0,0.0,0.0,0.0,0.0,0.0,0.0,0.0,0.0,0.0,0.0,0.0,0.0,0.0,0.0,0.0,0.0,0.0,0.0,0.0,0.0,0.0,0.0,0.0,0.0,0.0,0.0,0.0,0.0,0.0,0.0,0.0,0.0,0.0,0.0,0.0,0.0,0.0,0.0,0.0,0.0,0.0,0.0,0.0,0.0,0.0,0.0,0.0,0.0,0.0,0.0,0.0,0.0,0.0,0.0,0.0,0.0,0.0,0.0,0.0,0.0,0.0,0.0,0.0,0.0,0.0,0.0,0.0,0.0,0.0,0.0,0.0,0.0,0.0,0.0,0.0,0.0,0.0,0.0,-2.7312,-2.8168,-2.8251,-2.796,-2.6992,-2.6989,-2.6554,0.0,0.0,0.0,0.0,0.0,0.0,0.0,0.0,0.0,0.0,0.0,0.0,0.0,0.0,0.0,0.0,0.0,0.0,0.0,0.0,0.0,0.0,0.0,0.0,0.0,0.0,0.0,0.0,0.0,0.0,0.0,0.0,0.0,0.0,0.0,0.0,0.0,0.0,0.0,0.0,0.0,0.0,0.0,0.0,0.0,0.0,0.0,0.0,0.0,0.0,0.0,0.0,0.0,0.0,0.0,0.0,0.0,0.0,0.0,0.0,0.0,0.0,0.0,0.0,0.0,0.0,0.0,0.0,0.0,0.0,0.0,0.0,0.0,0.0,0.0,0.0,0.0,0.0,0.0,0.0,0.0,0.0,0.0,0.0,0.0,0.0,0.0,0.0,0.0,0.0,0.0,0.0,0.0,0.0,0.0,0.0,0.0,0.0,0.0,0.0,0.0,0.0,0.0,0.0,0.0,0.0,0.0,0.0,0.0,-2.8996,-2.9558,-2.9469,-2.8663,-2.8035,-2.7357,0.0,0.0,0.0,0.0,0.0,0.0,0.0,0.0,0.0,0.0,0.0,0.0,0.0,0.0,0.0,0.0,0.0,0.0,0.0,0.0,0.0,0.0,0.0,0.0,0.0,0.0,0.0,0.0,0.0,0.0,0.0,0.0,0.0,0.0,0.0,0.0,0.0,0.0,0.0,0.0,0.0,0.0,0.0,0.0,0.0,0.0,0.0,0.0,0.0,0.0,0.0,0.0,0.0,0.0,0.0,0.0,0.0,0.0,0.0,0.0,0.0,0.0,0.0,0.0,0.0,0.0,0.0,0.0,0.0,0.0,0.0,0.0,0.0,0.0,0.0,0.0,0.0,0.0,0.0,0.0,0.0,0.0,0.0,0.0,0.0,0.0,0.0,0.0,0.0,0.0,0.0,0.0,0.0,0.0,0.0,0.0,0.0,0.0,0.0,0.0,0.0,0.0,0.0,0.0,0.0,0.0,0.0,0.0,0.0,-3.0186,-3.0161,-2.9872,-2.9365,-2.8531,-2.7709,-2.6907,0.0,0.0,0.0,0.0,0.0,0.0,0.0,0.0,0.0,0.0,0.0,0.0,0.0,0.0,0.0,0.0,0.0,0.0,0.0,0.0,0.0,0.0,0.0,0.0,0.0,0.0,0.0,0.0,0.0,0.0,0.0,0.0,0.0,0.0,0.0,0.0,0.0,0.0,0.0,0.0,0.0,0.0,0.0,0.0,0.0,0.0,0.0,0.0,0.0,0.0,0.0,0.0,0.0,0.0,0.0,0.0,0.0,0.0,0.0,0.0,0.0,0.0,0.0,0.0,0.0,0.0,0.0,0.0,0.0,0.0,0.0,0.0,0.0,0.0,0.0,0.0,0.0,0.0,0.0,0.0,0.0,0.0,0.0,0.0,0.0,0.0,0.0,0.0,0.0,0.0,0.0,0.0,0.0,0.0,0.0,0.0,0.0,0.0,0.0,0.0,0.0,0.0,0.0,0.0,0.0,0.0,0.0,0.0,-3.1832,-3.0414,-2.966,-2.9562,-2.8771,-2.7853,0.0,0.0,0.0,0.0,0.0,0.0,0.0,0.0,0.0,0.0,0.0,0.0,0.0,0.0,0.0,0.0,0.0,0.0,0.0,0.0,0.0,0.0,0.0,0.0,0.0,0.0,0.0,0.0,0.0,0.0,0.0,0.0,0.0,0.0,0.0,0.0,0.0,0.0,0.0,0.0,0.0,0.0,0.0,0.0,0.0,0.0,0.0,0.0,0.0,0.0,0.0,0.0,0.0,0.0,0.0,0.0,0.0,0.0,0.0,0.0,0.0,0.0,0.0,0.0,0.0,0.0,0.0,0.0,0.0,0.0,0.0,0.0,0.0,0.0,0.0,0.0,0.0,0.0,0.0,0.0,0.0,0.0,0.0,0.0,0.0,0.0,0.0,0.0,0.0,0.0,0.0,0.0,0.0,0.0,0.0,0.0,0.0,0.0,0.0,0.0,0.0,0.0,0.0,0.0,0.0,0.0,0.0,0.0,0.0,-3.3474,-3.375,-3.3305,-3.208,-3.1241,-2.9842,0.0,0.0,0.0,0.0,0.0,0.0,0.0,0.0,0.0,0.0,0.0,0.0,0.0,0.0,0.0,0.0,0.0,0.0,0.0,0.0,0.0,0.0,0.0,0.0,0.0,0.0,0.0,0.0,0.0,0.0,0.0,0.0,0.0,0.0,0.0,0.0,0.0,0.0,0.0,0.0,0.0,0.0,0.0,0.0,0.0,0.0,0.0,0.0,0.0,0.0,0.0,0.0,0.0,0.0,0.0,0.0,0.0,0.0,0.0,0.0,0.0,0.0,0.0,0.0,0.0,0.0,0.0,0.0,0.0,0.0,0.0,0.0,0.0,0.0,0.0,0.0,0.0,0.0,0.0,0.0,0.0,0.0,0.0,0.0,0.0,0.0,0.0,0.0,0.0,0.0,0.0,0.0,0.0,0.0,0.0,0.0,0.0,0.0,0.0,0.0,0.0,0.0,0.0,0.0,0.0,0.0,0.0,0.0,-3.334,-3.4698,-3.6207,-3.6416,-3.5111,-3.2946,-3.0946,0.0,0.0,0.0,0.0,0.0,0.0,0.0,0.0,0.0,0.0,0.0,0.0,0.0,0.0,0.0,0.0,0.0,0.0,0.0,0.0,0.0,0.0,0.0,0.0,0.0,0.0,0.0,0.0,0.0,0.0,0.0,0.0,0.0,0.0,0.0,0.0,0.0,0.0,0.0,0.0,0.0,0.0,0.0,0.0,0.0,0.0,0.0,0.0,0.0,0.0,0.0,0.0,0.0,0.0,0.0,0.0,0.0,0.0,0.0,0.0,0.0,0.0,0.0,0.0,0.0,0.0,0.0,0.0,0.0,0.0,0.0,0.0,0.0,0.0,0.0,0.0,0.0,0.0,0.0,0.0,0.0,0.0,0.0,0.0,0.0,0.0,0.0,0.0,0.0,0.0,0.0,0.0,0.0,0.0,0.0,0.0,0.0,0.0,0.0,0.0,0.0,0.0,0.0,0.0,0.0,0.0,0.0,0.0,-3.4508,-3.5398,-3.7651,-3.855,-3.7916,-3.4205,-3.1678,0.0,0.0,0.0,0.0,0.0,0.0,0.0,0.0,0.0,0.0,0.0,0.0,0.0,0.0,0.0,0.0,0.0,0.0,0.0,0.0,0.0,0.0,0.0,0.0,0.0,0.0,0.0,0.0,0.0,0.0,0.0,0.0,0.0,0.0,0.0,0.0,0.0,0.0,0.0,0.0,0.0,0.0,0.0,0.0,0.0,0.0,0.0,0.0,0.0,0.0,0.0,0.0,0.0,0.0,0.0,0.0,0.0,0.0,0.0,0.0,0.0,0.0,0.0,0.0,0.0,0.0,0.0,0.0,0.0,0.0,0.0,0.0,0.0,0.0,0.0,0.0,0.0,0.0,0.0,0.0,0.0,0.0,0.0,0.0,0.0,0.0,0.0,0.0,0.0,0.0,0.0,0.0,0.0,0.0,0.0,0.0,0.0,0.0,0.0,0.0,0.0,0.0,0.0,0.0,0.0,0.0,0.0,0.0,-3.445,-3.5296,-3.6485,-3.7394,-3.7908,-3.5775,-3.3615,0.0,0.0,0.0,0.0,0.0,0.0,0.0,0.0,0.0,0.0,0.0,0.0,0.0,0.0,0.0,0.0,0.0,0.0,0.0,0.0,0.0,0.0,0.0,0.0,0.0,0.0,0.0,0.0,0.0,0.0,0.0,0.0,0.0,0.0,0.0,0.0,0.0,0.0,0.0,0.0,0.0,0.0,0.0,0.0,0.0,0.0,0.0,0.0,-2.5512,0.0,0.0,0.0,0.0,0.0,0.0,0.0,0.0,0.0,0.0,0.0,0.0,0.0,0.0,0.0,0.0,0.0,0.0,0.0,0.0,0.0,0.0,0.0,0.0,0.0,0.0,0.0,0.0,0.0,0.0,0.0,0.0,0.0,0.0,0.0,0.0,0.0,0.0,0.0,0.0,0.0,0.0,0.0,0.0,0.0,0.0,0.0,0.0,0.0,0.0,0.0,0.0,0.0,0.0,0.0,0.0,0.0,0.0,0.0,-3.416,-3.4961,-3.5879,-3.6736,-3.7423,-3.6107,-3.4587,0.0,0.0,0.0,0.0,0.0,0.0,0.0,0.0,0.0,0.0,0.0,0.0,0.0,0.0,0.0,0.0,0.0,0.0,0.0,0.0,0.0,0.0,0.0,0.0,0.0,0.0,0.0,0.0,0.0,0.0,0.0,0.0,0.0,0.0,0.0,0.0,0.0,0.0,0.0,0.0,0.0,0.0,0.0,0.0,0.0,0.0,0.0,0.0,0.0,0.0,0.0,0.0,0.0,0.0,0.0,0.0,0.0,0.0,0.0,0.0,0.0,0.0,0.0,0.0,0.0,0.0,0.0,0.0,0.0,0.0,0.0,0.0,0.0,0.0,0.0,0.0,0.0,0.0,0.0,0.0,0.0,0.0,0.0,0.0,0.0,0.0,0.0,0.0,0.0,0.0,0.0,0.0,0.0,0.0,0.0,0.0,0.0,0.0,0.0,0.0,0.0,0.0,0.0,0.0,0.0,0.0,0.0,-3.2628,-3.3835,-3.4574,-3.5414,-3.6257,-3.7023,-3.5864,-3.4925,-3.4268,0.0,0.0,0.0,0.0,0.0,0.0,0.0,0.0,0.0,0.0,0.0,0.0,0.0,0.0,0.0,0.0,0.0,0.0,0.0,0.0,0.0,0.0,0.0,0.0,0.0,0.0,0.0,0.0,0.0,0.0,0.0,0.0,0.0,0.0,0.0,0.0,0.0,0.0,-2.1827,-2.3904,0.0,0.0,0.0,0.0,0.0,0.0,0.0,0.0,-2.845,0.0,0.0,0.0,0.0,0.0,0.0,0.0,0.0,0.0,0.0,0.0,0.0,0.0,0.0,0.0,0.0,0.0,0.0,0.0,0.0,0.0,0.0,0.0,0.0,0.0,0.0,0.0,0.0,0.0,0.0,0.0,0.0,0.0,0.0,0.0,0.0,0.0,0.0,0.0,0.0,0.0,0.0,0.0,0.0,0.0,0.0,0.0,0.0,0.0,0.0,0.0,0.0,0.0,0.0,0.0,0.0,-3.0978,-3.255,-3.3721,-3.451,-3.4682,-3.5483,-3.6889,-3.5572,-3.4766,-3.4584,0.0,0.0,0.0,0.0,0.0,0.0,0.0,0.0,0.0,0.0,0.0,0.0,0.0,0.0,0.0,0.0,0.0,0.0,0.0,0.0,0.0,0.0,0.0,0.0,0.0,0.0,0.0,0.0,0.0,0.0,0.0,0.0,0.0,0.0,0.0,0.0,0.0,0.0,0.0,-2.545,-2.67,0.0,0.0,0.0,0.0,0.0,0.0,0.0,0.0,-2.8723,0.0,0.0,0.0,0.0,0.0,0.0,0.0,0.0,0.0,0.0,0.0,0.0,0.0,0.0,0.0,0.0,0.0,0.0,0.0,0.0,0.0,0.0,0.0,0.0,0.0,0.0,0.0,0.0,0.0,0.0,0.0,0.0,0.0,0.0,0.0,0.0,0.0,0.0,0.0,0.0,0.0,0.0,0.0,0.0,0.0,0.0,0.0,0.0,0.0,0.0,0.0,0.0,0.0,0.0,0.0,-3.1925,-3.2695,-3.3824,-3.5342,-3.4714,-3.5286,-3.7132,-3.5559,-3.4622,0.0,0.0,0.0,0.0,0.0,0.0,0.0,0.0,0.0,0.0,0.0,0.0,0.0,0.0,0.0,0.0,0.0,0.0,0.0,0.0,0.0,0.0,0.0,0.0,0.0,0.0,0.0,0.0,0.0,0.0,0.0,0.0,0.0,0.0,0.0,0.0,0.0,0.0,0.0,0.0,-2.6992,-2.8028,-2.9658,0.0,0.0,0.0,0.0,0.0,0.0,-3.1242,-3.0289,0.0,0.0,0.0,0.0,0.0,0.0,0.0,0.0,0.0,0.0,0.0,0.0,0.0,0.0,0.0,0.0,0.0,0.0,0.0,0.0,0.0,0.0,0.0,0.0,0.0,0.0,0.0,0.0,0.0,0.0,0.0,0.0,0.0,0.0,0.0,0.0,0.0,0.0,0.0,0.0,0.0,0.0,0.0,0.0,0.0,0.0,0.0,0.0,0.0,0.0,0.0,0.0,0.0,0.0,0.0,-3.2609,-3.2915,-3.4005,-3.5895,-3.4792,-3.5212,-3.736,-3.5547,-3.4428,0.0,0.0,0.0,0.0,0.0,0.0,0.0,0.0,0.0,0.0,0.0,0.0,0.0,0.0,0.0,0.0,0.0,0.0,0.0,0.0,0.0,0.0,0.0,0.0,0.0,0.0,0.0,0.0,0.0,0.0,0.0,0.0,0.0,0.0,0.0,0.0,0.0,0.0,0.0,0.0,0.0,-2.9126,-3.0885,-3.1061,0.0,0.0,0.0,0.0,-3.3469,-3.2831,0.0,0.0,0.0,0.0,0.0,0.0,0.0,0.0,0.0,0.0,0.0,0.0,0.0,0.0,0.0,0.0,0.0,0.0,0.0,0.0,0.0,0.0,0.0,0.0,0.0,0.0,0.0,0.0,0.0,0.0,0.0,0.0,0.0,0.0,0.0,0.0,0.0,0.0,0.0,0.0,0.0,0.0,0.0,0.0,0.0,0.0,0.0,0.0,0.0,0.0,0.0,0.0,0.0,0.0,0.0,0.0,-3.1738,-3.3086,-3.4223,-3.5041,-3.4293,-3.5023,-3.7382,-3.533,-3.4166,0.0,0.0,0.0,0.0,0.0,0.0,0.0,0.0,0.0,0.0,0.0,0.0,0.0,0.0,0.0,0.0,0.0,0.0,0.0,0.0,0.0,0.0,0.0,0.0,0.0,0.0,0.0,0.0,0.0,0.0,0.0,0.0,0.0,0.0,0.0,0.0,0.0,0.0,0.0,0.0,0.0,-2.9214,-3.1626,-3.1859,-3.177,0.0,0.0,-3.3302,-3.3944,-3.3431,0.0,0.0,0.0,0.0,0.0,0.0,0.0,0.0,0.0,0.0,0.0,0.0,0.0,0.0,0.0,0.0,0.0,0.0,0.0,0.0,0.0,0.0,0.0,0.0,0.0,0.0,0.0,0.0,0.0,0.0,0.0,0.0,0.0,0.0,0.0,0.0,0.0,0.0,0.0,0.0,0.0,0.0,0.0,0.0,0.0,0.0,0.0,0.0,0.0,0.0,0.0,0.0,0.0,0.0,0.0,-3.0198,-3.2102,-3.3272,-3.4679,-3.6285,-3.4706,-3.5202,-3.8083,-3.5468,-3.4036,0.0,0.0,0.0,0.0,0.0,0.0,0.0,0.0,0.0,0.0,0.0,0.0,0.0,0.0,0.0,0.0,0.0,0.0,0.0,0.0,0.0,0.0,0.0,0.0,0.0,0.0,0.0,0.0,0.0,0.0,0.0,0.0,0.0,0.0,0.0,0.0,0.0,0.0,0.0,0.0,0.0,0.0,-3.1592,-3.2551,0.0,0.0,0.0,-3.4272,-3.4136,0.0,0.0,0.0,0.0,0.0,0.0,0.0,0.0,0.0,0.0,0.0,0.0,0.0,0.0,0.0,0.0,0.0,0.0,0.0,0.0,0.0,0.0,0.0,0.0,0.0,0.0,0.0,0.0,0.0,0.0,0.0,0.0,0.0,0.0,0.0,0.0,0.0,0.0,0.0,0.0,0.0,0.0,0.0,0.0,0.0,0.0,0.0,0.0,0.0,0.0,0.0,0.0,0.0,0.0,0.0,0.0,0.0,-3.2396,-3.3181,-3.4779,-3.7189,-3.5143,-3.5388,-3.823,-3.5676,0.0,0.0,0.0,0.0,0.0,0.0,0.0,0.0,0.0,0.0,0.0,0.0,0.0,0.0,0.0,0.0,0.0,0.0,0.0,0.0,0.0,0.0,0.0,0.0,0.0,0.0,0.0,-2.1607,0.0,0.0,0.0,0.0,0.0,0.0,0.0,0.0,0.0,0.0,0.0,0.0,0.0,0.0,-3.0483,-3.2075,-3.3438,-3.4102,0.0,0.0,-3.4821,-3.4702,-3.4542,-3.4029,0.0,0.0,0.0,0.0,0.0,0.0,0.0,0.0,0.0,0.0,0.0,0.0,0.0,0.0,0.0,0.0,0.0,0.0,0.0,0.0,0.0,0.0,0.0,0.0,0.0,0.0,0.0,0.0,0.0,0.0,0.0,0.0,0.0,0.0,0.0,0.0,0.0,0.0,0.0,0.0,0.0,0.0,0.0,0.0,0.0,0.0,0.0,0.0,0.0,0.0,0.0,0.0,0.0,0.0,-2.97,-3.196,-3.2591,-3.4197,-3.6775,-3.5323,-3.5457,-3.7477,-3.5901,-3.47,0.0,0.0,0.0,0.0,0.0,0.0,0.0,0.0,0.0,0.0,0.0,0.0,0.0,0.0,0.0,0.0,0.0,0.0,0.0,0.0,0.0,0.0,0.0,0.0,0.0,0.0,0.0,0.0,0.0,0.0,0.0,0.0,0.0,0.0,0.0,0.0,0.0,0.0,0.0,0.0,0.0,-3.2107,-3.3741,-3.4618,-3.5091,0.0,-3.4428,-3.4515,-3.5989,-3.4283,-3.3246,-3.4636,0.0,0.0,0.0,0.0,0.0,0.0,0.0,0.0,0.0,0.0,0.0,0.0,0.0,0.0,0.0,0.0,0.0,0.0,0.0,0.0,0.0,0.0,0.0,0.0,0.0,0.0,0.0,0.0,0.0,0.0,0.0,0.0,0.0,0.0,0.0,0.0,0.0,0.0,0.0,0.0,0.0,0.0,0.0,0.0,0.0,0.0,0.0,0.0,0.0,0.0,0.0,0.0,0.0,-2.9992,-3.1727,-3.2451,-3.402,-3.6341,-3.4994,-3.5038,-3.6772,-3.5947,-3.4856,0.0,0.0,0.0,0.0,0.0,0.0,0.0,0.0,0.0,0.0,0.0,0.0,0.0,0.0,0.0,0.0,0.0,0.0,0.0,0.0,0.0,0.0,0.0,0.0,0.0,0.0,0.0,0.0,-3.0897,-3.1357,-3.0679,0.0,0.0,0.0,0.0,0.0,0.0,0.0,0.0,0.0,0.0,-3.2249,-3.3775,-3.4176,0.0,0.0,-3.4067,-3.3884,-3.4049,-3.3615,-3.3318,-3.3473,-3.1735,0.0,0.0,0.0,0.0,0.0,0.0,0.0,0.0,0.0,0.0,0.0,0.0,0.0,0.0,0.0,0.0,0.0,0.0,0.0,0.0,0.0,0.0,0.0,0.0,0.0,0.0,0.0,0.0,0.0,0.0,0.0,0.0,0.0,0.0,0.0,0.0,0.0,0.0,0.0,0.0,0.0,0.0,0.0,0.0,0.0,0.0,0.0,0.0,0.0,0.0,0.0,0.0,-3.0056,-3.1706,-3.2188,-3.3705,-3.6322,-3.4872,-3.4676,-3.5865,-3.5804,-3.499,0.0,0.0,0.0,0.0,0.0,0.0,0.0,0.0,0.0,0.0,0.0,0.0,0.0,0.0,0.0,0.0,0.0,0.0,0.0,0.0,0.0,0.0,0.0,0.0,0.0,0.0,0.0,0.0,-3.2665,-3.2484,-3.0408,0.0,0.0,0.0,0.0,0.0,0.0,0.0,0.0,0.0,0.0,-3.3179,-3.447,-3.4757,-3.483,-3.4848,-3.4632,-3.433,-3.4019,-3.3799,-3.3578,-3.3449,0.0,0.0,0.0,0.0,0.0,0.0,0.0,0.0,0.0,0.0,0.0,0.0,0.0,0.0,0.0,0.0,0.0,0.0,0.0,0.0,0.0,0.0,0.0,0.0,0.0,0.0,0.0,-2.1571,0.0,0.0,-2.1732,0.0,0.0,0.0,0.0,0.0,0.0,0.0,0.0,0.0,0.0,0.0,0.0,0.0,0.0,0.0,0.0,0.0,0.0,0.0,0.0,0.0,0.0,-2.974,-3.1949,-3.1743,-3.319,-3.6409,-3.5087,-3.4491,-3.4871,-3.5526,-3.5172,-3.3634,0.0,0.0,0.0,0.0,0.0,0.0,0.0,0.0,0.0,0.0,0.0,0.0,0.0,0.0,0.0,0.0,0.0,0.0,0.0,0.0,0.0,0.0,0.0,0.0,0.0,0.0,-3.0501,-3.2767,-3.289,0.0,0.0,0.0,0.0,0.0,0.0,0.0,0.0,0.0,0.0,-3.3596,-3.5335,-3.6182,-3.6824,-3.7086,-3.7141,-3.6444,-3.6161,-3.6851,-3.5041,-3.3974,0.0,0.0,0.0,0.0,0.0,0.0,0.0,0.0,0.0,0.0,0.0,0.0,0.0,0.0,0.0,0.0,0.0,0.0,0.0,0.0,0.0,0.0,0.0,0.0,0.0,0.0,0.0,-2.2635,-2.2854,0.0,0.0,0.0,0.0,0.0,0.0,0.0,0.0,0.0,0.0,0.0,-2.8367,-2.8827,0.0,0.0,0.0,0.0,0.0,0.0,0.0,0.0,0.0,0.0,0.0,0.0,-3.0318,-3.2364,-3.2312,-3.3508,-3.6075,-3.5236,-3.4763,-3.4886,-3.5388,-3.5194,-3.4287,0.0,0.0,0.0,0.0,0.0,0.0,0.0,0.0,0.0,0.0,0.0,0.0,0.0,0.0,0.0,0.0,0.0,0.0,0.0,0.0,0.0,0.0,0.0,0.0,0.0,-3.0654,0.0,0.0,0.0,0.0,0.0,0.0,0.0,0.0,0.0,0.0,0.0,-3.137,-3.2893,-3.4214,-3.5298,-3.6018,-3.6309,-3.6596,0.0,0.0,0.0,0.0,0.0,0.0,0.0,0.0,0.0,0.0,0.0,0.0,0.0,0.0,-2.9732,-2.8981,-2.8744,-2.8672,-2.8797,0.0,0.0,0.0,0.0,0.0,0.0,0.0,0.0,0.0,0.0,0.0,0.0,0.0,0.0,-2.4877,0.0,-2.4865,0.0,0.0,0.0,0.0,0.0,0.0,0.0,0.0,-2.9046,-2.966,-3.03,-3.0558,-3.0523,0.0,-3.0041,-2.876,0.0,0.0,0.0,0.0,0.0,0.0,0.0,0.0,-3.0879,-3.2166,-3.265,-3.3717,-3.5355,-3.4998,-3.4759,-3.4759,-3.5256,-3.5224,-3.4584,-3.3833,-3.2779,0.0,0.0,0.0,0.0,0.0,0.0,0.0,0.0,0.0,0.0,0.0,0.0,0.0,0.0,0.0,0.0,0.0,0.0,0.0,0.0,0.0,0.0,0.0,-3.2069,0.0,0.0,0.0,0.0,0.0,0.0,0.0,0.0,0.0,-3.1253,-3.2133,-3.3094,-3.4064,-3.507,-3.5889,-3.631,0.0,0.0,0.0,0.0,0.0,0.0,0.0,-3.4431,-3.4499,-3.4188,-3.3943,-3.3976,-3.3682,-3.3335,-3.3037,0.0,0.0,-3.107,-3.0624,-3.0654,-3.1058,-3.0758,-3.0513,-3.0751,-3.1081,-3.1452,0.0,0.0,0.0,0.0,0.0,0.0,0.0,0.0,-2.8692,-2.8037,0.0,-2.7446,0.0,0.0,0.0,0.0,-2.5946,-2.8452,0.0,0.0,-3.1334,-3.191,-3.1419,-3.2024,-3.1984,-3.1336,-3.2108,-3.1754,-3.0232,-2.8354,0.0,0.0,0.0,0.0,0.0,0.0,-3.1404,-3.146,-3.2771,-3.3795,-3.451,-3.4523,-3.4561,-3.4556,-3.5267,-3.5301,-3.4612,-3.5368,-3.4575,-3.1852,-3.1183,0.0,0.0,0.0,0.0,0.0,0.0,0.0,0.0,0.0,0.0,0.0,0.0,0.0,0.0,0.0,0.0,0.0,0.0,0.0,0.0,-3.0165,0.0,0.0,0.0,0.0,0.0,0.0,0.0,0.0,0.0,0.0,-3.2781,-3.3954,-3.4914,-3.4968,0.0,0.0,0.0,0.0,-3.7984,-3.7966,-3.7897,-3.7827,-3.7827,-3.7111,-3.6236,-3.5331,0.0,0.0,-3.395,-3.4104,-3.4472,-3.5097,-3.5599,-3.5456,-3.3367,-3.3039,-3.3319,-3.4033,-3.4133,-3.4002,-3.3411,-3.3609,-3.4146,-2.9331,0.0,0.0,0.0,0.0,-2.8458,-2.8937,-2.9758,-2.9659,-2.9284,-2.8733,-2.8395,0.0,0.0,0.0,0.0,0.0,0.0,-2.9623,-3.0418,-3.0566,-3.0733,-3.0964,-3.0706,-3.046,-3.0258,-3.1007,-3.1312,-3.1224,-3.0745,-2.9976,-2.892,0.0,0.0,0.0,0.0,-3.2246,-3.2838,-3.3715,-3.4269,-3.4489,-3.5013,-3.5278,-3.5278,-3.6045,-3.6079,-3.5318,-3.5548,-3.5132,-3.3922,-3.2211,0.0,0.0,0.0,0.0,0.0,0.0,0.0,0.0,0.0,0.0,0.0,0.0,0.0,0.0,0.0,0.0,0.0,0.0,0.0,-3.0572,-3.1912,-3.2493,0.0,0.0,0.0,0.0,0.0,0.0,0.0,0.0,0.0,-3.4633,-3.47,-3.5142,0.0,0.0,-3.6759,-3.6812,-3.7359,-3.7792,-3.7774,-3.7308,0.0,-3.7614,-3.7006,-3.6524,-3.6719,-3.6522,-3.6362,-3.6362,-3.6488,-3.647,-3.6149,-3.6203,-3.6096,-3.5579,-3.5296,-3.5367,-3.565,-3.5344,-3.4914,-3.4683,-3.479,-3.495,-3.143,-3.1475,-3.0385,-2.9971,-3.0107,-3.0026,-3.0455,-3.1193,-3.1102,-3.0661,-2.9942,-2.9746,-2.8849,-2.7483,-2.7172,0.0,0.0,0.0,-3.0613,-3.1544,-3.1232,-3.128,-3.1609,-3.1496,-3.1415,-3.1463,-3.2433,-3.2755,-3.2505,-3.2562,-3.1746,-3.0153,0.0,0.0,-3.1746,-3.245,-3.3143,-3.3825,-3.4556,-3.4945,-3.4962,-3.569,-3.6079,-3.6096,-3.7117,-3.7297,-3.6546,-3.6495,-3.609,-3.5154,-3.3581,-3.222,0.0,0.0,0.0,0.0,0.0,0.0,0.0,0.0,0.0,0.0,0.0,-2.487,-2.5187,0.0,0.0,0.0,-2.9163,-3.0808,-3.2171,-3.2834,0.0,0.0,0.0,0.0,0.0,0.0,0.0,-3.3988,-3.4891,-3.5545,-3.5716,-3.5476,-3.5647,-3.6567,-3.6876,-3.7057,-3.711,0.0,-3.7667,-3.7667,-3.7274,-3.7238,-3.7952,-3.7666,-3.738,-3.7449,-3.6897,-3.6684,-3.6969,-3.7059,-3.7059,-3.6934,-3.6881,-3.6881,-3.6881,-3.6773,-3.6718,-3.6845,-3.6488,-3.6167,-3.6149,-3.6149,-3.6149,-3.3838,-3.3611,-3.1046,-3.0755,-3.1942,-3.1958,-3.2257,-3.2697,-3.2688,-3.1935,-3.0756,-3.115,-3.0368,-2.8785,-2.8849,0.0,-2.9582,-3.12,-3.2184,-3.2743,-3.2819,-3.2893,-3.2974,-3.3487,-3.3793,-3.3793,-3.5202,-3.5213,-3.3956,-3.3867,-3.3191,-3.1919,-3.1975,-3.2221,-3.2661,-3.3423,-3.4056,-3.4481,-3.5273,-3.5655,-3.5655,-3.6369,-3.6757,-3.6841,-3.8156,-3.8503,-3.7862,-3.7877,-3.7168,-3.5638,-3.5013,-3.3765,-3.1742,0.0,0.0,0.0,0.0,0.0,0.0,0.0,0.0,0.0,0.0,0.0,0.0,0.0,0.0,0.0,-3.0413,0.0,-3.259,-3.3213,0.0,0.0,0.0,-3.4111,-3.4978,-3.4428,-3.4303,-3.5065,0.0,0.0,-3.6257,-3.631,-3.6345,-3.6541,-3.7202,-3.7703,-3.7793,-3.7756,-3.772,-3.7863,-3.7827,-3.8059,-3.8754,-3.8861,-3.8611,-3.7987,-3.6542,-3.6132,-3.672,-3.6845,-3.7059,-3.7684,-3.7809,-3.7809,-3.7809,-3.7773,-3.7684,-3.7702,-3.7595,-3.7541,-3.7488,-3.747,-3.7452,-3.3755,-3.4061,-3.337,-3.3271,-3.346,-3.3401,-3.3221,-3.2919,-3.2698,-3.2222,-3.1496,-3.0952,-3.0289,-2.9557,-3.0073,-3.0406,-3.0674,-3.1677,-3.2462,-3.3054,-3.2695,-3.278,-3.3248,-3.2905,-3.2749,-3.2796,-3.3633,-3.4073,-3.4127,-3.4269,-3.4351,-3.439,-3.405,-3.3599,-3.3134,-3.4293,-3.4767,-3.4435,-3.5646,-3.6188,-3.5967,-3.6172,-3.6532,-3.7071,-3.7458,-3.7556,-3.7392,-3.7796,-3.7143,-3.5258,-3.4901,-3.4334,-3.3339,-3.1454,0.0,0.0,0.0,0.0,0.0,0.0,0.0,0.0,0.0,-2.8972,-3.0263,0.0,-3.1915,0.0,-3.2142,-3.266,-3.3301,-3.377,0.0,0.0,-3.4296,-3.465,-3.5515,-3.5722,-3.5741,-3.5645,-3.6451,-3.7023,-3.6864,-3.6996,-3.7126,-3.7126,-3.7323,-3.7735,-3.8416,-3.8448,-3.8606,-3.9181,-3.9289,-3.9432,-3.9593,-3.9664,-3.9556,-3.9379,-3.8986,-3.8879,-3.904,-3.9074,-3.9147,-3.9325,-3.9361,-3.9361,-3.9307,-3.8933,-3.854,-3.8469,-3.8023,-3.7595,-3.7595,-3.7595,-3.7595,-3.428,-3.4208,-3.4297,-3.4242,-3.4092,-3.4026,-3.385,-3.3529,-3.336,-3.3121,-3.276,-3.2222,-3.1832,-3.1603,-3.1964,-3.2216,-3.2361,-3.2867,-3.3291,-3.3641,-3.3433,-3.355,-3.3875,-3.3814,-3.3767,-3.3783,-3.446,-3.4775,-3.4784,-3.4898,-3.4959,-3.4938,-3.4665,-3.4319,-3.4005,-3.4914,-3.5489,-3.5743,-3.644,-3.6577,-3.6136,-3.6427,-3.6783,-3.7187,-3.7522,-3.7711,-3.7767,-3.7785,-3.715,-3.5789,-3.5324,-3.469,-3.3799,-3.2591,-3.1491,0.0,0.0,0.0,0.0,0.0,0.0,0.0,0.0,0.0,0.0,0.0,-3.3585,-3.3321,-3.3089,-3.3209,-3.3894,-3.4756,-3.5144,-3.489,-3.5464,-3.5916,-3.6006,-3.6206,-3.6303,-3.6219,-3.6823,-3.7346,-3.7621,-3.7791,-3.8048,-3.8405,-3.8479,-3.8572,-3.8771,-3.9,-3.9355,-3.9823,-3.9877,-4.0037,-4.0378,-4.0449,-4.0431,-4.0414,-4.0126,-3.9877,-3.9877,-3.9877,-3.9877,-3.9877,-3.9877,-3.9877,-3.9859,-3.9591,-3.9307,-3.9235,-3.895,-3.8397,-3.7755,-3.7595,-3.7595,-3.517,-3.4498,-3.4662,-3.4633,-3.4453,-3.4423,-3.4331,-3.4163,-3.4149,-3.406,-3.391,-3.3849,-3.3789,-3.3758,-3.3834,-3.391,-3.4015,-3.4119,-3.4209,-3.4331,-3.4495,-3.4615,-3.4752,-3.5322,-3.5599,-3.5675,-3.6215,-3.6199,-3.563,-3.5614,-3.5337,-3.4782,-3.4767,-3.4898,-3.513,-3.5487,-3.6222,-3.7316,-3.7194,-3.6805,-3.6183,-3.6789,-3.711,-3.7126,-3.7746,-3.8108,-3.8206,-3.7723,-3.7145,-3.6511,-3.5955,-3.5126,-3.3915,-3.3787,-3.2993,0.0,-3.1284,0.0,0.0,0.0,0.0,0.0,0.0,0.0,0.0,-3.3656,-3.4737,-3.435,-3.3729,-3.368,-3.4451,-3.5841,-3.6391,-3.572,-3.688,-3.7461,-3.6801,-3.6684,-3.6772,-3.7081,-3.7199,-3.7682,-3.8832,-3.8965,-3.9347,-4.0052,-4.0358,-4.0198,-3.9504,-3.9752,-4.0091,-4.0162,-4.0217,-4.061,-4.1127,-4.1252,-4.127,-4.1181,-4.077,-4.0216,-4.0287,-4.0289,-4.0287,-4.0376,-4.0412,-4.0323,-4.0323,-4.0271,-4.0055,-4.0057,-3.9932,-3.9397,-3.8362,-3.8184,-3.8023,-3.6122,-3.5829,-3.586,-3.586,-3.5829,-3.5719,-3.5018,-3.3939,-3.3819,-3.3728,-3.3607,-3.3728,-3.3713,-3.3591,-3.3849,-3.3985,-3.4015,-3.3984,-3.4333,-3.5019,-3.4942,-3.5263,-3.586,-3.6029,-3.6152,-3.6307,-3.643,-3.643,-3.6307,-3.6307,-3.623,-3.6107,-3.6138,-3.6199,-3.6367,0.0,0.0,0.0,-3.6781,-3.6551,-3.6427,-3.6551,-3.6644,-3.666,-3.6768,0.0,-3.6876,-3.7302,-3.7038,-3.5972,-3.6354,0.0,0.0,0.0,0.0,0.0,0.0,0.0,0.0,0.0,0.0,0.0,-3.399,-3.3889,-3.3922,-3.4521,-3.4939,-3.501,-3.4893,-3.4858,-3.5051,-3.6416,-3.7262,-3.7154,-3.7879,-3.8565,-3.8962,-3.8663,-3.8677,-3.9369,-3.9761,-4.0329,-4.1106,-4.1484,-4.1622,-4.1841,-4.2412,-4.2483,-4.1716,-4.1199,-4.1145,-4.168,-4.1716,-4.1841,-4.2019,-4.2058,-4.2004,-4.2037,-4.1986,-4.1805,-4.1752,-4.1805,-4.2091,-4.2534,-4.2287,-4.2055,-4.2605,-4.1805,-4.0967,-4.0895,-4.0394,-3.9805,-3.9557,-3.9985,-4.0253,-3.6195,-3.6085,-3.6164,-3.6148,0.0,-3.6085,-3.5595,-3.4802,-3.4817,-3.4724,-3.4614,-3.4692,-3.4692,-3.4568,-3.4755,-3.4894,-3.4987,-3.4941,-3.52,-3.5567,-3.5535,-3.5734,-3.6211,-3.6211,-3.632,-3.6492,-3.6492,-3.6492,-3.6492,-3.6492,-3.6492,-3.6492,-3.6492,-3.6523,-3.66,-3.6616,-3.6677,-3.6847,-3.6616,-3.6492,-3.6492,-3.6492,-3.6492,-3.6492,-3.6492,0.0,0.0,0.0,0.0,0.0,0.0,0.0,0.0,0.0,0.0,-3.4535,-3.4227,-3.4169,-3.4501,-3.4516,-3.5001,-3.6079,-3.6163,-3.6056,-3.5812,-3.5586,-3.5535,-3.5728,-3.5749,-3.5904,-3.6356,-3.7702,-3.8444,-3.8151,-3.9065,-3.975,-3.9721,-3.9847,-4.0127,-4.0726,-4.1068,-4.1566,-4.2598,-4.2831,-4.3054,-4.3393,-4.3786,-4.3911,-4.3465,-4.2787,-4.2376,-4.2305,-4.2308,-4.2308,-4.2308,-4.2308,-4.2325,-4.2343,-4.2626,-4.268,-4.2379,-4.2644,-4.3036,-4.3372,-4.3144,-4.3054,-4.3358,-4.3108,-4.2733,-4.2412,-4.2269,-4.2195,-4.216,-4.1663,-4.1127,-3.5735,-3.5623,-3.5689,-3.5737,-3.5688,-3.5879,-3.5864,-3.572,0.0,0.0,0.0,-3.5688,-3.5688,-3.5671,-3.5688,-3.5799,-3.5957,-3.5925,-3.5941,-3.5941,-3.591,-3.5973,-3.6101,-3.6133,-3.6242,-3.646,-3.6492,-3.6492,-3.6492,-3.6492,-3.6492,-3.6492,-3.6492,-3.6492,-3.6492,-3.6492,-3.6554,-3.6662,-3.6554,-3.6492,-3.6492,-3.6492,-3.6492,-3.6492,-3.6492,-3.6538,-3.6662,-3.6693,-3.6521,-3.6052,-3.608,-3.5876,-3.5417,-3.5376,-3.5187,-3.4813,-3.5291,-3.5716,-3.5926,-3.6374,-3.7,-3.7831,-3.8183,-3.8024,-3.7348,-3.6739,-3.6451,-3.6672,-3.6676,-3.7025,-3.784,-3.9094,-3.9715,-3.9232,-4.048,-4.1009,-4.0474,-4.0894,-4.1527,-4.2008,-4.2266,-4.2692,-4.392,-4.4153,-4.4321,-4.4874,-4.5088,-4.4946,-4.4728,-4.3961,-4.3233,-4.2929,-4.2769,-4.2573,-4.2697,-4.2787,-4.2697,-4.2858,-4.3322,-4.3429,-4.3019,-4.3251,-4.3693,-4.3996,-4.38,-4.3782,-4.3929,-4.4193,-4.4371,-4.38,-4.4157,-4.4638,-4.4603,-4.3322,-4.2269,-3.4662,-3.4013,-3.4047,-3.4264,-3.4547,-3.4942,-3.5317,-3.5703,-3.5604,-3.5569,-3.5522,-3.5638,-3.5638,-3.5522,-3.5638,-3.572,-3.5735,-3.5604,-3.5636,-3.572,-3.5636,-3.5636,-3.5784,-3.5958,-3.61,-3.6242,-3.6429,-3.6492,-3.6492,-3.6492,-3.6492,-3.6492,-3.6492,-3.6492,-3.6492,-3.6492,-3.6507,-3.6523,-3.6507,-3.6492,-3.6492,-3.6492,-3.6492,-3.6492,-3.6492,-3.6492,-3.6507,-3.6631,-3.6677,-3.6615,-3.6752,-3.6736,-3.649,-3.5931,-3.5765,-3.5972,-3.5633,-3.5787,-3.6702,-3.6348,-3.656,-3.7841,-3.9154,-3.9363,-3.8016,-3.7905,-3.7952,-3.8105,-3.8222,-3.8577,-3.9336,-4.0198,-4.094,-4.144,-4.2309,-4.2792,-4.2637,-4.2775,-4.321,-4.4066,-4.4476,-4.4924,-4.5787,-4.6206,-4.632,-4.6551,-4.6409,-4.6373,-4.5588,-4.441,-4.3818,-4.4071,-4.3729,-4.364,-4.3943,-4.4228,-4.4143,-4.4264,-4.4317,-4.4371,-4.4143,-4.4282,-4.4656,-4.532,-4.4852,-4.4728,-4.5213,-4.4963,-4.4728,-4.4517,-4.4638,-4.4924,-4.5499,-4.5178,-4.4856,-3.3768,-3.3443,-3.3547,-3.3699,-3.3919,-3.4308,-3.461,-3.481,-3.4673,-3.4935,-3.5504,-3.5572,-3.5554,-3.5504,-3.5572,-3.5604,-3.5604,-3.5522,-3.5522,-3.5572,-3.5522,-3.5572,-3.572,-3.591,-3.6068,-3.6211,-3.6383,-3.6492,-3.6492,-3.6492,-3.6492,-3.6492,-3.6492,-3.6492,-3.6492,-3.6492,-3.6492,-3.6492,-3.6492,-3.6492,-3.6492,-3.6492,-3.6492,-3.6492,-3.6492,-3.6492,-3.6492,-3.6554,-3.66,-3.6569,-3.6677,-3.6677,-3.6585,-3.6276,-3.6228,-3.6409,-3.6438,-3.6683,-3.7173,-3.7892,-3.8694,-3.9631,-4.079,-4.1206,-4.0492,-3.9904,-3.9414,-3.917,-3.9882,-4.0584,-4.0922,-4.1671,-4.2275,-4.262,-4.3345,-4.3776,-4.3845,-4.4182,-4.4689,-4.5361,-4.5611,-4.5969,-4.6719,-4.6911,-4.6998,-4.6998,-4.6998,-4.6819,-4.6462,-4.5499,-4.4674,-4.4624,-4.43,-4.4264,-4.4549,-4.4585,-4.4585,-4.4585,-4.4981,-4.4995,-4.4763,-4.4888,-4.5392,-4.5695,-4.5463,-4.5445,-4.5802,-4.5909,-4.5713,-4.5356,-4.5659,-4.6052,-4.6373,-4.6444,-4.6302,-3.284,-3.2733,-3.2875,-3.3052,-3.3248,-3.3437,-3.3762,-3.4124,-3.3644,-3.4119,-3.5133,-3.5246,-3.5231,-3.5246,-3.5424,-3.5489,-3.5489,-3.5489,-3.5489,-3.5489,-3.5489,-3.5572,-3.5688,-3.5863,-3.6022,-3.6196,-3.6352,-3.646,-3.6492,-3.6492,-3.6492,-3.6492,-3.6492,-3.6492,-3.6492,-3.6492,-3.6492,-3.6492,-3.6492,-3.6492,-3.6492,-3.6492,-3.6492,-3.6492,-3.6492,-3.6492,-3.6492,-3.6492,-3.6492,-3.6492,-3.6492,-3.6492,-3.6492,-3.6492,-3.6553,-3.6754,-3.7156,-3.7553,-3.7921,-3.9369,-4.0569,-4.116,-4.1895,-4.2332,-4.2448,-4.1928,-4.1192,-4.072,-4.1543,-4.2309,-4.2534,-4.3034,-4.3517,-4.3707,-4.4182,-4.4527,-4.4596,-4.5079,-4.5537,-4.5955,-4.6062,-4.6284,-4.6684,-4.6865,-4.6952,-4.6998,-4.6998,-4.6998,-4.6908,-4.6427,-4.582,-4.5316,-4.4995,-4.5013,-4.5071,-4.5195,-4.5231,-4.516,-4.5659,-4.5766,-4.5499,-4.5749,-4.6016,-4.6123,-4.6105,-4.6088,-4.6123,-4.6498,-4.6605,-4.6212,-4.6462,-4.689,-4.689,-4.6776,-4.6852,-3.1809,-3.1222,-3.1296,-3.1713,-3.2434,-3.2042,-3.2875,-3.4177,-3.2953,-3.3059,-3.4279,-3.4413,-3.4413,-3.4509,-3.5166,-3.5457,-3.5504,-3.5504,-3.5489,-3.5504,-3.5504,-3.5572,-3.5688,-3.572,-3.5879,-3.6164,-3.6242,-3.6352,-3.6492,-3.6492,-3.6492,-3.6492,-3.6492,-3.6492,-3.6492,-3.6492,-3.6492,-3.6492,-3.6492,-3.6492,-3.6492,-3.6492,-3.6492,-3.6492,-3.6492,-3.6492,-3.6492,-3.6492,-3.6492,-3.6492,-3.6492,-3.6492,-3.6507,-3.6507,-3.6784,-3.7353,-3.7463,-3.7964,-3.9109,-3.9897,-4.0596,-4.1231,-4.1555,-4.1997,-4.2678,-4.3366,-4.3486,-4.2893,-4.2925,-4.3396,-4.3983,-4.4173,-4.4423,-4.4941,-4.5139,-4.5294,-4.5259,-4.5345,-4.5423,-4.5476,-4.5752,-4.5945,-4.6284,-4.6518,-4.6749,-4.6975,-4.6998,-4.6998,-4.698,-4.6873,-4.6748,-4.6551,-4.6159,-4.6034,-4.6427,-4.6748,-4.6569,-4.6623,-4.6766,-4.6694,-4.6587,-4.6623,-4.6855,-4.6659,-4.6783,-4.6766,-4.6801,-4.698,-4.6944,-4.6778,-4.6832,-4.6975,-4.6934,-4.6572,-4.6453,-3.1259,-3.1024,-3.1024,-3.1371,-3.1859,-3.1703,-3.2028,-3.2698,-3.2114,-3.2028,-3.2376,-3.2812,-3.3463,-3.4312,-3.4643,-3.5019,-3.5472,-3.5019,-3.5052,-3.5439,-3.5019,-3.507,-3.5557,-3.5671,-3.5784,-3.5911,-3.6101,-3.6242,-3.6305,-3.646,-3.6492,-3.6492,-3.6492,-3.6492,-3.6492,-3.6492,-3.6492,-3.6492,-3.6492,-3.6492,-3.6492,-3.6492,-3.6492,-3.6492,-3.6492,-3.6492,-3.6492,-3.6492,-3.6492,-3.6492,-3.6492,-3.6692,-3.7061,-3.7076,-3.7384,-3.8015,-3.8108,-3.8476,-3.9346,-4.0038,-4.0696,-4.1301,-4.2315,-4.3053,-4.3462,-4.4258,-4.4646,-4.4475,-4.4466,-4.4665,-4.4906,-4.4958,-4.5079,-4.5345,-4.5414,-4.5414,-4.5414,-4.5414,-4.545,-4.5615,-4.5752,-4.5887,-4.6144,-4.6447,-4.6684,-4.6934,-4.6998,-4.6998,-4.6998,-4.6998,-4.6998,-4.6944,-4.6676,-4.6641,-4.6926,-4.6998,-4.6998,-4.6998,-4.6998,-4.6998,-4.6998,-4.6998,-4.698,-4.6998,-4.6998,-4.6998,-4.6944,-4.6998,-4.6998,-4.6952,-4.6661,-4.6542,-4.6542,-4.6052,-4.586,-3.1024,-3.1024,-3.1024,-3.1161,-3.1458,-3.1421,-3.1556,-3.1676,-3.1519,-3.1384,-3.1334,-3.1676,-3.2613,-3.3891,-3.4197,-3.4643,-3.5052,-3.4791,-3.4806,-3.51,-3.4562,-3.4543,-3.4953,-3.5187,-3.5382,-3.5544,-3.5879,-3.6116,-3.6211,-3.6414,-3.6492,-3.6492,-3.6492,-3.6492,-3.6492,-3.6492,-3.6492,-3.6414,-3.6429,-3.6383,-3.6398,-3.6383,-3.646,-3.6492,-3.6492,-3.6492,-3.6492,-3.6492,-3.6584,-3.6769,-3.6769,-3.7076,-3.7723,-3.7769,-3.8077,-3.8723,-3.8936,-3.9245,-3.9688,-4.0223,-4.0847,-4.1685,-4.2843,-4.3689,-4.4243,-4.4807,-4.5194,-4.5336,-4.5414,-4.5363,-4.5414,-4.5414,-4.5414,-4.5414,-4.5414,-4.5414,-4.5414,-4.5414,-4.5476,-4.5649,-4.5649,-4.5811,-4.6161,-4.6495,-4.6819,-4.6957,-4.6998,-4.6998,-4.6998,-4.6998,-4.6998,-4.6998,-4.698,-4.698,-4.6998,-4.6998,-4.6998,-4.6998,-4.6998,-4.6998,-4.6998,-4.6998,-4.6998,-4.6998,-4.6998,-4.6998,-4.6998,-4.6998,-4.6842,-4.6708,-4.6357,-4.5953,-4.5928,-4.5451,-4.5117,-3.1024,-3.105,-3.0999,-3.1089,-3.1037,-3.1114,-3.1471,-3.204,-3.14,-3.1434,-3.1904,-3.1424,-3.1886,-3.3325,-3.4005,-3.4341,-3.4509,-3.5052,-3.5019,-3.4543,-3.4312,-3.4027,-3.3644,-3.4109,-3.4562,-3.499,-3.5447,-3.5847,-3.6179,-3.6383,-3.6492,-3.6492,-3.646,-3.6492,-3.6492,-3.6492,-3.6414,-3.6242,-3.6242,-3.6163,-3.6068,-3.6148,-3.632,-3.646,-3.6492,-3.6492,-3.6507,-3.6507,-3.6799,-3.7415,-3.7446,-3.7769,-3.8352,-3.8492,-3.8816,-3.9398,-4.0013,-4.0351,-4.0374,-4.0507,-4.1049,-4.2156,-4.258,-4.3257,-4.4586,-4.4923,-4.5113,-4.5388,-4.5414,-4.5414,-4.5414,-4.5414,-4.5414,-4.5414,-4.5414,-4.5414,-4.5414,-4.5414,-4.5414,-4.545,-4.545,-4.5649,-4.6154,-4.6661,-4.6883,-4.6957,-4.698,-4.6998,-4.6998,-4.6998,-4.6998,-4.6998,-4.6998,-4.6998,-4.6998,-4.6998,-4.6998,-4.6998,-4.6998,-4.6998,-4.6998,-4.6998,-4.6998,-4.6998,-4.6998,-4.6998,-4.6998,-4.6865,-4.6596,-4.6291,-4.5734,-4.5425,-4.5346,-4.4865,-4.449,-3.2084,-3.2071,-3.2084,-3.2084,-3.2071,-3.2084,-3.2252,-3.247,-3.2226,-3.2226,-3.2393,-3.2174,-3.2461,-3.3138,-3.4275,-3.4903,-3.503,-3.4872,-3.4824,-3.4887,-3.4056,-3.3734,-3.4007,-3.3768,-3.3939,-3.448,-3.4828,-3.5382,-3.599,-3.5926,-3.5975,-3.6211,-3.607,-3.6163,-3.6429,-3.6383,-3.6274,-3.6211,-3.6116,-3.6068,-3.6005,-3.6068,-3.61,-3.6195,-3.6398,-3.6492,-3.6492,-3.6907,-3.7261,-3.7492,-3.7908,-3.8462,-3.9108,-3.9536,-3.9859,-4.012,-4.0366,-4.0489,-4.0558,-4.0904,-4.1343,-4.1836,-4.266,-4.3376,-4.4145,-4.4686,-4.5059,-4.5247,-4.5371,-4.5397,-4.5414,-4.5414,-4.5414,-4.5414,-4.5414,-4.5414,-4.5414,-4.5414,-4.5414,-4.5414,-4.5414,-4.5563,-4.5912,-4.6242,-4.6542,-4.6708,-4.6888,-4.6998,-4.6998,-4.6998,-4.6998,-4.6998,-4.6998,-4.6998,-4.6998,-4.6998,-4.6998,-4.6998,-4.6998,-4.6998,-4.6998,-4.6952,-4.6929,-4.6754,-4.6819,-4.6684,-4.6548,-4.6102,-4.5928,-4.5708,-4.5161,-4.4811,-4.4773,-4.4181,-4.3747,-3.2672,-3.2672,-3.2672,-3.2883,-3.3053,-3.2804,-3.2843,-3.3027,-3.2804,-3.2672,-3.2672,-3.2685,-3.2919,-3.3403,-3.4543,-3.5339,-3.568,-3.5423,-3.5491,-3.5621,-3.4431,-3.3945,-3.4087,-3.3924,-3.408,-3.4626,-3.5341,-3.5811,-3.6043,-3.5944,-3.5923,-3.5989,-3.5812,-3.5948,-3.6288,-3.6211,-3.6163,-3.6116,-3.6005,-3.5878,-3.5861,-3.5878,-3.5941,-3.6037,-3.6258,-3.6537,-3.6737,-3.7229,-3.7738,-3.8138,-3.86,-3.9139,-3.9801,-4.0243,-4.0489,-4.0489,-4.0489,-4.0489,-4.0593,-4.1109,-4.1591,-4.1868,-4.2831,-4.3676,-4.4128,-4.4697,-4.5015,-4.522,-4.5344,-4.5414,-4.5414,-4.5414,-4.5414,-4.5414,-4.5414,-4.5414,-4.5414,-4.5414,-4.5414,-4.5423,-4.5485,-4.5624,-4.5786,-4.602,-4.6308,-4.6566,-4.6754,-4.6888,-4.6975,-4.6998,-4.6998,-4.6998,-4.6998,-4.6998,-4.6998,-4.6998,-4.6957,-4.6957,-4.6911,-4.6911,-4.6754,-4.6749,-4.6684,-4.6548,-4.6387,-4.6242,-4.5903,-4.5399,-4.5161,-4.5028,-4.4563,-4.4117,-4.3826,-4.3394,-4.3112,-3.2738,-3.279,-3.2712,-3.3225,-3.3693,-3.3159,-3.3198,-3.3666,-3.3093,-3.2881,-3.2921,-3.2803,-3.3238,-3.3894,-3.4877,-3.5579,-3.627,-3.6931,-3.6936,-3.631,-3.5452,-3.472,-3.4203,-3.4701,-3.4973,-3.5243,-3.6797,-3.7128,-3.6491,-3.6516,-3.6369,-3.5893,-3.5828,-3.5962,-3.6257,-3.616,-3.6051,-3.5972,-3.5844,-3.5714,-3.5522,-3.5653,-3.5799,-3.5941,-3.6162,-3.6578,-3.7174,-3.7427,-3.8138,-3.9247,-3.9477,-3.9797,-4.0305,-4.0474,-4.0489,-4.0489,-4.0489,-4.0489,-4.0558,-4.1142,-4.1901,-4.2363,-4.312,-4.3968,-4.4659,-4.4923,-4.5086,-4.5291,-4.5371,-4.5414,-4.5414,-4.5414,-4.5414,-4.5414,-4.5414,-4.5414,-4.5414,-4.5414,-4.5414,-4.5423,-4.5572,-4.576,-4.5837,-4.5988,-4.6235,-4.6429,-4.6572,-4.6708,-4.6888,-4.6957,-4.6998,-4.6934,-4.6842,-4.6772,-4.6865,-4.6957,-4.6934,-4.6888,-4.6842,-4.6754,-4.6315,-4.6168,-4.6027,-4.5885,-4.5606,-4.5451,-4.5346,-4.4865,-4.458,-4.4344,-4.386,-4.3595,-4.339,-4.3135,-4.2682,-3.3875,-3.3862,-3.3862,-3.4025,-3.4203,-3.3984,-3.4053,-3.4203,-3.3944,-3.3862,-3.3862,-3.3875,-3.4085,-3.4665,-3.5739,-3.6509,-3.6968,-3.8106,-3.8162,-3.7089,-3.6286,-3.5819,-3.5573,-3.5303,-3.5449,-3.6007,-3.6976,-3.737,-3.7109,-3.6921,-3.6892,-3.6958,-3.6353,-3.6324,-3.6689,-3.6559,-3.628,-3.5872,-3.6105,-3.6034,-3.5564,-3.5569,-3.5587,-3.5729,-3.6349,-3.7058,-3.773,-3.8021,-3.8583,-3.9474,-3.9936,-4.0274,-4.0459,-4.0489,-4.0489,-4.0489,-4.0489,-4.0489,-4.0646,-4.1525,-4.2237,-4.2676,-4.3558,-4.4293,-4.4709,-4.4886,-4.5005,-4.5157,-4.5291,-4.5414,-4.5414,-4.5414,-4.5414,-4.5414,-4.5414,-4.5414,-4.5414,-4.5414,-4.5414,-4.5397,-4.5502,-4.5511,-4.5572,-4.5778,-4.5963,-4.6112,-4.6374,-4.6649,-4.6743,-4.6966,-4.6819,-4.6548,-4.6477,-4.6544,-4.6586,-4.66,-4.6558,-4.6509,-4.646,-4.6235,-4.5827,-4.5572,-4.5425,-4.5171,-4.4892,-4.4746,-4.4635,-4.4429,-4.4133,-4.3919,-4.3671,-4.3505,-4.3353,-4.3007,-4.2566,-3.4397,-3.4397,-3.4397,-3.4592,-3.4827,-3.4551,-3.4592,-3.4799,-3.4522,-3.4592,-3.4772,-3.4509,-3.4628,-3.5235,-3.6376,-3.6953,-3.7287,-3.8693,-3.8975,-3.8102,-3.7359,-3.7019,-3.6983,-3.6552,-3.6699,-3.738,-3.7942,-3.7977,-3.7665,-3.7487,-3.742,-3.7336,-3.6862,-3.6658,-3.6914,-3.6987,-3.6758,-3.6228,-3.6643,-3.6708,-3.6252,-3.5983,-3.5944,-3.612,-3.6665,-3.7375,-3.8116,-3.8639,-3.9167,-3.9782,-4.029,-4.0489,-4.0489,-4.0489,-4.0489,-4.0489,-4.0489,-4.0489,-4.0627,-4.1706,-4.252,-4.2738,-4.3798,-4.4598,-4.4654,-4.4759,-4.4786,-4.5059,-4.5096,-4.5203,-4.5371,-4.5414,-4.5414,-4.5414,-4.5414,-4.5414,-4.5414,-4.5414,-4.5414,-4.5397,-4.5441,-4.5414,-4.545,-4.5511,-4.5684,-4.5829,-4.635,-4.6797,-4.6892,-4.7194,-4.6998,-4.6868,-4.6933,-4.6795,-4.6349,-4.6224,-4.6153,-4.608,-4.5996,-4.5589,-4.5178,-4.5045,-4.491,-4.4524,-4.4202,-4.4174,-4.4076,-4.3948,-4.3717,-4.3598,-4.3575,-4.3295,-4.3111,-4.2811,-4.2398,-3.4397,-3.4397,-3.4397,-3.4799,-3.5345,-3.4716,-3.4799,-3.5305,-3.4758,-3.4786,-3.5237,-3.4662,-3.4772,-3.5628,-3.645,-3.693,-3.7218,-3.8642,-3.9358,-3.9094,-3.8524,-3.8185,-3.817,-3.8067,-3.84,-3.905,-3.9224,-3.8928,-3.8341,-3.8296,-3.7957,-3.7558,-3.7411,-3.7134,-3.7132,-3.7462,-3.7402,-3.692,-3.7387,-3.7556,-3.7214,-3.6765,-3.6598,-3.6895,-3.7175,-3.7765,-3.8652,-3.9382,-3.9955,-4.0397,-4.0474,-4.0489,-4.0489,-4.0489,-4.0489,-4.0489,-4.0489,-4.0489,-4.0783,-4.1739,-4.252,-4.2614,-4.3768,-4.4654,-4.472,-4.4609,-4.4676,-4.5086,-4.4971,-4.4971,-4.53,-4.5414,-4.5414,-4.5414,-4.5414,-4.5414,-4.5414,-4.5414,-4.5414,-4.5432,-4.5414,-4.55,-4.5604,-4.5621,-4.5769,-4.597,-4.6526,-4.6847,-4.7108,-4.7317,-4.775,-4.7561,-4.701,-4.6691,-4.6146,-4.606,-4.6015,-4.5965,-4.5869,-4.5529,-4.5111,-4.4993,-4.4941,-4.4457,-4.4042,-4.387,-4.3827,-4.3949,-4.3886,-4.3792,-4.3575,-4.318,-4.2896,-4.2689,-4.2499,-3.4397,-3.4397,-3.4397,-3.4522,-3.4716,-3.4468,-3.4564,-3.4716,-3.4564,-3.4675,-3.4716,-3.4522,-3.4634,-3.4909,-3.6306,-3.6894,-3.7281,-3.862,-3.9388,-3.9388,-3.9228,-3.9083,-3.9083,-3.9083,-3.9156,-3.9388,-3.9388,-3.9301,-3.9119,-3.9046,-3.8928,-3.8801,-3.8275,-3.8031,-3.8027,-3.8137,-3.7931,-3.7549,-3.7946,-3.7751,-3.7052,-3.6842,-3.6694,-3.6872,-3.8032,-3.9023,-3.983,-4.0608,-4.0832,-4.0489,-4.0489,-4.0489,-4.0489,-4.0489,-4.0489,-4.0489,-4.0489,-4.0489,-4.0749,-4.1706,-4.2426,-4.2614,-4.3805,-4.4598,-4.4654,-4.4682,-4.4803,-4.5032,-4.5042,-4.5123,-4.5344,-4.5414,-4.5414,-4.5414,-4.5449,-4.5483,-4.5466,-4.5414,-4.5414,-4.5449,-4.5905,-4.6163,-4.6192,-4.6285,-4.6402,-4.6509,-4.6652,-4.68,-4.7038,-4.7238,-4.7563,-4.6857,-4.6359,-4.62,-4.6018,-4.5927,-4.5879,-4.586,-4.5851,-4.5831,-4.5571,-4.5474,-4.548,-4.5346,-4.4861,-4.4636,-4.4684,-4.4735,-4.449,-4.4148,-4.3746,-4.3413,-4.3075,-4.2836,-4.2726,-3.4397,-3.4397,-3.4397,-3.4592,-3.4909,-3.495,-3.5142,-3.5413,-3.5454,-3.5696,-3.5856,-3.5561,-3.5454,-3.5615,-3.6869,-3.7218,-3.7179,-3.862,-3.9352,-3.9388,-3.9388,-3.9388,-3.9388,-3.9388,-3.9388,-3.9388,-3.9388,-3.9388,-3.9388,-3.9388,-3.9388,-3.9313,-3.9035,-3.8691,-3.8362,-3.8782,-3.8622,-3.8191,-3.8402,-3.8265,-3.7602,-3.7642,-3.7709,-3.8053,-3.9306,-4.05,-4.1244,-4.1766,-4.1571,-4.0751,-4.0489,-4.0489,-4.0489,-4.0489,-4.0489,-4.0489,-4.0489,-4.0489,-4.0681,-4.1492,-4.2173,-4.2703,-4.3828,-4.431,-4.4327,-4.4486,-4.4771,-4.4564,-4.4669,-4.4934,-4.5318,-4.5414,-4.5414,-4.5449,-4.569,-4.588,-4.5897,-4.5931,-4.5944,-4.6138,-4.6415,-4.664,-4.6471,-4.6556,-4.6608,-4.6634,-4.6772,-4.6894,-4.6995,-4.715,-4.7241,-4.6772,-4.6572,-4.6611,-4.6645,-4.6581,-4.6531,-4.6432,-4.6333,-4.6252,-4.5938,-4.5856,-4.5725,-4.5644,-4.5516,-4.5419,-4.5402,-4.527,-4.4913,-4.4522,-4.4082,-4.3727,-4.3454,-4.3293,-4.3133,-3.4439,-3.4564,-3.4564,-3.5032,-3.5736,-3.5816,-3.6162,-3.6777,-3.6738,-3.7127,-3.7515,-3.7141,-3.666,-3.6972,-3.7553,-3.7758,-3.7155,-3.8723,-3.9228,-3.9388,-3.9388,-3.9388,-3.9388,-3.9388,-3.9388,-3.9388,-3.9388,-3.9388,-3.9424,-3.9424,-3.9424,-3.9394,-3.9379,-3.9095,-3.8831,-3.9238,-3.9213,-3.8757,-3.8867,-3.8967,-3.8791,-3.8879,-3.9063,-3.9566,-4.0801,-4.1827,-4.236,-4.2556,-4.1996,-4.0797,-4.0659,-4.0674,-4.0659,-4.0628,-4.0643,-4.0689,-4.0735,-4.0735,-4.0824,-4.1487,-4.2033,-4.2838,-4.3975,-4.4412,-4.4096,-4.4401,-4.4603,-4.4378,-4.4128,-4.4669,-4.5255,-4.5466,-4.5621,-4.5759,-4.6259,-4.6655,-4.6721,-4.6687,-4.6694,-4.6844,-4.6906,-4.6731,-4.6495,-4.6319,-4.6419,-4.6922,-4.6995,-4.6922,-4.7022,-4.7156,-4.7322,-4.7341,-4.7259,-4.729,-4.7306,-4.7306,-4.7275,-4.7226,-4.7045,-4.6865,-4.6306,-4.6109,-4.5864,-4.5766,-4.6094,-4.6094,-4.5946,-4.5685,-4.5342,-4.5049,-4.4723,-4.4382,-4.4059,-4.3945,-4.3832,-3.4799,-3.5426,-3.5426,-3.5896,-3.6582,-3.6646,-3.6724,-3.6958,-3.6933,-3.7165,-3.7165,-3.7011,-3.6972,-3.7011,-3.7834,-3.8089,-3.8,-3.8922,-3.9388,-3.9388,-3.9388,-3.9388,-3.9388,-3.9388,-3.9388,-3.9388,-3.9388,-3.9388,-3.9424,-3.9517,-3.9553,-3.9424,-3.9502,-3.9478,-3.9296,-3.9331,-3.9508,-3.9399,-3.9334,-3.941,-3.9637,-3.9768,-4.0182,-4.0954,-4.2308,-4.3073,-4.3187,-4.2879,-4.2479,-4.2125,-4.1709,-4.1447,-4.1386,-4.137,-4.137,-4.137,-4.1386,-4.1586,-4.2032,-4.2228,-4.2645,-4.3311,-4.4051,-4.456,-4.4443,-4.4523,-4.4732,-4.4716,-4.4797,-4.506,-4.5524,-4.6017,-4.6242,-4.6493,-4.6955,-4.7516,-4.7592,-4.7198,-4.6953,-4.6954,-4.711,-4.7172,-4.7051,-4.7138,-4.7175,-4.7292,-4.7161,-4.7042,-4.7056,-4.7138,-4.7221,-4.7354,-4.7286,-4.7183,-4.7251,-4.7251,-4.7285,-4.7335,-4.7301,-4.7218,-4.6682,-4.6568,-4.6388,-4.6584,-4.6927,-4.678,-4.642,-4.6108,-4.5764,-4.5585,-4.5406,-4.5032,-4.4739,-4.4609,-4.435,-3.5507,-3.6241,-3.6267,-3.6752,-3.7424,-3.7501,-3.7729,-3.8032,-3.8069,-3.8069,-3.8084,-3.8069,-3.7881,-3.7577,-3.8337,-3.8627,-3.8427,-3.8995,-3.9388,-3.9388,-3.9388,-3.9388,-3.9388,-3.9388,-3.9388,-3.9388,-3.9388,-3.9388,-3.9424,-3.9496,-3.9466,-3.9424,-3.9625,-3.9631,-3.9568,-3.9517,-3.9574,-3.954,-3.9258,-3.9365,-3.9915,-4.0436,-4.1464,-4.2609,-4.3626,-4.4086,-4.404,-4.3741,-4.3571,-4.3356,-4.2879,-4.2371,-4.2109,-4.2063,-4.2078,-4.2078,-4.2078,-4.2202,-4.253,-4.2632,-4.2864,-4.3555,-4.4256,-4.4291,-4.4557,-4.4821,-4.5206,-4.5236,-4.5522,-4.6009,-4.6429,-4.6759,-4.7096,-4.7214,-4.7562,-4.7945,-4.7997,-4.7716,-4.7394,-4.7331,-4.7395,-4.7305,-4.7325,-4.7357,-4.7306,-4.7108,-4.7075,-4.6968,-4.6934,-4.6999,-4.6981,-4.7014,-4.6979,-4.6961,-4.703,-4.7064,-4.7098,-4.7115,-4.708,-4.7064,-4.682,-4.6921,-4.7069,-4.7134,-4.7067,-4.7066,-4.6723,-4.6424,-4.6295,-4.6296,-4.6086,-4.5695,-4.5403,-4.5305,-4.4949,-3.636,-3.7088,-3.7088,-3.7577,-3.8315,-3.8389,-3.8738,-3.9265,-3.9388,-3.9192,-3.9388,-3.9388,-3.8833,-3.8649,-3.9031,-3.8973,-3.8775,-3.8995,-3.9388,-3.9388,-3.9388,-3.9388,-3.9388,-3.9388,-3.9388,-3.9388,-3.9388,-3.9388,-3.9424,-3.9424,-3.9481,-3.9445,-3.9589,-3.9681,-3.9696,-3.9696,-3.9732,-3.9707,-3.9541,-3.9748,-4.0538,-4.1275,-4.2634,-4.3934,-4.4387,-4.4464,-4.4456,-4.4348,-4.4379,-4.4564,-4.3963,-4.3402,-4.3063,-4.2786,-4.2756,-4.2756,-4.2756,-4.291,-4.3048,-4.2961,-4.3091,-4.3707,-4.4268,-4.4391,-4.4333,-4.506,-4.5571,-4.5812,-4.6079,-4.6982,-4.7617,-4.7793,-4.7799,-4.7842,-4.8024,-4.8163,-4.8051,-4.8051,-4.7828,-4.7685,-4.7424,-4.7209,-4.7073,-4.7015,-4.6979,-4.6911,-4.6911,-4.6911,-4.6911,-4.6911,-4.6911,-4.6911,-4.6911,-4.6911,-4.6961,-4.6996,-4.6996,-4.6996,-4.6961,-4.6961,-4.6927,-4.6996,-4.703,-4.6996,-4.6945,-4.6961,-4.6961,-4.6749,-4.6732,-4.6911,-4.6749,-4.6293,-4.6099,-4.5986,-4.5646,-3.7218,-3.7985,-3.8,-3.8464,-3.9119,-3.9192,-3.9228,-3.9388,-3.9388,-3.9388,-3.9388,-3.9388,-3.9352,-3.9243,-3.928,-3.9301,-3.9192,-3.9352,-3.9388,-3.9388,-3.9388,-3.9388,-3.9388,-3.9388,-3.9388,-3.9388,-3.9388,-3.9388,-3.946,-3.9553,-3.9517,-3.9481,-3.9589,-3.9696,-3.9717,-3.9717,-3.9849,-4.0122,-4.0243,-4.0836,-4.1748,-4.2561,-4.3346,-4.451,-4.461,-4.461,-4.4486,-4.4132,-4.4024,-4.4433,-4.3963,-4.3917,-4.3925,-4.3648,-4.3485,-4.3454,-4.3439,-4.3587,-4.391,-4.3716,-4.3855,-4.4308,-4.4567,-4.459,-4.4641,-4.5314,-4.5947,-4.6333,-4.6828,-4.7551,-4.7696,-4.8236,-4.8352,-4.8326,-4.8401,-4.854,-4.7976,-4.7719,-4.7703,-4.7572,-4.7302,-4.7048,-4.6979,-4.6911,-4.6911,-4.6911,-4.6911,-4.6911,-4.6911,-4.6911,-4.6911,-4.6911,-4.6911,-4.6911,-4.6911,-4.6927,-4.6927,-4.6961,-4.6927,-4.6927,-4.6927,-4.6911,-4.6911,-4.6911,-4.6911,-4.6927,-4.6927,-4.6911,-4.6911,-4.6911,-4.6894,-4.6862,-4.6666,-4.652,-4.6714,-3.8046,-3.8826,-3.8811,-3.9031,-3.9352,-3.9388,-3.9388,-3.9388,-3.9388,-3.9388,-3.9388,-3.9388,-3.9388,-3.9388,-3.9388,-3.9388,-3.9388,-3.9388,-3.9388,-3.9388,-3.9388,-3.9388,-3.9388,-3.9388,-3.9388,-3.9388,-3.9388,-3.9388,-3.9388,-3.9481,-3.9481,-3.9481,-3.9589,-3.9768,-3.9854,-3.9874,-4.0173,-4.0588,-4.0963,-4.1638,-4.279,-4.3554,-4.4204,-4.4464,-4.461,-4.461,-4.4564,-4.4379,-4.4286,-4.4486,-4.4317,-4.4326,-4.4409,-4.4348,-4.4117,-4.4101,-4.4101,-4.4209,-4.4533,-4.4271,-4.4332,-4.4517,-4.461,-4.4584,-4.4898,-4.5566,-4.6585,-4.7462,-4.7975,-4.8603,-4.8799,-4.8836,-4.8784,-4.8672,-4.8593,-4.8225,-4.7787,-4.7454,-4.7354,-4.7336,-4.7132,-4.6979,-4.6945,-4.6911,-4.6911,-4.6911,-4.6911,-4.6911,-4.6911,-4.6911,-4.6911,-4.6911,-4.6911,-4.6911,-4.6911,-4.6911,-4.6911,-4.6911,-4.6911,-4.6911,-4.6911,-4.6911,-4.6911,-4.6911,-4.6911,-4.6911,-4.6911,-4.6911,-4.6911,-4.6911,-4.6894,-4.6911,-4.7006,-4.7087,-4.7281,-3.8811,-3.9388,-3.9388,-3.9388,-3.9388,-3.9388,-3.9388,-3.9388,-3.9388,-3.9388,-3.9388,-3.9388,-3.9388,-3.9388,-3.9388,-3.9388,-3.9388,-3.9388,-3.9388,-3.9388,-3.9388,-3.9388,-3.9388,-3.9388,-3.9388,-3.9388,-3.9388,-3.9388,-3.9388,-3.9424,-3.9388,-3.9424,-3.9589,-3.9768,-3.9925,-4.0173,-4.0685,-4.1128,-4.1595,-4.2251,-4.3394,-4.4188,-4.461,-4.461,-4.461,-4.461,-4.461,-4.4548,-4.4533,-4.4594,-4.4564,-4.4594,-4.4594,-4.461,-4.461,-4.461,-4.461,-4.461,-4.4556,-4.4556,-4.4533,-4.461,-4.461,-4.467,-4.5206,-4.6196,-4.7506,-4.8717,-4.9222,-4.924,-4.9138,-4.9148,-4.8995,-4.8776,-4.8208,-4.7638,-4.7454,-4.7218,-4.7048,-4.6979,-4.6911,-4.6911,-4.6911,-4.6911,-4.6911,-4.6911,-4.6911,-4.6911,-4.6911,-4.6911,-4.6911,-4.6911,-4.6911,-4.6911,-4.6911,-4.6911,-4.6911,-4.6911,-4.6911,-4.6911,-4.6911,-4.6911,-4.6911,-4.6911,-4.6911,-4.6911,-4.6911,-4.6911,-4.6911,-4.6911,-4.6911,-4.6943,-4.6973,-4.741,-4.7799,-3.9316,-3.9388,-3.9388,-3.9388,-3.9388,-3.9388,-3.9388,-3.9388,-3.9388,-3.9388,-3.9388,-3.9388,-3.9388,-3.9388,-3.9388,-3.9388,-3.9388,-3.9388,-3.9388,-3.9388,-3.9388,-3.9388,-3.9388,-3.9388,-3.9388,-3.9388,-3.9388,-3.9388,-3.9388,-3.9388,-3.9388,-3.9424,-3.946,-3.967,-4.0142,-4.0527,-4.1138,-4.171,-4.2719,-4.3626,-4.4242,-4.451,-4.4556,-4.461,-4.461,-4.461,-4.461,-4.461,-4.461,-4.461,-4.461,-4.461,-4.461,-4.461,-4.461,-4.461,-4.461,-4.461,-4.461,-4.461,-4.461,-4.461,-4.4632,-4.4955,-4.5789,-4.6795,-4.7803,-4.8111,-4.8841,-4.8964,-4.8807,-4.8858,-4.8765,-4.8433,-4.7934,-4.7421,-4.7116,-4.7116,-4.6945,-4.6911,-4.6911,-4.6911,-4.6911,-4.6911,-4.6911,-4.6911,-4.6911,-4.6911,-4.6911,-4.6911,-4.6911,-4.6911,-4.6911,-4.6911,-4.6911,-4.6911,-4.6911,-4.6911,-4.6911,-4.6911,-4.6911,-4.6911,-4.6911,-4.6911,-4.6911,-4.6911,-4.6911,-4.6911,-4.6911,-4.6992,-4.7038,-4.6989,-4.6909,-4.7508,-4.8379,-3.9388,-3.9388,-3.9388,-3.9388,-3.9388,-3.9388,-3.9388,-3.9388,-3.9388,-3.9388,-3.9388,-3.9388,-3.9388,-3.9388,-3.9388,-3.9388,-3.9388,-3.9388,-3.9388,-3.9388,-3.9388,-3.9388,-3.9388,-3.9388,-3.9388,-3.9424,-3.9388,-3.9388,-3.9388,-3.9424,-3.9388,-3.9424,-3.9469,-3.9845,-4.0446,-4.083,-4.1708,-4.2646,-4.3633,-4.4249,-4.4533,-4.461,-4.461,-4.461,-4.461,-4.461,-4.461,-4.461,-4.461,-4.461,-4.461,-4.461,-4.461,-4.461,-4.461,-4.461,-4.461,-4.461,-4.461,-4.461,-4.461,-4.4783,-4.503,-4.5769,-4.6726,-4.7473,-4.795,-4.7998,-4.8671,-4.8606,-4.8046,-4.8177,-4.8048,-4.7754,-4.7422,-4.7202,-4.6911,-4.6945,-4.6911,-4.6911,-4.6911,-4.6911,-4.6911,-4.6911,-4.6911,-4.6911,-4.6911,-4.6911,-4.6911,-4.6911,-4.6911,-4.6911,-4.6911,-4.6911,-4.6911,-4.6911,-4.6911,-4.6911,-4.6911,-4.6911,-4.6911,-4.6911,-4.6911,-4.6911,-4.6911,-4.6911,-4.6927,-4.6992,-4.7006,-4.7119,-4.7232,-4.7362,-4.7589,-4.8557,-4.9325,-3.9388,-3.9388,-3.9388,-3.9388,-3.9388,-3.9388,-3.9388,-3.9388,-3.9388,-3.9388,-3.9388,-3.9388,-3.9388,-3.9388,-3.9388,-3.9388,-3.9388,-3.9388,-3.9388,-3.9388,-3.9388,-3.9388,-3.9424,-3.9424,-3.9481,-3.9481,-3.9568,-3.9604,-3.9604,-3.9568,-3.9568,-3.9511,-3.986,-4.0281,-4.0937,-4.1593,-4.2432,-4.3673,-4.4255,-4.4548,-4.461,-4.461,-4.461,-4.461,-4.461,-4.461,-4.461,-4.461,-4.461,-4.461,-4.461,-4.461,-4.461,-4.461,-4.4783,-4.4783,-4.4783,-4.4761,-4.4783,-4.4783,-4.4723,-4.5104,-4.5753,-4.6761,-4.7556,-4.7982,-4.7819,-4.7638,-4.8225,-4.7901,-4.7223,-4.7254,-4.7271,-4.705,-4.674,-4.6703,-4.6633,-4.6633,-4.6668,-4.6703,-4.6738,-4.6911,-4.6911,-4.6911,-4.6911,-4.6911,-4.6911,-4.6911,-4.6911,-4.6911,-4.6911,-4.6911,-4.6911,-4.6911,-4.6927,-4.6927,-4.6927,-4.6959,-4.6959,-4.6959,-4.6975,-4.6943,-4.6911,-4.6911,-4.7024,-4.7119,-4.7281,-4.7216,-4.7184,-4.7475,-4.7783,-4.8091,-4.8541,-4.9422,-4.9898,-3.9388,-3.9388,-3.9388,-3.9388,-3.9388,-3.9388,-3.9388,-3.9388,-3.9388,-3.9388,-3.9388,-3.9388,-3.9388,-3.9388,-3.9388,-3.9388,-3.9388,-3.9388,-3.9388,-3.9388,-3.9388,-3.946,-3.9517,-3.9661,-3.9753,-3.9732,-3.991,-3.998,-3.9925,-3.9905,-3.9818,-3.9792,-4.0347,-4.0866,-4.1641,-4.2539,-4.3317,-4.4264,-4.4564,-4.4594,-4.461,-4.461,-4.461,-4.461,-4.461,-4.461,-4.461,-4.461,-4.461,-4.461,-4.461,-4.461,-4.461,-4.461,-4.4821,-4.503,-4.4971,-4.5046,-4.52,-4.5104,-4.5104,-4.5789,-4.6726,-4.7555,-4.8034,-4.8595,-4.8242,-4.7236,-4.7688,-4.7238,-4.6537,-4.6237,-4.6585,-4.641,-4.623,-4.6211,-4.6211,-4.6301,-4.6337,-4.6407,-4.6528,-4.6633,-4.6772,-4.6738,-4.6876,-4.6876,-4.6911,-4.6911,-4.6911,-4.6911,-4.6911,-4.6911,-4.6911,-4.6927,-4.6892,-4.6941,-4.7103,-4.7103,-4.707,-4.7054,-4.7038,-4.7006,-4.7151,-4.7313,-4.7508,-4.7589,-4.7767,-4.801,-4.8171,-4.8155,-4.8311,-4.8599,-4.8727,-4.9212,-4.9639,-3.9388,-3.9388,-3.9388,-3.9388,-3.9388,-3.9388,-3.9388,-3.9388,-3.9388,-3.9388,-3.9388,-3.9388,-3.9388,-3.9388,-3.9388,-3.9388,-3.9388,-3.9388,-3.9388,-3.946,-3.9517,-3.9589,-3.9753,-4.0076,-4.032,-4.0141,-4.0351,-4.0316,-3.9996,-4.0197,-4.0507,-4.068,-4.1024,-4.1669,-4.2502,-4.3422,-4.4127,-4.4449,-4.461,-4.461,-4.461,-4.461,-4.461,-4.461,-4.461,-4.461,-4.461,-4.461,-4.461,-4.461,-4.461,-4.461,-4.461,-4.461,-4.4821,-4.52,-4.5142,-4.5458,-4.5697,-4.5588,-4.5841,-4.6864,-4.7605,-4.805,-4.8316,-4.8444,-4.7851,-4.7255,-4.6987,-4.6604,-4.5478,-4.5769,-4.625,-4.5893,-4.5728,-4.5724,-4.576,-4.5837,-4.5945,-4.6032,-4.6104,-4.6211,-4.6388,-4.6512,-4.6703,-4.6842,-4.6876,-4.6911,-4.6911,-4.6911,-4.6911,-4.6911,-4.6911,-4.6911,-4.6892,-4.7103,-4.7362,-4.733,-4.7297,-4.7443,-4.7556,-4.7589,-4.7734,-4.788,-4.8055,-4.8282,-4.8573,-4.8994,-4.9006,-4.8635,-4.8716,-4.9084,-4.9129,-4.8993,-4.9023,-3.9388,-3.9388,-3.9388,-3.9388,-3.9388,-3.9388,-3.9388,-3.9388,-3.9388,-3.9388,-3.9388,-3.9388,-3.9388,-3.9388,-3.9388,-3.9388,-3.9424,-3.9445,-3.9481,-3.9646,-3.9879,-4.0041,-4.0374,-4.0789,-4.1227,-4.0854,-4.082,-4.0854,-4.0578,-4.062,-4.1086,-4.149,-4.1821,-4.2561,-4.3186,-4.4127,-4.4594,-4.461,-4.461,-4.461,-4.461,-4.461,-4.461,-4.461,-4.461,-4.461,-4.461,-4.461,-4.461,-4.461,-4.461,-4.461,-4.461,-4.4632,-4.4805,-4.52,-4.5494,-4.5841,-4.6253,-4.6483,-4.683,-4.7589,-4.8117,-4.8448,-4.858,-4.8265,-4.7564,-4.6852,-4.6562,-4.5949,-4.4754,-4.5253,-4.5494,-4.5179,-4.5231,-4.5247,-4.5321,-4.5416,-4.5526,-4.5651,-4.576,-4.5941,-4.6012,-4.6227,-4.6525,-4.6735,-4.6892,-4.6927,-4.6911,-4.6911,-4.6911,-4.6911,-4.6911,-4.6911,-4.6927,-4.7362,-4.7767,-4.7783,-4.7831,-4.8171,-4.8301,-4.8282,-4.8314,-4.8495,-4.8702,-4.9006,-4.9171,-4.9266,-4.9106,-4.8834,-4.8859,-4.8717,-4.8522,-4.8276,-4.7996,-3.9388,-3.9388,-3.9388,-3.9388,-3.9388,-3.9388,-3.9388,-3.9388,-3.9388,-3.9388,-3.9388,-3.9388,-3.9388,-3.9388,-3.9388,-3.9424,-3.9481,-3.9574,-3.9717,-3.995,-4.0478,-4.0839,-4.1294,-4.1739,-4.2109,-4.2109,-4.1933,-4.1689,-4.1404,-4.146,-4.1913,-4.2535,-4.299,-4.342,-4.3679,-4.4233,-4.4579,-4.461,-4.461,-4.461,-4.461,-4.461,-4.461,-4.461,-4.461,-4.461,-4.461,-4.461,-4.461,-4.461,-4.461,-4.461,-4.461,-4.461,-4.5126,-4.6253,-4.5949,-4.6448,-4.7605,-4.7787,-4.7902,-4.8051,-4.8465,-4.8777,-4.8692,-4.8181,-4.7553,-4.69,-4.6271,-4.5557,-4.4958,-4.4747,-4.4847,-4.4761,-4.4836,-4.4874,-4.4986,-4.5061,-4.5173,-4.546,-4.5662,-4.5828,-4.5828,-4.5936,-4.631,-4.6593,-4.6839,-4.6909,-4.6925,-4.6959,-4.6925,-4.72,-4.7232,-4.741,-4.7556,-4.788,-4.8155,-4.8188,-4.8395,-4.8763,-4.8905,-4.8849,-4.8933,-4.905,-4.9162,-4.9272,-4.9319,-4.9349,-4.8693,-4.7929,-4.8009,-4.7886,-4.7755,-4.746,-4.7045,-3.9388,-3.9388,-3.9388,-3.9388,-3.9388,-3.9388,-3.9388,-3.9388,-3.9388,-3.9388,-3.9388,-3.9388,-3.9388,-3.9388,-3.9424,-3.9445,-3.9574,-3.9661,-3.9859,-4.0566,-4.1109,-4.1477,-4.1981,-4.2583,-4.2892,-4.2629,-4.2505,-4.2527,-4.2217,-4.2319,-4.2687,-4.3293,-4.3914,-4.424,-4.4279,-4.4548,-4.4594,-4.461,-4.461,-4.461,-4.461,-4.461,-4.461,-4.461,-4.461,-4.461,-4.461,-4.461,-4.461,-4.461,-4.461,-4.461,-4.461,-4.461,-4.5067,-4.6056,-4.6056,-4.7103,-4.8161,-4.8627,-4.8605,-4.8613,-4.8678,-4.886,-4.8723,-4.7657,-4.7265,-4.7021,-4.6266,-4.5641,-4.5341,-4.5303,-4.5264,-4.4756,-4.4685,-4.4685,-4.4723,-4.4776,-4.4876,-4.5356,-4.567,-4.5934,-4.5994,-4.6055,-4.6318,-4.6577,-4.6809,-4.6939,-4.6961,-4.6985,-4.7054,-4.754,-4.7783,-4.801,-4.8217,-4.8393,-4.8522,-4.8554,-4.8962,-4.9498,-4.9521,-4.9373,-4.9319,-4.9365,-4.9442,-4.9517,-4.9009,-4.8385,-4.7448,-4.6892,-4.6955,-4.6812,-4.6491,-4.6151,-4.5808,-3.9388,-3.9388,-3.9388,-3.9388,-3.9388,-3.9388,-3.9388,-3.9388,-3.9388,-3.9388,-3.9388,-3.9388,-3.9388,-3.9388,-3.9424,-3.9409,-3.961,-4.0056,-4.0285,-4.1093,-4.182,-4.23,-4.2892,-4.3456,-4.3634,-4.3429,-4.3511,-4.3595,-4.2969,-4.3208,-4.3568,-4.4047,-4.4589,-4.4713,-4.4677,-4.4594,-4.461,-4.461,-4.461,-4.461,-4.461,-4.461,-4.461,-4.461,-4.461,-4.461,-4.461,-4.461,-4.461,-4.461,-4.461,-4.461,-4.461,-4.467,-4.4955,-4.5676,-4.6429,-4.7355,-4.821,-4.8479,-4.8346,-4.8383,-4.8695,-4.8787,-4.8561,-4.7759,-4.7481,-4.711,-4.6489,-4.6142,-4.5926,-4.5926,-4.5726,-4.5272,-4.5187,-4.5218,-4.5287,-4.5334,-4.5395,-4.5827,-4.5965,-4.6175,-4.6299,-4.6282,-4.6401,-4.6595,-4.6787,-4.6948,-4.7097,-4.7171,-4.7307,-4.7705,-4.7971,-4.8075,-4.8354,-4.8749,-4.8866,-4.893,-4.9347,-4.9876,-4.9831,-4.9617,-4.9646,-4.952,-4.9275,-4.8851,-4.8057,-4.7302,-4.6476,-4.599,-4.5929,-4.5642,-4.5184,-4.506,-4.4954,-3.9388,-3.9388,-3.9388,-3.9388,-3.9388,-3.9388,-3.9388,-3.9388,-3.9388,-3.9388,-3.9388,-3.9388,-3.9388,-3.9409,-3.9424,-3.9517,-3.9773,-4.0566,-4.106,-4.1592,-4.2598,-4.3166,-4.3697,-4.4251,-4.4459,-4.4627,-4.4729,-4.4698,-4.3881,-4.4222,-4.4559,-4.4759,-4.5211,-4.5274,-4.5067,-4.4896,-4.4783,-4.4648,-4.461,-4.461,-4.461,-4.461,-4.461,-4.461,-4.461,-4.461,-4.461,-4.461,-4.461,-4.461,-4.461,-4.461,-4.461,-4.461,-4.5067,-4.566,-4.6394,-4.7203,-4.7836,-4.7991,-4.8065,-4.8205,-4.8517,-4.8669,-4.8502,-4.7931,-4.7682,-4.7515,-4.708,-4.6834,-4.6619,-4.6588,-4.6557,-4.6388,-4.6326,-4.6342,-4.6357,-4.6388,-4.6419,-4.6557,-4.6603,-4.6698,-4.6691,-4.667,-4.6664,-4.6928,-4.7184,-4.7441,-4.758,-4.7564,-4.7681,-4.7903,-4.8104,-4.8038,-4.8434,-4.9056,-4.9244,-4.9257,-4.9476,-4.9882,-4.9868,-4.9615,-4.9311,-4.9044,-4.8774,-4.821,-4.7189,-4.6373,-4.5642,-4.5307,-4.5201,-4.5078,-4.4783,-4.469,-4.4597,-3.9388,-3.9388,-3.9388,-3.9388,-3.9388,-3.9388,-3.9388,-3.9388,-3.9388,-3.9388,-3.9388,-3.9388,-3.9445,-3.9424,-3.9553,-3.997,-4.0497,-4.1093,-4.1949,-4.266,-4.3257,-4.3781,-4.4363,-4.4958,-4.528,-4.5561,-4.5795,-4.5943,-4.575,-4.5739,-4.5417,-4.5483,-4.5769,-4.5825,-4.5841,-4.564,-4.5179,-4.4761,-4.4648,-4.461,-4.461,-4.461,-4.461,-4.461,-4.461,-4.461,-4.461,-4.4632,-4.4648,-4.461,-4.461,-4.461,-4.461,-4.461,-4.4933,-4.566,-4.6388,-4.7109,-4.7684,-4.7802,-4.7878,-4.8177,-4.8561,-4.86,-4.8453,-4.8152,-4.7881,-4.7819,-4.7681,-4.7404,-4.7311,-4.7296,-4.7173,-4.7034,-4.6973,-4.6957,-4.6973,-4.6988,-4.705,-4.7265,-4.7327,-4.7311,-4.7265,-4.7013,-4.7033,-4.7342,-4.763,-4.7865,-4.8009,-4.7966,-4.8035,-4.8223,-4.8356,-4.8326,-4.8891,-4.9536,-4.9584,-4.9647,-4.9678,-4.9582,-4.9349,-4.9132,-4.8821,-4.8267,-4.749,-4.6813,-4.6106,-4.5458,-4.4954,-4.4783,-4.4676,-4.4504,-4.4425,-4.4425,-4.4425,-3.9646,-3.9445,-3.9717,-3.9696,-3.9496,-3.9717,-3.9809,-3.9773,-3.9538,-3.9388,-3.9409,-3.9481,-3.9631,-3.9955,-4.02,-4.0634,-4.1395,-4.1997,-4.263,-4.3061,-4.3785,-4.4402,-4.5026,-4.55,-4.5821,-4.6261,-4.6731,-4.6938,-4.6829,-4.6441,-4.6076,-4.5733,-4.6111,-4.6569,-4.6604,-4.6253,-4.5769,-4.5216,-4.4836,-4.4648,-4.461,-4.461,-4.461,-4.461,-4.461,-4.461,-4.4632,-4.4746,-4.4858,-4.4761,-4.4746,-4.4858,-4.4746,-4.461,-4.5216,-4.5889,-4.6133,-4.6666,-4.7153,-4.7617,-4.7874,-4.8232,-4.8528,-4.8646,-4.8552,-4.8337,-4.8343,-4.8358,-4.8173,-4.8004,-4.8004,-4.7973,-4.7727,-4.7496,-4.7465,-4.7434,-4.745,-4.7465,-4.7665,-4.7927,-4.8004,-4.8004,-4.7835,-4.7511,-4.7465,-4.786,-4.8101,-4.8194,-4.8331,-4.8308,-4.8335,-4.8484,-4.8587,-4.8689,-4.928,-4.9517,-4.9358,-4.9231,-4.9172,-4.9031,-4.8826,-4.8381,-4.7904,-4.6959,-4.5912,-4.5444,-4.523,-4.4908,-4.4504,-4.4425,-4.4425,-4.4425,-4.4425,-4.4425,-4.4425,-4.0146,-3.9646,-4.0301,-4.025,-3.9717,-4.032,-4.0581,-4.0528,-3.9985,-3.961,-3.9702,-3.9809,-4.0274,-4.0758,-4.1044,-4.1509,-4.2141,-4.2785,-4.3317,-4.3542,-4.4373,-4.5071,-4.5595,-4.5923,-4.6515,-4.7039,-4.7457,-4.7701,-4.7106,-4.6861,-4.6622,-4.5985,-4.7069,-4.7556,-4.7322,-4.6811,-4.6288,-4.5841,-4.5216,-4.4821,-4.4685,-4.4663,-4.4663,-4.461,-4.4685,-4.4723,-4.4783,-4.4993,-4.5311,-4.5067,-4.4993,-4.5104,-4.4821,-4.4632,-4.5421,-4.5892,-4.5953,-4.6401,-4.6946,-4.7442,-4.7687,-4.7957,-4.8235,-4.8492,-4.8553,-4.8496,-4.8558,-4.8558,-4.8373,-4.8327,-4.8327,-4.8327,-4.8173,-4.8081,-4.8065,-4.805,-4.805,-4.8065,-4.8142,-4.8343,-4.8343,-4.8343,-4.8327,-4.8004,-4.7958,-4.8404,-4.8512,-4.8543,-4.8512,-4.8502,-4.8543,-4.8615,-4.8666,-4.8717,-4.8769,-4.8934,-4.8811,-4.8671,-4.8744,-4.8438,-4.8229,-4.7621,-4.6974,-4.6151,-4.5367,-4.4862,-4.4551,-4.4425,-4.4425,-4.4425,-4.4425,-4.4425,-4.4425,-4.4364,-4.4425,-4.0789,-4.0992,-4.1194,-4.1127,-4.1026,-4.1194,-4.126,-4.126,-4.1196,-4.1147,-4.1147,-4.1213,-4.1379,-4.1674,-4.1901,-4.238,-4.3082,-4.3578,-4.4181,-4.4767,-4.5375,-4.5838,-4.6515,-4.6938,-4.7348,-4.78,-4.8152,-4.8289,-4.77,-4.754,-4.7572,-4.7389,-4.7967,-4.7999,-4.8177,-4.7539,-4.6742,-4.6499,-4.5841,-4.52,-4.4896,-4.5142,-4.529,-4.4993,-4.4896,-4.4933,-4.4933,-4.4761,-4.4821,-4.4685,-4.4723,-4.4723,-4.4625,-4.461,-4.5024,-4.5654,-4.5857,-4.6354,-4.7042,-4.7549,-4.786,-4.8204,-4.8496,-4.8558,-4.8604,-4.8604,-4.8604,-4.8604,-4.8604,-4.8604,-4.8604,-4.8604,-4.8604,-4.8604,-4.8604,-4.8604,-4.8604,-4.8604,-4.8604,-4.8604,-4.8604,-4.8604,-4.8604,-4.8604,-4.8604,-4.8589,-4.8589,-4.8589,-4.8589,-4.8569,-4.8553,-4.8584,-4.8599,-4.8599,-4.8604,-4.8604,-4.8604,-4.8521,-4.8578,-4.8187,-4.7621,-4.6755,-4.5927,-4.5625,-4.506,-4.4644,-4.4425,-4.4425,-4.4425,-4.4425,-4.427,-4.4209,-4.4223,-4.4223,-4.4317,-4.1575,-4.1525,-4.1492,-4.1492,-4.1542,-4.1901,-4.2062,-4.2157,-4.2552,-4.28,-4.2691,-4.2316,-4.2205,-4.2568,-4.2769,-4.3495,-4.4171,-4.4445,-4.5186,-4.5903,-4.6278,-4.6684,-4.7242,-4.7736,-4.8071,-4.8426,-4.8652,-4.8623,-4.8096,-4.8225,-4.8306,-4.8064,-4.8161,-4.8513,-4.8829,-4.7901,-4.7254,-4.7254,-4.6518,-4.5969,-4.5458,-4.5624,-4.5363,-4.5046,-4.4858,-4.4933,-4.5008,-4.4783,-4.4858,-4.4723,-4.4648,-4.4933,-4.4896,-4.4783,-4.5177,-4.5803,-4.6261,-4.6496,-4.7342,-4.7912,-4.8173,-4.8481,-4.8604,-4.8604,-4.8604,-4.8604,-4.8604,-4.8604,-4.8604,-4.8604,-4.8604,-4.8604,-4.8604,-4.8604,-4.8604,-4.8604,-4.8604,-4.8604,-4.8604,-4.8604,-4.8604,-4.8604,-4.8604,-4.8604,-4.8604,-4.8604,-4.8604,-4.8604,-4.8604,-4.8604,-4.8604,-4.8604,-4.8604,-4.8604,-4.8604,-4.8604,-4.8604,-4.8521,-4.8396,-4.7536,-4.6711,-4.5747,-4.4954,-4.4876,-4.4783,-4.4551,-4.4425,-4.4425,-4.4425,-4.4425,-4.4209,-4.4007,-4.4021,-4.3988,-4.3846,-4.2411,-4.1852,-4.1819,-4.1788,-4.1853,-4.2711,-4.3037,-4.3127,-4.3988,-4.4473,-4.4449,-4.3485,-4.3293,-4.3484,-4.392,-4.483,-4.5433,-4.5568,-4.6266,-4.6722,-4.6921,-4.7428,-4.7817,-4.8156,-4.8494,-4.8748,-4.8937,-4.8656,-4.821,-4.8545,-4.8608,-4.8274,-4.8562,-4.9001,-4.8781,-4.8338,-4.7803,-4.7638,-4.7221,-4.6898,-4.6553,-4.6253,-4.566,-4.5142,-4.4821,-4.4799,-4.4933,-4.4955,-4.5067,-4.488,-4.461,-4.4858,-4.5117,-4.506,-4.5654,-4.6205,-4.6694,-4.709,-4.7742,-4.8266,-4.845,-4.8604,-4.8604,-4.8604,-4.8604,-4.8604,-4.8604,-4.8604,-4.8604,-4.8604,-4.8604,-4.8604,-4.8604,-4.8604,-4.8604,-4.8604,-4.8604,-4.8604,-4.8604,-4.8604,-4.8604,-4.8604,-4.8604,-4.8604,-4.8604,-4.8604,-4.8604,-4.8604,-4.8604,-4.8604,-4.8604,-4.8604,-4.8604,-4.8604,-4.8604,-4.8604,-4.8604,-4.8438,-4.8145,-4.6974,-4.5927,-4.517,-4.469,-4.4551,-4.4411,-4.4425,-4.4425,-4.4425,-4.4425,-4.4364,-4.4054,-4.3804,-4.3675,-4.358,-4.3225,-4.3204,-4.3432,-4.3432,-4.3145,-4.2916,-4.4134,-4.4393,-4.414,-4.5379,-4.6047,-4.5913,-4.6022,-4.5795,-4.5269,-4.5951,-4.6439,-4.6439,-4.6599,-4.7056,-4.7597,-4.7682,-4.8173,-4.8528,-4.8595,-4.8849,-4.8968,-4.9018,-4.8909,-4.8593,-4.8829,-4.897,-4.8767,-4.8798,-4.897,-4.8861,-4.8418,-4.7999,-4.7934,-4.7836,-4.7489,-4.7137,-4.683,-4.6622,-4.6288,-4.6092,-4.5494,-4.5067,-4.4761,-4.4723,-4.4648,-4.4625,-4.4754,-4.4977,-4.5287,-4.5866,-4.657,-4.7053,-4.7598,-4.8142,-4.845,-4.8604,-4.8604,-4.8604,-4.8604,-4.8604,-4.8604,-4.8604,-4.8604,-4.8604,-4.8604,-4.8604,-4.8604,-4.8604,-4.8604,-4.8604,-4.8604,-4.8604,-4.8604,-4.8604,-4.8604,-4.8604,-4.8604,-4.8604,-4.8604,-4.8604,-4.8604,-4.8604,-4.8604,-4.8604,-4.8604,-4.8604,-4.8563,-4.8563,-4.8604,-4.8604,-4.8604,-4.8563,-4.8355,-4.7834,-4.6624,-4.5611,-4.4954,-4.4551,-4.4411,-4.4425,-4.4425,-4.4425,-4.4425,-4.4317,-4.4209,-4.3899,-4.36,-4.341,-4.3088,-4.2679]},{"header":{"parameterUnit":"m.s-1","parameterCategory":1,"la1":31.0,"la2":29.5877,"lo1":-88.7671,"lo2":-86.6584,"dx":0.0162,"dy":0.0185,"nx":115,"ny":88,"refTime":"2023-01-03T06:00:00:Z","depth":0,"parameterNumber":3,"parameterNumberName":"V-component_of_WINDS"},"data":[0.0,0.0,0.0,0.0,0.0,0.0,0.0,0.0,0.0,0.0,0.0,0.0,0.0,0.0,0.0,0.0,0.0,0.0,0.0,0.0,0.0,0.0,0.0,0.0,0.0,0.0,0.0,0.0,0.0,0.0,0.0,0.0,0.0,0.0,0.0,0.0,0.0,0.0,0.0,0.0,0.0,0.0,0.0,0.0,0.0,0.0,0.0,0.0,0.0,0.0,0.0,0.0,0.0,0.0,0.0,0.0,0.0,0.0,0.0,0.0,0.0,0.0,0.0,0.0,0.0,0.0,0.0,0.0,0.0,0.0,0.0,0.0,0.0,0.0,0.0,0.0,0.0,0.0,0.0,0.0,0.0,0.0,0.0,0.0,0.0,0.0,0.0,0.0,0.0,0.0,0.0,0.0,0.0,0.0,0.0,0.0,0.0,0.0,0.0,0.0,0.0,0.0,0.0,0.0,0.0,0.0,0.0,0.0,0.0,0.0,0.0,0.0,0.0,0.0,0.0,0.0,0.0,0.0,0.0,0.0,0.0,0.0,0.0,0.0,0.0,0.0,0.0,0.0,0.0,0.0,0.0,0.0,0.0,0.0,0.0,0.0,0.0,0.0,0.0,0.0,0.0,0.0,0.0,0.0,0.0,0.0,0.0,0.0,0.0,0.0,0.0,0.0,0.0,0.0,0.0,0.0,0.0,0.0,0.0,0.0,0.0,0.0,0.0,0.0,0.0,0.0,0.0,0.0,0.0,0.0,0.0,0.0,0.0,0.0,0.0,0.0,0.0,0.0,0.0,0.0,0.0,0.0,0.0,0.0,0.0,0.0,0.0,0.0,0.0,0.0,0.0,0.0,0.0,0.0,0.0,0.0,0.0,0.0,0.0,0.0,0.0,0.0,0.0,0.0,0.0,0.0,0.0,0.0,0.0,0.0,0.0,0.0,0.0,0.0,0.0,0.0,0.0,0.0,0.0,0.0,0.0,0.0,0.0,0.0,0.0,0.0,0.0,0.0,0.0,0.0,0.0,0.0,0.0,0.0,0.0,0.0,0.0,0.0,0.0,0.0,0.0,0.0,0.0,0.0,0.0,0.0,0.0,0.0,0.0,0.0,0.0,0.0,0.0,0.0,0.0,0.0,0.0,0.0,0.0,0.0,0.0,0.0,0.0,0.0,0.0,0.0,0.0,0.0,0.0,0.0,0.0,0.0,0.0,0.0,0.0,0.0,0.0,0.0,0.0,0.0,0.0,0.0,0.0,0.0,0.0,0.0,0.0,0.0,0.0,0.0,0.0,0.0,0.0,0.0,0.0,0.0,0.0,0.0,0.0,0.0,0.0,0.0,0.0,0.0,0.0,0.0,0.0,0.0,0.0,0.0,0.0,0.0,0.0,0.0,0.0,0.0,0.0,0.0,0.0,0.0,0.0,0.0,0.0,0.0,0.0,0.0,0.0,0.0,0.0,0.0,0.0,0.0,0.0,0.0,0.0,0.0,0.0,0.0,0.0,0.0,0.0,0.0,0.0,0.0,0.0,0.0,0.0,0.0,0.0,0.0,0.0,0.0,0.0,0.0,0.0,0.0,0.0,0.0,0.0,0.0,0.0,0.0,0.0,0.0,0.0,0.0,0.0,0.0,0.0,0.0,0.0,0.0,0.0,0.0,0.0,0.0,0.0,0.0,0.0,0.0,0.0,0.0,0.0,0.0,0.0,0.0,0.0,0.0,0.0,0.0,0.0,0.0,0.0,0.0,0.0,0.0,0.0,0.0,0.0,0.0,0.0,0.0,0.0,0.0,0.0,0.0,0.0,0.0,0.0,0.0,0.0,0.0,0.0,0.0,0.0,0.0,0.0,0.0,0.0,0.0,0.0,0.0,0.0,0.0,0.0,0.0,0.0,0.0,0.0,0.0,0.0,0.0,0.0,0.0,0.0,0.0,0.0,0.0,0.0,0.0,0.0,0.0,0.0,0.0,0.0,0.0,0.0,0.0,0.0,0.0,0.0,0.0,0.0,0.0,0.0,0.0,0.0,0.0,0.0,0.0,0.0,0.0,0.0,0.0,0.0,0.0,0.0,0.0,0.0,0.0,0.0,0.0,0.0,0.0,0.0,0.0,0.0,0.0,0.0,0.0,0.0,0.0,0.0,0.0,0.0,0.0,0.0,0.0,0.0,0.0,0.0,0.0,0.0,0.0,0.0,0.0,0.0,0.0,0.0,0.0,0.0,0.0,0.0,0.0,0.0,0.0,0.0,0.0,0.0,0.0,0.0,0.0,0.0,0.0,0.0,0.0,0.0,0.0,0.0,0.0,0.0,0.0,0.0,0.0,0.0,0.0,0.0,0.0,0.0,0.0,0.0,0.0,0.0,0.0,0.0,0.0,0.0,0.0,0.0,0.0,0.0,0.0,0.0,0.0,0.0,0.0,0.0,0.0,0.0,0.0,0.0,0.0,0.0,0.0,0.0,0.0,0.0,0.0,0.0,0.0,0.0,0.0,0.0,0.0,0.0,0.0,0.0,0.0,0.0,0.0,0.0,0.0,0.0,0.0,0.0,0.0,0.0,0.0,0.0,0.0,0.0,0.0,0.0,0.0,0.0,0.0,0.0,0.0,0.0,0.0,0.0,0.0,0.0,0.0,0.0,0.0,0.0,0.0,0.0,0.0,0.0,0.0,0.0,0.0,0.0,0.0,0.0,0.0,0.0,0.0,0.0,0.0,0.0,0.0,0.0,0.0,0.0,0.0,0.0,0.0,0.0,0.0,0.0,0.0,0.0,0.0,0.0,0.0,0.0,0.0,0.0,0.0,0.0,0.0,0.0,0.0,0.0,0.0,0.0,0.0,0.0,0.0,0.0,0.0,0.0,0.0,0.0,0.0,0.0,0.0,0.0,0.0,0.0,0.0,0.0,0.0,0.0,0.0,0.0,0.0,0.0,0.0,0.0,0.0,0.0,0.0,0.0,0.0,0.0,0.0,0.0,0.0,0.0,0.0,0.0,0.0,0.0,0.0,0.0,0.0,0.0,0.0,0.0,0.0,0.0,0.0,0.0,0.0,0.0,0.0,0.0,0.0,0.0,0.0,0.0,0.0,0.0,0.0,0.0,0.0,0.0,0.0,0.0,0.0,0.0,0.0,0.0,0.0,0.0,0.0,0.0,0.0,0.0,0.0,0.0,0.0,0.0,0.0,0.0,0.0,0.0,0.0,0.0,0.0,0.0,0.0,0.0,0.0,0.0,0.0,0.0,0.0,0.0,0.0,0.0,0.0,0.0,0.0,0.0,0.0,0.0,0.0,0.0,0.0,0.0,0.0,0.0,0.0,0.0,0.0,0.0,0.0,0.0,0.0,0.0,0.0,0.0,0.0,0.0,0.0,0.0,0.0,0.0,0.0,0.0,0.0,0.0,0.0,0.0,0.0,0.0,0.0,0.0,0.0,0.0,0.0,0.0,0.0,0.0,0.0,0.0,0.0,0.0,0.0,0.0,0.0,0.0,0.0,0.0,0.0,0.0,0.0,0.0,0.0,0.0,0.0,0.0,0.0,0.0,0.0,0.0,0.0,0.0,0.0,0.0,0.0,0.0,0.0,0.0,0.0,0.0,0.0,0.0,0.0,0.0,0.0,0.0,0.0,0.0,0.0,0.0,0.0,0.0,0.0,0.0,0.0,0.0,0.0,0.0,0.0,0.0,0.0,0.0,0.0,0.0,0.0,0.0,0.0,0.0,0.0,0.0,0.0,0.0,0.0,0.0,0.0,0.0,0.0,0.0,0.0,0.0,0.0,0.0,0.0,0.0,0.0,0.0,0.0,0.0,0.0,0.0,0.0,0.0,0.0,0.0,0.0,0.0,0.0,0.0,0.0,0.0,0.0,0.0,0.0,0.0,0.0,0.0,0.0,0.0,0.0,0.0,0.0,0.0,0.0,0.0,0.0,0.0,0.0,0.0,0.0,0.0,0.0,0.0,0.0,0.0,0.0,0.0,0.0,0.0,0.0,0.0,0.0,0.0,0.0,0.0,0.0,0.0,0.0,0.0,0.0,0.0,0.0,0.0,0.0,0.0,0.0,0.0,0.0,0.0,0.0,0.0,0.0,0.0,0.0,0.0,0.0,0.0,0.0,0.0,0.0,0.0,0.0,0.0,0.0,0.0,0.0,0.0,0.0,0.0,0.0,0.0,0.0,0.0,0.0,0.0,0.0,0.0,0.0,0.0,0.0,0.0,0.0,0.0,0.0,0.0,0.0,0.0,0.0,0.0,0.0,0.0,0.0,0.0,0.0,0.0,0.0,0.0,0.0,0.0,0.0,0.0,0.0,0.0,0.0,0.0,0.0,0.0,0.0,0.0,0.0,0.0,0.0,0.0,0.0,0.0,0.0,0.0,0.0,0.0,0.0,0.0,0.0,0.0,0.0,0.0,0.0,0.0,0.0,0.0,0.0,0.0,0.0,0.0,0.0,0.0,0.0,0.0,0.0,0.0,0.0,0.0,0.0,0.0,0.0,0.0,0.0,0.0,0.0,0.0,0.0,0.0,0.0,0.0,0.0,0.0,0.0,0.0,0.0,0.0,0.0,0.0,0.0,0.0,0.0,0.0,0.0,0.0,0.0,0.0,0.0,0.0,0.0,0.0,0.0,0.0,0.0,0.0,0.0,0.0,0.0,0.0,0.0,0.0,0.0,0.0,0.0,0.0,0.0,0.0,0.0,0.0,0.0,0.0,0.0,0.0,0.0,0.0,0.0,0.0,0.0,0.0,0.0,0.0,0.0,0.0,0.0,0.0,0.0224,0.0224,0.0203,0.0206,0.0236,0.0,0.0,0.0,0.0,0.0,0.0,0.0,0.0,0.0,0.0,0.0,0.0,0.0,0.0,0.0,0.0,0.0,0.0,0.0,0.0,0.0,0.0,0.0,0.0,0.0,0.0,0.0,0.0,0.0,0.0,0.0,0.0,0.0,0.0,0.0,0.0,0.0,0.0,0.0,0.0,0.0,0.0,0.0,0.0,0.0,0.0,0.0,0.0,0.0,0.0,0.0,0.0,0.0,0.0,0.0,0.0,0.0,0.0,0.0,0.0,0.0,0.0,0.0,0.0,0.0,0.0,0.0,0.0,0.0,0.0,0.0,0.0,0.0,0.0,0.0,0.0,0.0,0.0,0.0,0.0,0.0,0.0,0.0,0.0,0.0,0.0,0.0,0.0,0.0,0.0,0.0,0.0,0.0,0.0,0.0,0.0,0.0,0.0,0.0,0.0,0.0,0.0,0.0,0.0,0.0,0.0,0.0,0.0,0.0,0.0,0.0,0.0,0.0403,0.0408,0.0408,0.0,0.0,0.0,0.0,0.0,0.0,0.0,0.0,0.0,0.0,0.0,0.0,0.0,0.0,0.0,0.0,0.0,0.0,0.0,0.0,0.0,0.0,0.0,0.0,0.0,0.0,0.0,0.0,0.0,0.0,0.0,0.0,0.0,0.0,0.0,0.0,0.0,0.0,0.0,0.0,0.0,0.0,0.0,0.0,0.0,0.0,0.0,0.0,0.0,0.0,0.0,0.0,0.0,0.0,0.0,0.0,0.0,0.0,0.0,0.0,0.0,0.0,0.0,0.0,0.0,0.0,0.0,0.0,0.0,0.0,0.0,0.0,0.0,0.0,0.0,0.0,0.0,0.0,0.0,0.0,0.0,0.0,0.0,0.0,0.0,0.0,0.0,0.0,0.0,0.0,0.0,0.0,0.0,0.0,0.0,0.0,0.0,0.0,0.0,0.0,0.0,0.0,0.0,0.0,0.0,0.0,0.0,0.0,0.0,0.0,0.0393,0.0393,0.0394,0.0,0.0394,0.0,0.0,0.0,0.0,0.0,0.0,0.0,0.0,0.0,0.0,0.0,0.0,0.0,0.0,0.0,0.0,0.0,0.0,0.0,0.0,0.0,0.0,0.0,0.0,0.0,0.0,0.0,0.0,0.0,0.0,0.0,0.0,0.0,0.0,0.0,0.0,0.0,0.0,0.0,0.0,0.0,0.0,0.0,0.0,0.0,0.0,0.0,0.0,0.0,0.0,0.0,0.0,0.0,0.0,0.0,0.0,0.0,0.0,0.0,0.0,0.0,0.0,0.0,0.0,0.0,0.0,0.0,0.0,0.0,0.0,0.0,0.0,0.0,0.0,0.0,0.0,0.0,0.0,0.0,0.0,0.0,0.0,0.0,0.0,0.0,0.0,0.0,0.0,0.0,0.0,0.0,0.0,0.0,0.0,0.0,0.0,0.0,0.0,0.0,0.0,0.0,0.0,0.0,0.0,0.0,0.0,0.0,0.0,0.0,0.0,0.0973,0.0954,0.0841,0.0757,0.0,0.0,0.0,0.0,0.0,0.0,0.0,0.0,0.0,0.0,0.0,0.0,0.0,0.0,0.0,0.0,0.0,0.0,0.0,0.0,0.0,0.0,0.0,0.0,0.0,0.0,0.0,0.0,0.0,0.0,0.0,0.0,0.0,0.0,0.0,0.0,0.0,0.0,0.0,0.0,0.0,0.0,0.0,0.0,0.0,0.0,0.0,0.0,0.0,0.0,0.0,0.0,0.0,0.0,0.0,0.0,0.0,0.0,0.0,0.0,0.0,0.0,0.0,0.0,0.0,0.0,0.0,0.0,0.0,0.0,0.0,0.0,0.0,0.0,0.0,0.0,0.0,0.0,0.0,0.0,0.0,0.0,0.0,0.0,0.0,0.0,0.0,0.0,0.0,0.0,0.0,0.0,0.0,0.0,0.0,0.0,0.0,0.0,0.0,0.0,0.0,0.0,0.0,0.0,0.0,0.0,0.0,0.0,0.0,0.0,0.1369,0.137,0.1339,0.1252,0.1104,0.0954,0.0,0.0,0.0,0.0,0.0,0.0,0.0,0.0,0.0,0.0,0.0,0.0,0.0,0.0,0.0,0.0,0.0,0.0,0.0,0.0,0.0,0.0,0.0,0.0,0.0,0.0,0.0,0.0,0.0,0.0,0.0,0.0,0.0,0.0,0.0,0.0,0.0,0.0,0.0,0.0,0.0,0.0,0.0,0.0,0.0,0.0,0.0,0.0,0.0,0.0,0.0,0.0,0.0,0.0,0.0,0.0,0.0,0.0,0.0,0.0,0.0,0.0,0.0,0.0,0.0,0.0,0.0,0.0,0.0,0.0,0.0,0.0,0.0,0.0,0.0,0.0,0.0,0.0,0.0,0.0,0.0,0.0,0.0,0.0,0.0,0.0,0.0,0.0,0.0,0.0,0.0,0.0,0.0,0.0,0.0,0.0,0.0,0.0,0.0,0.0,0.0,0.0,0.0,0.0,0.0,0.0,0.0,0.0,0.141,0.1414,0.1415,0.1413,0.1383,0.1304,0.0,0.0,0.0,0.0,0.0,0.0,0.0,0.0,0.0,0.0,0.0,0.0,0.0,0.0,0.0,0.0,0.0,0.0,0.0,0.0,0.0,0.0,0.0,0.0,0.0,0.0,0.0,0.0,0.0,0.0,0.0,0.0,0.0,0.0,0.0,0.0,0.0,0.0,0.0,0.0,0.0,0.0,0.0,0.0,0.0,0.0,0.0,0.0,0.0,0.0,0.0,0.0,0.0,0.0,0.0,0.0,0.0,0.0,0.0,0.0,0.0,0.0,0.0,0.0,0.0,0.0,0.0,0.0,0.0,0.0,0.0,0.0,0.0,0.0,0.0,0.0,0.0,0.0,0.0,0.0,0.0,0.0,0.0,0.0,0.0,0.0,0.0,0.0,0.0,0.0,0.0,0.0,0.0,0.0,0.0,0.0,0.0,0.0,0.0,0.0,0.0,0.0,0.0,0.0,0.0,0.0,0.0,0.0,0.0,0.2033,0.2072,0.2084,0.2027,0.1835,0.1638,0.0,0.0,0.0,0.0,0.0,0.0,0.0,0.0,0.0,0.0,0.0,0.0,0.0,0.0,0.0,0.0,0.0,0.0,0.0,0.0,0.0,0.0,0.0,0.0,0.0,0.0,0.0,0.0,0.0,0.0,0.0,0.0,0.0,0.0,0.0,0.0,0.0,0.0,0.0,0.0,0.0,0.0,0.0,0.0,0.0,0.0,0.0,0.0,0.0,0.0,0.0,0.0,0.0,0.0,0.0,0.0,0.0,0.0,0.0,0.0,0.0,0.0,0.0,0.0,0.0,0.0,0.0,0.0,0.0,0.0,0.0,0.0,0.0,0.0,0.0,0.0,0.0,0.0,0.0,0.0,0.0,0.0,0.0,0.0,0.0,0.0,0.0,0.0,0.0,0.0,0.0,0.0,0.0,0.0,0.0,0.0,0.0,0.0,0.0,0.0,0.0,0.0,0.0,0.0,0.0,0.0,0.0,0.0,0.0,0.242,0.2441,0.2449,0.2345,0.2167,0.1932,0.0,0.0,0.0,0.0,0.0,0.0,0.0,0.0,0.0,0.0,0.0,0.0,0.0,0.0,0.0,0.0,0.0,0.0,0.0,0.0,0.0,0.0,0.0,0.0,0.0,0.0,0.0,0.0,0.0,0.0,0.0,0.0,0.0,0.0,0.0,0.0,0.0,0.0,0.0,0.0,0.0,0.0,0.0,0.0,0.0,0.0,0.0,0.0,0.0,0.0,0.0,0.0,0.0,0.0,0.0,0.0,0.0,0.0,0.0,0.0,0.0,0.0,0.0,0.0,0.0,0.0,0.0,0.0,0.0,0.0,0.0,0.0,0.0,0.0,0.0,0.0,0.0,0.0,0.0,0.0,0.0,0.0,0.0,0.0,0.0,0.0,0.0,0.0,0.0,0.0,0.0,0.0,0.0,0.0,0.0,0.0,0.0,0.0,0.0,0.0,0.0,0.0,0.0,0.0,0.0,0.0,0.0,0.0,0.245,0.2526,0.2472,0.2446,0.2302,0.2332,0.2148,0.0,0.0,0.0,0.0,0.0,0.0,0.0,0.0,0.0,0.0,0.0,0.0,0.0,0.0,0.0,0.0,0.0,0.0,0.0,0.0,0.0,0.0,0.0,0.0,0.0,0.0,0.0,0.0,0.0,0.0,0.0,0.0,0.0,0.0,0.0,0.0,0.0,0.0,0.0,0.0,0.0,0.0,0.0,0.0,0.0,0.0,0.0,0.0,0.0,0.0,0.0,0.0,0.0,0.0,0.0,0.0,0.0,0.0,0.0,0.0,0.0,0.0,0.0,0.0,0.0,0.0,0.0,0.0,0.0,0.0,0.0,0.0,0.0,0.0,0.0,0.0,0.0,0.0,0.0,0.0,0.0,0.0,0.0,0.0,0.0,0.0,0.0,0.0,0.0,0.0,0.0,0.0,0.0,0.0,0.0,0.0,0.0,0.0,0.0,0.0,0.0,0.0,0.0,0.0,0.0,0.0,0.0,0.0,0.0,0.3272,0.3335,0.326,0.3076,0.2885,0.2604,0.0,0.0,0.0,0.0,0.0,0.0,0.0,0.0,0.0,0.0,0.0,0.0,0.0,0.0,0.0,0.0,0.0,0.0,0.0,0.0,0.0,0.0,0.0,0.0,0.0,0.0,0.0,0.0,0.0,0.0,0.0,0.0,0.0,0.0,0.0,0.0,0.0,0.0,0.0,0.0,0.0,0.0,0.0,0.0,0.0,0.0,0.0,0.0,0.0,0.0,0.0,0.0,0.0,0.0,0.0,0.0,0.0,0.0,0.0,0.0,0.0,0.0,0.0,0.0,0.0,0.0,0.0,0.0,0.0,0.0,0.0,0.0,0.0,0.0,0.0,0.0,0.0,0.0,0.0,0.0,0.0,0.0,0.0,0.0,0.0,0.0,0.0,0.0,0.0,0.0,0.0,0.0,0.0,0.0,0.0,0.0,0.0,0.0,0.0,0.0,0.0,0.0,0.0,0.0,0.0,0.0,0.0,0.0,0.0,0.4142,0.4038,0.3833,0.3638,0.3377,0.3004,0.2591,0.0,0.0,0.0,0.0,0.0,0.0,0.0,0.0,0.0,0.0,0.0,0.0,0.0,0.0,0.0,0.0,0.0,0.0,0.0,0.0,0.0,0.0,0.0,0.0,0.0,0.0,0.0,0.0,0.0,0.0,0.0,0.0,0.0,0.0,0.0,0.0,0.0,0.0,0.0,0.0,0.0,0.0,0.0,0.0,0.0,0.0,0.0,0.0,0.0,0.0,0.0,0.0,0.0,0.0,0.0,0.0,0.0,0.0,0.0,0.0,0.0,0.0,0.0,0.0,0.0,0.0,0.0,0.0,0.0,0.0,0.0,0.0,0.0,0.0,0.0,0.0,0.0,0.0,0.0,0.0,0.0,0.0,0.0,0.0,0.0,0.0,0.0,0.0,0.0,0.0,0.0,0.0,0.0,0.0,0.0,0.0,0.0,0.0,0.0,0.0,0.0,0.0,0.0,0.0,0.0,0.0,0.0,0.0,0.5149,0.4613,0.4234,0.4089,0.382,0.3451,0.0,0.0,0.0,0.0,0.0,0.0,0.0,0.0,0.0,0.0,0.0,0.0,0.0,0.0,0.0,0.0,0.0,0.0,0.0,0.0,0.0,0.0,0.0,0.0,0.0,0.0,0.0,0.0,0.0,0.0,0.0,0.0,0.0,0.0,0.0,0.0,0.0,0.0,0.0,0.0,0.0,0.0,0.0,0.0,0.0,0.0,0.0,0.0,0.0,0.0,0.0,0.0,0.0,0.0,0.0,0.0,0.0,0.0,0.0,0.0,0.0,0.0,0.0,0.0,0.0,0.0,0.0,0.0,0.0,0.0,0.0,0.0,0.0,0.0,0.0,0.0,0.0,0.0,0.0,0.0,0.0,0.0,0.0,0.0,0.0,0.0,0.0,0.0,0.0,0.0,0.0,0.0,0.0,0.0,0.0,0.0,0.0,0.0,0.0,0.0,0.0,0.0,0.0,0.0,0.0,0.0,0.0,0.0,0.0,0.5752,0.5761,0.5461,0.483,0.4495,0.4061,0.0,0.0,0.0,0.0,0.0,0.0,0.0,0.0,0.0,0.0,0.0,0.0,0.0,0.0,0.0,0.0,0.0,0.0,0.0,0.0,0.0,0.0,0.0,0.0,0.0,0.0,0.0,0.0,0.0,0.0,0.0,0.0,0.0,0.0,0.0,0.0,0.0,0.0,0.0,0.0,0.0,0.0,0.0,0.0,0.0,0.0,0.0,0.0,0.0,0.0,0.0,0.0,0.0,0.0,0.0,0.0,0.0,0.0,0.0,0.0,0.0,0.0,0.0,0.0,0.0,0.0,0.0,0.0,0.0,0.0,0.0,0.0,0.0,0.0,0.0,0.0,0.0,0.0,0.0,0.0,0.0,0.0,0.0,0.0,0.0,0.0,0.0,0.0,0.0,0.0,0.0,0.0,0.0,0.0,0.0,0.0,0.0,0.0,0.0,0.0,0.0,0.0,0.0,0.0,0.0,0.0,0.0,0.0,0.5954,0.6235,0.667,0.6503,0.5797,0.5108,0.4487,0.0,0.0,0.0,0.0,0.0,0.0,0.0,0.0,0.0,0.0,0.0,0.0,0.0,0.0,0.0,0.0,0.0,0.0,0.0,0.0,0.0,0.0,0.0,0.0,0.0,0.0,0.0,0.0,0.0,0.0,0.0,0.0,0.0,0.0,0.0,0.0,0.0,0.0,0.0,0.0,0.0,0.0,0.0,0.0,0.0,0.0,0.0,0.0,0.0,0.0,0.0,0.0,0.0,0.0,0.0,0.0,0.0,0.0,0.0,0.0,0.0,0.0,0.0,0.0,0.0,0.0,0.0,0.0,0.0,0.0,0.0,0.0,0.0,0.0,0.0,0.0,0.0,0.0,0.0,0.0,0.0,0.0,0.0,0.0,0.0,0.0,0.0,0.0,0.0,0.0,0.0,0.0,0.0,0.0,0.0,0.0,0.0,0.0,0.0,0.0,0.0,0.0,0.0,0.0,0.0,0.0,0.0,0.0,0.6513,0.6641,0.7233,0.7319,0.6771,0.5647,0.4876,0.0,0.0,0.0,0.0,0.0,0.0,0.0,0.0,0.0,0.0,0.0,0.0,0.0,0.0,0.0,0.0,0.0,0.0,0.0,0.0,0.0,0.0,0.0,0.0,0.0,0.0,0.0,0.0,0.0,0.0,0.0,0.0,0.0,0.0,0.0,0.0,0.0,0.0,0.0,0.0,0.0,0.0,0.0,0.0,0.0,0.0,0.0,0.0,0.0,0.0,0.0,0.0,0.0,0.0,0.0,0.0,0.0,0.0,0.0,0.0,0.0,0.0,0.0,0.0,0.0,0.0,0.0,0.0,0.0,0.0,0.0,0.0,0.0,0.0,0.0,0.0,0.0,0.0,0.0,0.0,0.0,0.0,0.0,0.0,0.0,0.0,0.0,0.0,0.0,0.0,0.0,0.0,0.0,0.0,0.0,0.0,0.0,0.0,0.0,0.0,0.0,0.0,0.0,0.0,0.0,0.0,0.0,0.0,0.6813,0.6861,0.7092,0.7226,0.724,0.6429,0.5738,0.0,0.0,0.0,0.0,0.0,0.0,0.0,0.0,0.0,0.0,0.0,0.0,0.0,0.0,0.0,0.0,0.0,0.0,0.0,0.0,0.0,0.0,0.0,0.0,0.0,0.0,0.0,0.0,0.0,0.0,0.0,0.0,0.0,0.0,0.0,0.0,0.0,0.0,0.0,0.0,0.0,0.0,0.0,0.0,0.0,0.0,0.0,0.0,0.4786,0.0,0.0,0.0,0.0,0.0,0.0,0.0,0.0,0.0,0.0,0.0,0.0,0.0,0.0,0.0,0.0,0.0,0.0,0.0,0.0,0.0,0.0,0.0,0.0,0.0,0.0,0.0,0.0,0.0,0.0,0.0,0.0,0.0,0.0,0.0,0.0,0.0,0.0,0.0,0.0,0.0,0.0,0.0,0.0,0.0,0.0,0.0,0.0,0.0,0.0,0.0,0.0,0.0,0.0,0.0,0.0,0.0,0.0,0.0,0.7886,0.8152,0.8078,0.8186,0.8511,0.7387,0.641,0.0,0.0,0.0,0.0,0.0,0.0,0.0,0.0,0.0,0.0,0.0,0.0,0.0,0.0,0.0,0.0,0.0,0.0,0.0,0.0,0.0,0.0,0.0,0.0,0.0,0.0,0.0,0.0,0.0,0.0,0.0,0.0,0.0,0.0,0.0,0.0,0.0,0.0,0.0,0.0,0.0,0.0,0.0,0.0,0.0,0.0,0.0,0.0,0.0,0.0,0.0,0.0,0.0,0.0,0.0,0.0,0.0,0.0,0.0,0.0,0.0,0.0,0.0,0.0,0.0,0.0,0.0,0.0,0.0,0.0,0.0,0.0,0.0,0.0,0.0,0.0,0.0,0.0,0.0,0.0,0.0,0.0,0.0,0.0,0.0,0.0,0.0,0.0,0.0,0.0,0.0,0.0,0.0,0.0,0.0,0.0,0.0,0.0,0.0,0.0,0.0,0.0,0.0,0.0,0.0,0.0,0.0,0.8628,0.9106,0.9588,0.9324,0.9419,0.9963,0.8404,0.7225,0.6622,0.0,0.0,0.0,0.0,0.0,0.0,0.0,0.0,0.0,0.0,0.0,0.0,0.0,0.0,0.0,0.0,0.0,0.0,0.0,0.0,0.0,0.0,0.0,0.0,0.0,0.0,0.0,0.0,0.0,0.0,0.0,0.0,0.0,0.0,0.0,0.0,0.0,0.0,0.459,0.5245,0.0,0.0,0.0,0.0,0.0,0.0,0.0,0.0,0.6307,0.0,0.0,0.0,0.0,0.0,0.0,0.0,0.0,0.0,0.0,0.0,0.0,0.0,0.0,0.0,0.0,0.0,0.0,0.0,0.0,0.0,0.0,0.0,0.0,0.0,0.0,0.0,0.0,0.0,0.0,0.0,0.0,0.0,0.0,0.0,0.0,0.0,0.0,0.0,0.0,0.0,0.0,0.0,0.0,0.0,0.0,0.0,0.0,0.0,0.0,0.0,0.0,0.0,0.0,0.0,0.0,0.8373,0.9065,0.959,0.9814,0.9781,0.9965,1.0447,0.949,0.8789,0.8383,0.0,0.0,0.0,0.0,0.0,0.0,0.0,0.0,0.0,0.0,0.0,0.0,0.0,0.0,0.0,0.0,0.0,0.0,0.0,0.0,0.0,0.0,0.0,0.0,0.0,0.0,0.0,0.0,0.0,0.0,0.0,0.0,0.0,0.0,0.0,0.0,0.0,0.0,0.0,0.5671,0.6164,0.0,0.0,0.0,0.0,0.0,0.0,0.0,0.0,0.6863,0.0,0.0,0.0,0.0,0.0,0.0,0.0,0.0,0.0,0.0,0.0,0.0,0.0,0.0,0.0,0.0,0.0,0.0,0.0,0.0,0.0,0.0,0.0,0.0,0.0,0.0,0.0,0.0,0.0,0.0,0.0,0.0,0.0,0.0,0.0,0.0,0.0,0.0,0.0,0.0,0.0,0.0,0.0,0.0,0.0,0.0,0.0,0.0,0.0,0.0,0.0,0.0,0.0,0.0,0.0,0.9608,1.023,1.0868,1.1569,1.0904,1.1041,1.2065,1.0407,0.9561,0.0,0.0,0.0,0.0,0.0,0.0,0.0,0.0,0.0,0.0,0.0,0.0,0.0,0.0,0.0,0.0,0.0,0.0,0.0,0.0,0.0,0.0,0.0,0.0,0.0,0.0,0.0,0.0,0.0,0.0,0.0,0.0,0.0,0.0,0.0,0.0,0.0,0.0,0.0,0.0,0.6542,0.7151,0.7636,0.0,0.0,0.0,0.0,0.0,0.0,0.8444,0.8151,0.0,0.0,0.0,0.0,0.0,0.0,0.0,0.0,0.0,0.0,0.0,0.0,0.0,0.0,0.0,0.0,0.0,0.0,0.0,0.0,0.0,0.0,0.0,0.0,0.0,0.0,0.0,0.0,0.0,0.0,0.0,0.0,0.0,0.0,0.0,0.0,0.0,0.0,0.0,0.0,0.0,0.0,0.0,0.0,0.0,0.0,0.0,0.0,0.0,0.0,0.0,0.0,0.0,0.0,0.0,1.0753,1.1253,1.2042,1.302,1.198,1.2081,1.3506,1.1251,1.0239,0.0,0.0,0.0,0.0,0.0,0.0,0.0,0.0,0.0,0.0,0.0,0.0,0.0,0.0,0.0,0.0,0.0,0.0,0.0,0.0,0.0,0.0,0.0,0.0,0.0,0.0,0.0,0.0,0.0,0.0,0.0,0.0,0.0,0.0,0.0,0.0,0.0,0.0,0.0,0.0,0.0,0.8112,0.8638,0.9017,0.0,0.0,0.0,0.0,0.9479,0.9647,0.0,0.0,0.0,0.0,0.0,0.0,0.0,0.0,0.0,0.0,0.0,0.0,0.0,0.0,0.0,0.0,0.0,0.0,0.0,0.0,0.0,0.0,0.0,0.0,0.0,0.0,0.0,0.0,0.0,0.0,0.0,0.0,0.0,0.0,0.0,0.0,0.0,0.0,0.0,0.0,0.0,0.0,0.0,0.0,0.0,0.0,0.0,0.0,0.0,0.0,0.0,0.0,0.0,0.0,0.0,0.0,1.089,1.1595,1.2245,1.2797,1.2397,1.2618,1.356,1.2036,1.1143,0.0,0.0,0.0,0.0,0.0,0.0,0.0,0.0,0.0,0.0,0.0,0.0,0.0,0.0,0.0,0.0,0.0,0.0,0.0,0.0,0.0,0.0,0.0,0.0,0.0,0.0,0.0,0.0,0.0,0.0,0.0,0.0,0.0,0.0,0.0,0.0,0.0,0.0,0.0,0.0,0.0,0.8446,0.9031,0.9626,0.9979,0.0,0.0,1.0182,1.107,1.0621,0.0,0.0,0.0,0.0,0.0,0.0,0.0,0.0,0.0,0.0,0.0,0.0,0.0,0.0,0.0,0.0,0.0,0.0,0.0,0.0,0.0,0.0,0.0,0.0,0.0,0.0,0.0,0.0,0.0,0.0,0.0,0.0,0.0,0.0,0.0,0.0,0.0,0.0,0.0,0.0,0.0,0.0,0.0,0.0,0.0,0.0,0.0,0.0,0.0,0.0,0.0,0.0,0.0,0.0,0.0,1.0324,1.1447,1.1946,1.2536,1.3206,1.2632,1.2812,1.3861,1.2473,1.1595,0.0,0.0,0.0,0.0,0.0,0.0,0.0,0.0,0.0,0.0,0.0,0.0,0.0,0.0,0.0,0.0,0.0,0.0,0.0,0.0,0.0,0.0,0.0,0.0,0.0,0.0,0.0,0.0,0.0,0.0,0.0,0.0,0.0,0.0,0.0,0.0,0.0,0.0,0.0,0.0,0.0,0.0,0.9961,1.0616,0.0,0.0,0.0,1.126,1.1422,0.0,0.0,0.0,0.0,0.0,0.0,0.0,0.0,0.0,0.0,0.0,0.0,0.0,0.0,0.0,0.0,0.0,0.0,0.0,0.0,0.0,0.0,0.0,0.0,0.0,0.0,0.0,0.0,0.0,0.0,0.0,0.0,0.0,0.0,0.0,0.0,0.0,0.0,0.0,0.0,0.0,0.0,0.0,0.0,0.0,0.0,0.0,0.0,0.0,0.0,0.0,0.0,0.0,0.0,0.0,0.0,0.0,1.2233,1.2696,1.322,1.3858,1.314,1.3099,1.3915,1.2765,0.0,0.0,0.0,0.0,0.0,0.0,0.0,0.0,0.0,0.0,0.0,0.0,0.0,0.0,0.0,0.0,0.0,0.0,0.0,0.0,0.0,0.0,0.0,0.0,0.0,0.0,0.0,0.5212,0.0,0.0,0.0,0.0,0.0,0.0,0.0,0.0,0.0,0.0,0.0,0.0,0.0,0.0,1.0089,1.081,1.1473,1.1825,0.0,0.0,1.2075,1.1822,1.2105,1.2092,0.0,0.0,0.0,0.0,0.0,0.0,0.0,0.0,0.0,0.0,0.0,0.0,0.0,0.0,0.0,0.0,0.0,0.0,0.0,0.0,0.0,0.0,0.0,0.0,0.0,0.0,0.0,0.0,0.0,0.0,0.0,0.0,0.0,0.0,0.0,0.0,0.0,0.0,0.0,0.0,0.0,0.0,0.0,0.0,0.0,0.0,0.0,0.0,0.0,0.0,0.0,0.0,0.0,0.0,1.2151,1.3279,1.4044,1.456,1.4765,1.4137,1.3744,1.3641,1.289,1.2245,0.0,0.0,0.0,0.0,0.0,0.0,0.0,0.0,0.0,0.0,0.0,0.0,0.0,0.0,0.0,0.0,0.0,0.0,0.0,0.0,0.0,0.0,0.0,0.0,0.0,0.0,0.0,0.0,0.0,0.0,0.0,0.0,0.0,0.0,0.0,0.0,0.0,0.0,0.0,0.0,0.0,1.0899,1.1371,1.2005,1.2426,0.0,1.2192,1.218,1.27,1.2309,1.2018,1.2308,0.0,0.0,0.0,0.0,0.0,0.0,0.0,0.0,0.0,0.0,0.0,0.0,0.0,0.0,0.0,0.0,0.0,0.0,0.0,0.0,0.0,0.0,0.0,0.0,0.0,0.0,0.0,0.0,0.0,0.0,0.0,0.0,0.0,0.0,0.0,0.0,0.0,0.0,0.0,0.0,0.0,0.0,0.0,0.0,0.0,0.0,0.0,0.0,0.0,0.0,0.0,0.0,0.0,1.277,1.3877,1.4364,1.4969,1.5707,1.508,1.4828,1.5137,1.4205,1.3511,0.0,0.0,0.0,0.0,0.0,0.0,0.0,0.0,0.0,0.0,0.0,0.0,0.0,0.0,0.0,0.0,0.0,0.0,0.0,0.0,0.0,0.0,0.0,0.0,0.0,0.0,0.0,0.0,0.9299,0.9925,0.9673,0.0,0.0,0.0,0.0,0.0,0.0,0.0,0.0,0.0,0.0,1.1026,1.1753,1.2144,0.0,0.0,1.2273,1.2207,1.2267,1.2318,1.2333,1.2307,1.1826,0.0,0.0,0.0,0.0,0.0,0.0,0.0,0.0,0.0,0.0,0.0,0.0,0.0,0.0,0.0,0.0,0.0,0.0,0.0,0.0,0.0,0.0,0.0,0.0,0.0,0.0,0.0,0.0,0.0,0.0,0.0,0.0,0.0,0.0,0.0,0.0,0.0,0.0,0.0,0.0,0.0,0.0,0.0,0.0,0.0,0.0,0.0,0.0,0.0,0.0,0.0,0.0,1.3737,1.4869,1.5267,1.5941,1.6986,1.6261,1.594,1.6109,1.5521,1.4942,0.0,0.0,0.0,0.0,0.0,0.0,0.0,0.0,0.0,0.0,0.0,0.0,0.0,0.0,0.0,0.0,0.0,0.0,0.0,0.0,0.0,0.0,0.0,0.0,0.0,0.0,0.0,0.0,1.026,1.0633,0.988,0.0,0.0,0.0,0.0,0.0,0.0,0.0,0.0,0.0,0.0,1.1505,1.2249,1.2607,1.2806,1.2813,1.2777,1.275,1.2634,1.2721,1.2806,1.2924,0.0,0.0,0.0,0.0,0.0,0.0,0.0,0.0,0.0,0.0,0.0,0.0,0.0,0.0,0.0,0.0,0.0,0.0,0.0,0.0,0.0,0.0,0.0,0.0,0.0,0.0,0.0,0.8226,0.0,0.0,0.7616,0.0,0.0,0.0,0.0,0.0,0.0,0.0,0.0,0.0,0.0,0.0,0.0,0.0,0.0,0.0,0.0,0.0,0.0,0.0,0.0,0.0,0.0,1.5112,1.6455,1.7056,1.7787,1.8501,1.7782,1.7009,1.6307,1.6613,1.6494,1.5773,0.0,0.0,0.0,0.0,0.0,0.0,0.0,0.0,0.0,0.0,0.0,0.0,0.0,0.0,0.0,0.0,0.0,0.0,0.0,0.0,0.0,0.0,0.0,0.0,0.0,0.0,0.991,1.0647,1.0647,0.0,0.0,0.0,0.0,0.0,0.0,0.0,0.0,0.0,0.0,1.1732,1.2556,1.2857,1.3494,1.3912,1.3933,1.3898,1.3926,1.4146,1.3627,1.3511,0.0,0.0,0.0,0.0,0.0,0.0,0.0,0.0,0.0,0.0,0.0,0.0,0.0,0.0,0.0,0.0,0.0,0.0,0.0,0.0,0.0,0.0,0.0,0.0,0.0,0.0,0.0,1.0048,0.9642,0.0,0.0,0.0,0.0,0.0,0.0,0.0,0.0,0.0,0.0,0.0,1.4104,1.4451,0.0,0.0,0.0,0.0,0.0,0.0,0.0,0.0,0.0,0.0,0.0,0.0,1.5909,1.7344,1.7727,1.8431,1.9434,1.8933,1.8533,1.8257,1.7837,1.7261,1.6492,0.0,0.0,0.0,0.0,0.0,0.0,0.0,0.0,0.0,0.0,0.0,0.0,0.0,0.0,0.0,0.0,0.0,0.0,0.0,0.0,0.0,0.0,0.0,0.0,0.0,1.0855,0.0,0.0,0.0,0.0,0.0,0.0,0.0,0.0,0.0,0.0,0.0,1.0878,1.1729,1.2326,1.2891,1.3422,1.3756,1.4048,0.0,0.0,0.0,0.0,0.0,0.0,0.0,0.0,0.0,0.0,0.0,0.0,0.0,0.0,1.2582,1.2153,1.2312,1.243,1.2187,0.0,0.0,0.0,0.0,0.0,0.0,0.0,0.0,0.0,0.0,0.0,0.0,0.0,0.0,1.1766,0.0,1.1234,0.0,0.0,0.0,0.0,0.0,0.0,0.0,0.0,1.484,1.5522,1.6068,1.6291,1.6315,0.0,1.5973,1.5052,0.0,0.0,0.0,0.0,0.0,0.0,0.0,0.0,1.6766,1.783,1.8285,1.8979,1.9851,1.965,1.9516,1.9516,1.9142,1.8581,1.7907,1.7659,1.7018,0.0,0.0,0.0,0.0,0.0,0.0,0.0,0.0,0.0,0.0,0.0,0.0,0.0,0.0,0.0,0.0,0.0,0.0,0.0,0.0,0.0,0.0,0.0,1.227,0.0,0.0,0.0,0.0,0.0,0.0,0.0,0.0,0.0,1.0799,1.13,1.1923,1.2567,1.3112,1.3597,1.4029,0.0,0.0,0.0,0.0,0.0,0.0,0.0,1.4659,1.5045,1.5266,1.5335,1.5261,1.4864,1.4538,1.4537,0.0,0.0,1.3429,1.3475,1.3648,1.3504,1.3215,1.2991,1.3132,1.3153,1.3229,0.0,0.0,0.0,0.0,0.0,0.0,0.0,0.0,1.4501,1.3713,0.0,1.3275,0.0,0.0,0.0,0.0,1.2064,1.4108,0.0,0.0,1.7638,1.8284,1.7686,1.8164,1.8234,1.791,1.7935,1.7647,1.6887,1.5275,0.0,0.0,0.0,0.0,0.0,0.0,1.7632,1.789,1.8825,1.9512,1.9874,1.9932,1.9904,1.9951,2.0361,2.0381,1.9933,1.9908,1.9165,1.7429,1.6319,0.0,0.0,0.0,0.0,0.0,0.0,0.0,0.0,0.0,0.0,0.0,0.0,0.0,0.0,0.0,0.0,0.0,0.0,0.0,0.0,1.2611,0.0,0.0,0.0,0.0,0.0,0.0,0.0,0.0,0.0,0.0,1.181,1.2526,1.3141,1.3161,0.0,0.0,0.0,0.0,1.5733,1.5726,1.594,1.6057,1.6105,1.5992,1.5897,1.5915,0.0,0.0,1.5741,1.5452,1.5348,1.5672,1.627,1.6393,1.49,1.4581,1.4574,1.4842,1.4709,1.4521,1.4312,1.4396,1.4582,1.7624,0.0,0.0,0.0,0.0,1.6019,1.6833,1.8013,1.8175,1.8077,1.778,1.7657,0.0,0.0,0.0,0.0,0.0,0.0,1.8197,1.91,1.9379,1.9626,1.9917,1.9704,1.9545,1.9462,1.9849,1.9661,1.8947,1.9352,1.8369,1.6113,0.0,0.0,0.0,0.0,1.8523,1.8864,1.9416,1.9785,1.9912,2.0215,2.0419,2.0419,2.081,2.083,2.0391,2.042,1.9928,1.8852,1.7626,0.0,0.0,0.0,0.0,0.0,0.0,0.0,0.0,0.0,0.0,0.0,0.0,0.0,0.0,0.0,0.0,0.0,0.0,0.0,1.2702,1.3546,1.3876,0.0,0.0,0.0,0.0,0.0,0.0,0.0,0.0,0.0,1.4125,1.38,1.3798,0.0,0.0,1.532,1.5295,1.581,1.6188,1.618,1.6077,0.0,1.6453,1.6283,1.6261,1.6685,1.674,1.6715,1.6715,1.6485,1.6238,1.6095,1.6213,1.6213,1.5887,1.5992,1.6071,1.5872,1.5598,1.5363,1.5306,1.5353,1.5378,2.0705,1.962,1.8895,1.8637,1.8676,1.8808,1.9589,2.0744,2.088,2.073,2.0434,2.0444,1.9505,1.789,1.7436,0.0,0.0,0.0,2.0311,2.1377,2.0967,2.1,2.1421,2.1344,2.1289,2.1322,2.198,2.1886,2.1059,2.1964,2.1112,1.875,0.0,0.0,1.9028,1.945,1.962,1.9578,1.9951,2.0176,2.0185,2.0605,2.083,2.084,2.1375,2.1533,2.1153,2.1124,2.0732,1.9889,1.8902,1.7814,0.0,0.0,0.0,0.0,0.0,0.0,0.0,0.0,0.0,0.0,0.0,1.1963,1.225,0.0,0.0,0.0,1.3483,1.3636,1.403,1.4705,0.0,0.0,0.0,0.0,0.0,0.0,0.0,1.4252,1.4676,1.5134,1.5576,1.5196,1.4994,1.5475,1.5748,1.5921,1.5896,0.0,1.6525,1.6525,1.6352,1.6385,1.6848,1.677,1.6692,1.6919,1.6718,1.6621,1.6702,1.6597,1.65,1.6396,1.6372,1.642,1.642,1.6613,1.6733,1.6453,1.6246,1.6103,1.6095,1.6095,1.6095,2.342,2.3371,2.1688,2.1286,2.18,2.1811,2.2169,2.2735,2.2782,2.2257,2.1386,2.2117,2.1363,1.9461,1.9505,0.0,2.0714,2.1293,2.2068,2.2874,2.2661,2.2554,2.2609,2.3069,2.3279,2.3279,2.4194,2.4144,2.3283,2.3549,2.3187,2.2246,2.213,2.1631,2.0707,2.1037,2.0869,2.0159,2.0622,2.0898,2.0898,2.1263,2.149,2.1539,2.2308,2.2567,2.2192,2.2089,2.1676,2.0888,2.0215,1.925,1.7868,0.0,0.0,0.0,0.0,0.0,0.0,0.0,0.0,0.0,0.0,0.0,0.0,0.0,0.0,0.0,1.5122,0.0,1.5284,1.5975,0.0,0.0,0.0,1.6042,1.6218,1.5871,1.5723,1.5934,0.0,0.0,1.6428,1.6547,1.6516,1.6078,1.6273,1.6443,1.6482,1.6662,1.6745,1.6808,1.6792,1.6895,1.7254,1.7302,1.7191,1.6913,1.6269,1.6134,1.6349,1.6404,1.65,1.6778,1.6784,1.6784,1.6784,1.6818,1.6729,1.6737,1.6689,1.6665,1.6642,1.6634,1.6626,2.5726,2.6195,2.578,2.4451,2.2728,2.2849,2.3315,2.3972,2.4306,2.4613,2.4941,2.4841,2.4201,2.3301,2.3655,2.3863,2.3965,2.4361,2.4909,2.5421,2.4862,2.4814,2.5168,2.4908,2.4791,2.4826,2.5402,2.5271,2.4568,2.5532,2.5651,2.4871,2.5368,2.4299,2.1775,2.243,2.2524,2.1885,2.2709,2.3277,2.3581,2.3659,2.3894,2.4247,2.4442,2.4506,2.4399,2.3732,2.3266,2.2952,2.1915,2.0937,2.0131,1.9134,0.0,0.0,0.0,0.0,0.0,0.0,0.0,0.0,0.0,1.5445,1.6303,0.0,1.7149,0.0,1.718,1.6866,1.5973,1.6837,0.0,0.0,1.7006,1.704,1.7226,1.6515,1.6335,1.7002,1.666,1.6629,1.7485,1.7251,1.7017,1.7017,1.696,1.6949,1.7054,1.7269,1.7441,1.7496,1.7493,1.7556,1.7628,1.766,1.7663,1.7533,1.7358,1.731,1.7382,1.7448,1.7429,1.7509,1.7525,1.7525,1.7501,1.7334,1.7159,1.7127,1.6929,1.6689,1.6689,1.6689,1.6689,2.6963,2.7211,2.7099,2.6215,2.4883,2.5006,2.5277,2.5669,2.5888,2.6287,2.6766,2.6621,2.6357,2.6052,2.629,2.6321,2.6205,2.6261,2.6481,2.67,2.6239,2.6153,2.6466,2.6418,2.6382,2.6394,2.6923,2.6804,2.6212,2.69,2.6885,2.6268,2.6659,2.592,2.4033,2.4164,2.4051,2.3602,2.4176,2.4498,2.4489,2.4686,2.4927,2.5201,2.5368,2.5437,2.5354,2.4655,2.4126,2.3744,2.2885,2.1993,2.1172,2.0415,1.9298,0.0,0.0,0.0,0.0,0.0,0.0,0.0,0.0,0.0,0.0,0.0,1.833,1.7998,1.7687,1.7334,1.6807,1.7614,1.81,1.7825,1.8118,1.835,1.8346,1.7904,1.7706,1.8009,1.7662,1.7564,1.7894,1.7672,1.749,1.7553,1.7485,1.7375,1.7313,1.7517,1.7728,1.7783,1.7806,1.7878,1.7977,1.8009,1.8001,1.7993,1.7918,1.7806,1.7806,1.7806,1.7806,1.7806,1.7806,1.7806,1.7798,1.7679,1.7501,1.752,1.7342,1.7096,1.6761,1.6689,1.6689,2.7664,2.738,2.7203,2.7241,2.7405,2.7443,2.737,2.7236,2.7285,2.7397,2.7582,2.7718,2.7792,2.7828,2.7767,2.7644,2.7483,2.7322,2.7272,2.7308,2.7132,2.7105,2.7152,2.7596,2.7813,2.781,2.8294,2.8282,2.7837,2.7825,2.7546,2.7114,2.7102,2.69,2.6532,2.602,2.5599,2.5289,2.5503,2.5414,2.5043,2.5403,2.5625,2.5636,2.5942,2.6069,2.5891,2.5385,2.4878,2.4281,2.3741,2.2975,2.1972,2.1629,2.0767,0.0,1.8658,0.0,0.0,0.0,0.0,0.0,0.0,0.0,0.0,1.8848,1.891,1.7977,1.7605,1.7486,1.7696,1.841,1.8793,1.8644,1.925,1.9657,1.9567,1.9454,1.9245,1.8945,1.8801,1.8532,1.8211,1.8066,1.7983,1.7989,1.8021,1.795,1.7588,1.7751,1.7902,1.7934,1.7906,1.8081,1.8311,1.8367,1.8375,1.8335,1.8152,1.7958,1.799,1.7938,1.799,1.8029,1.8045,1.8006,1.8006,1.793,1.7886,1.7834,1.7779,1.754,1.708,1.6951,1.6879,2.8412,2.8499,2.846,2.846,2.8499,2.8668,2.8231,2.7484,2.7631,2.7804,2.795,2.7865,2.7914,2.8,2.7718,2.752,2.7483,2.7459,2.7617,2.7855,2.7982,2.8175,2.846,2.853,2.85,2.8366,2.8462,2.8462,2.8366,2.8366,2.8306,2.821,2.817,2.8091,2.7842,0.0,0.0,0.0,2.7716,2.7857,2.7763,2.7857,2.7865,2.7877,2.7959,0.0,2.7914,2.6977,2.6541,2.6678,2.5752,0.0,0.0,0.0,0.0,0.0,0.0,0.0,0.0,0.0,0.0,0.0,1.9525,1.9467,1.9487,1.9382,1.9069,1.8566,1.8455,1.8437,1.849,1.921,1.9656,1.9651,2.0035,2.0451,2.0662,2.0181,1.9813,2.0005,1.9393,1.9021,1.9113,1.8851,1.864,1.8629,1.8883,1.8915,1.8573,1.8343,1.8319,1.8557,1.8573,1.8629,1.8708,1.867,1.8647,1.8716,1.8639,1.8613,1.8589,1.8613,1.874,1.8993,1.8827,1.8724,1.9025,1.8613,1.824,1.8208,1.8037,1.7775,1.7612,1.7803,1.7922,2.8855,2.8961,2.8831,2.8882,0.0,2.8961,2.876,2.8435,2.8447,2.8561,2.8724,2.8661,2.8661,2.875,2.8523,2.8383,2.8269,2.8295,2.8378,2.8545,2.8648,2.8743,2.8803,2.8803,2.8697,2.851,2.851,2.851,2.851,2.851,2.851,2.851,2.851,2.8471,2.8339,2.8351,2.8271,2.8082,2.8351,2.851,2.851,2.851,2.851,2.851,2.851,0.0,0.0,0.0,0.0,0.0,0.0,0.0,0.0,0.0,0.0,2.3404,2.2387,2.1611,2.1039,2.0331,2.0157,2.083,2.0879,2.0712,2.0313,1.9878,1.9445,1.9047,1.9008,1.9091,1.928,1.9994,2.0387,2.0232,2.0717,2.1135,2.1065,2.0909,2.0667,2.0305,1.992,1.9604,1.9469,1.9238,1.9169,1.932,1.9495,1.955,1.9352,1.905,1.8867,1.8835,1.8781,1.8781,1.8781,1.8781,1.8789,1.8797,1.8978,1.9002,1.8813,1.8986,1.9161,1.9367,1.9209,1.9169,1.9304,1.9193,1.9026,1.8883,1.8819,1.8842,1.8826,1.8549,1.8311,2.9392,2.9496,2.9355,2.9328,2.9419,2.9184,2.9172,2.938,0.0,0.0,0.0,2.9419,2.9419,2.947,2.9419,2.9314,2.9182,2.9221,2.917,2.917,2.9209,2.9131,2.891,2.887,2.8764,2.855,2.851,2.851,2.851,2.851,2.851,2.851,2.851,2.851,2.851,2.851,2.8431,2.8259,2.8431,2.851,2.851,2.851,2.851,2.851,2.851,2.8419,2.8259,2.8219,2.7897,2.7353,2.725,2.7035,2.6507,2.6236,2.58,2.512,2.4029,2.325,2.2888,2.2018,2.1578,2.1897,2.199,2.1678,2.0809,2.0417,2.005,1.9602,1.9552,1.9687,2.0067,2.0787,2.1117,2.086,2.1467,2.1805,2.152,2.1687,2.1617,2.0887,2.0672,2.042,1.9958,1.9774,1.9733,1.9979,2.0075,2.0011,1.9972,1.963,1.9248,1.9113,1.9042,1.8955,1.901,1.905,1.901,1.9082,1.9288,1.9336,1.9153,1.9256,1.9511,1.9646,1.9558,1.955,1.9558,1.9734,1.9813,1.9558,1.9718,1.9933,1.9917,1.9288,1.8819,3.0532,3.1167,3.113,3.0919,3.0632,3.0241,2.9832,2.9431,2.9611,2.9714,2.974,2.9509,2.9509,2.974,2.9509,2.938,2.9392,2.9611,2.9573,2.938,2.9573,2.9573,2.9302,2.9118,2.8973,2.8764,2.859,2.851,2.851,2.851,2.851,2.851,2.851,2.851,2.851,2.851,2.8459,2.8471,2.8459,2.851,2.851,2.851,2.851,2.851,2.851,2.851,2.8459,2.8299,2.8143,2.8032,2.7884,2.7808,2.7873,2.7447,2.689,2.6316,2.5652,2.4653,2.3269,2.2658,2.224,2.1958,2.2378,2.2327,2.1454,2.1174,2.0929,2.0689,2.043,2.0512,2.0915,2.1374,2.1768,2.2034,2.2437,2.2693,2.2611,2.2684,2.2614,2.2272,2.1933,2.1548,2.1229,2.0875,2.0623,2.0726,2.0662,2.0647,2.0297,1.9773,1.9566,1.9622,1.9527,1.9487,1.9622,1.975,1.9654,1.9765,1.9789,1.9813,1.9654,1.9773,1.9941,2.0178,2.0028,1.9972,2.013,2.0019,1.9972,1.982,1.9933,2.006,2.0257,2.0114,1.9971,3.1489,3.1806,3.1696,3.1563,3.1355,3.0959,3.062,3.0393,3.0608,3.0368,2.9792,2.965,2.9702,2.9792,2.965,2.9611,2.9611,2.974,2.974,2.965,2.974,2.965,2.938,2.9209,2.9013,2.8803,2.8618,2.851,2.851,2.851,2.851,2.851,2.851,2.851,2.851,2.851,2.851,2.851,2.851,2.851,2.851,2.851,2.851,2.851,2.851,2.851,2.851,2.8431,2.8339,2.8379,2.8271,2.8271,2.8327,2.8151,2.7862,2.7561,2.6901,2.6166,2.5429,2.449,2.3654,2.2997,2.3254,2.3313,2.2909,2.2119,2.1512,2.1102,2.1261,2.1522,2.1759,2.2099,2.2419,2.2602,2.2986,2.3215,2.3251,2.3492,2.3326,2.274,2.2369,2.1988,2.1353,2.107,2.0925,2.0925,2.0925,2.0845,2.0686,2.0257,1.9949,1.9868,1.9781,1.9765,1.9893,1.9909,1.9909,1.9909,2.0027,2.0092,1.9988,2.0044,2.021,2.0345,2.0241,2.0234,2.0392,2.044,2.0353,2.0194,2.0329,2.0504,2.0647,2.0678,2.0615,3.2484,3.2591,3.2448,3.2268,3.2037,3.1869,3.1553,3.1132,3.1649,3.1196,3.0139,3.0037,3.0024,3.0037,2.9856,2.9779,2.9779,2.9779,2.9779,2.9779,2.9779,2.965,2.9419,2.9236,2.904,2.8791,2.8657,2.855,2.851,2.851,2.851,2.851,2.851,2.851,2.851,2.851,2.851,2.851,2.851,2.851,2.851,2.851,2.851,2.851,2.851,2.851,2.851,2.851,2.851,2.851,2.851,2.851,2.851,2.851,2.8558,2.8587,2.8062,2.7661,2.7488,2.6367,2.5228,2.4366,2.431,2.4256,2.3894,2.3062,2.2249,2.1765,2.2089,2.2437,2.2556,2.2821,2.3078,2.3178,2.3492,2.3675,2.3712,2.3969,2.3895,2.3038,2.2778,2.2325,2.1522,2.1173,2.1027,2.0925,2.0925,2.0925,2.0885,2.067,2.04,2.0235,2.0092,2.01,2.0067,2.0122,2.0138,2.0106,2.0329,2.0377,2.0257,2.0369,2.0488,2.0535,2.0527,2.0519,2.0535,2.0702,2.075,2.0575,2.0686,2.0877,2.0877,2.1132,2.1105,3.352,3.4147,3.4079,3.3638,3.2861,3.3325,3.2448,3.1044,3.2313,3.2205,3.0932,3.0782,3.0782,3.0733,3.0101,2.9818,2.9792,2.9792,2.9779,2.9792,2.9792,2.965,2.9419,2.938,2.9184,2.8831,2.8764,2.8657,2.851,2.851,2.851,2.851,2.851,2.851,2.851,2.851,2.851,2.851,2.851,2.851,2.851,2.851,2.851,2.851,2.851,2.851,2.851,2.851,2.851,2.851,2.851,2.851,2.8522,2.8522,2.8739,2.9184,2.9138,2.9,2.861,2.7742,2.6743,2.5827,2.5527,2.4985,2.3962,2.373,2.355,2.3168,2.2944,2.3014,2.3325,2.3425,2.362,2.3895,2.4064,2.4146,2.4128,2.4174,2.4152,2.4053,2.3438,2.297,2.2325,2.1878,2.1428,2.0976,2.0925,2.0925,2.0917,2.0869,2.0813,2.0726,2.0551,2.0496,2.067,2.0813,2.0734,2.0758,2.0821,2.079,2.0742,2.0758,2.0861,2.0774,2.0829,2.0821,2.0837,2.0917,2.0901,2.0888,2.0912,2.0976,2.1019,2.1717,2.1971,3.4113,3.438,3.438,3.4011,3.35,3.3701,3.3311,3.2627,3.3255,3.3311,3.2946,3.2456,3.1756,3.0895,3.0582,3.0241,2.983,3.0241,3.0203,2.9869,3.0241,3.0152,2.9638,2.947,2.9302,2.9145,2.891,2.8764,2.8685,2.855,2.851,2.851,2.851,2.851,2.851,2.851,2.851,2.851,2.851,2.851,2.851,2.851,2.851,2.851,2.851,2.851,2.851,2.851,2.851,2.851,2.851,2.8667,2.8955,2.8967,2.9208,2.9701,2.9773,2.9457,2.8783,2.8625,2.8166,2.7271,2.6635,2.5997,2.5346,2.4659,2.4115,2.3897,2.3705,2.3749,2.3877,2.3904,2.3969,2.4174,2.4211,2.4211,2.4211,2.4211,2.4102,2.3746,2.3438,2.3129,2.2568,2.203,2.1522,2.1019,2.0925,2.0925,2.0925,2.0925,2.0925,2.0901,2.0782,2.0766,2.0893,2.0925,2.0925,2.0925,2.0925,2.0925,2.0925,2.0925,2.0917,2.0925,2.0925,2.0925,2.0901,2.0925,2.0925,2.1027,2.1573,2.1827,2.1827,2.271,2.3053,3.438,3.438,3.438,3.423,3.3957,3.3991,3.3839,3.3673,3.3874,3.4025,3.4045,3.3673,3.2684,3.1328,3.0994,3.0582,3.0203,3.0444,3.0457,3.0177,3.0645,3.0696,3.0317,2.9986,2.9755,2.9561,2.9184,2.8922,2.8803,2.8578,2.851,2.851,2.851,2.851,2.851,2.851,2.851,2.8578,2.859,2.8618,2.863,2.8618,2.855,2.851,2.851,2.851,2.851,2.851,2.8582,2.8727,2.8727,2.8967,2.9472,2.9508,2.9749,3.0254,3.0489,3.025,2.9569,2.9831,2.9541,2.8382,2.7624,2.6904,2.6061,2.5157,2.4538,2.4233,2.4211,2.4183,2.4211,2.4211,2.4211,2.4211,2.4211,2.4211,2.4211,2.4211,2.4053,2.3637,2.3637,2.3279,2.2577,2.1928,2.1275,2.0968,2.0925,2.0925,2.0925,2.0925,2.0925,2.0925,2.0917,2.0917,2.0925,2.0925,2.0925,2.0925,2.0925,2.0925,2.0925,2.0925,2.0925,2.0925,2.0925,2.0925,2.0925,2.0925,2.1224,2.1471,2.2173,2.2911,2.2961,2.385,2.4433,3.438,3.4409,3.4428,3.4453,3.4395,3.4404,3.3971,3.3543,3.4117,3.4005,3.3619,3.4068,3.3528,3.2042,3.1434,3.0921,3.0733,3.0203,3.0241,3.0696,3.0895,3.118,3.1649,3.1119,3.0645,3.0216,2.9678,2.9223,2.8843,2.8618,2.851,2.851,2.855,2.851,2.851,2.851,2.8578,2.8764,2.8764,2.8895,2.9013,2.8882,2.8697,2.855,2.851,2.851,2.8522,2.8522,2.8751,2.9232,2.9256,2.9508,3.0031,3.0074,3.0326,3.085,3.1332,3.1597,3.1472,3.1364,3.0652,2.9041,2.8451,2.7558,2.5548,2.503,2.4686,2.426,2.4211,2.4211,2.4211,2.4211,2.4211,2.4211,2.4211,2.4211,2.4211,2.4211,2.4211,2.4102,2.4102,2.3637,2.2636,2.1573,2.1181,2.0968,2.0917,2.0925,2.0925,2.0925,2.0925,2.0925,2.0925,2.0925,2.0925,2.0925,2.0925,2.0925,2.0925,2.0925,2.0925,2.0925,2.0925,2.0925,2.0925,2.0925,2.0925,2.1173,2.1666,2.2266,2.3302,2.3899,2.4048,2.4933,2.5557,3.5633,3.5619,3.5633,3.5633,3.5619,3.5633,3.5429,3.5203,3.5478,3.5478,3.5273,3.5499,3.4811,3.3429,3.3027,3.1843,3.0318,3.0381,3.0406,3.0394,3.1206,3.1526,3.123,3.1489,3.1304,3.0707,3.0342,2.9755,2.9079,2.9157,2.9067,2.8803,2.8949,2.8895,2.859,2.8618,2.8724,2.8803,2.8922,2.9013,2.9091,2.9013,2.8973,2.8855,2.863,2.851,2.851,2.8835,2.9112,2.9292,2.9617,3.005,3.0555,3.0958,3.1211,3.1416,3.1609,3.1705,3.1617,3.1104,3.0453,2.9704,2.8437,2.7369,2.6264,2.5411,2.4784,2.444,2.4251,2.4202,2.4211,2.4211,2.4211,2.4211,2.4211,2.4211,2.4211,2.4211,2.4211,2.4211,2.4211,2.3845,2.3079,2.2367,2.1827,2.1471,2.1121,2.0925,2.0925,2.0925,2.0925,2.0925,2.0925,2.0925,2.0925,2.0925,2.0925,2.0925,2.0925,2.0925,2.0925,2.1027,2.1078,2.1369,2.1275,2.1522,2.1768,2.261,2.2961,2.3352,2.4393,2.5031,2.5138,2.5895,2.6547,3.6286,3.6286,3.6286,3.6122,3.5913,3.6194,3.6158,3.5964,3.6194,3.6286,3.6286,3.6301,3.5612,3.459,3.4094,3.2811,3.088,3.0997,3.092,3.0829,3.2038,3.2496,3.2347,3.2546,3.2411,3.1798,3.1061,3.0518,3.0244,3.0361,3.0143,2.9667,2.985,2.9502,2.88,2.8803,2.8895,2.8922,2.9091,2.9248,2.93,2.9248,2.917,2.9052,2.8776,2.8674,2.8831,2.9152,2.9484,2.9797,3.0158,3.0579,3.1096,3.1512,3.1705,3.1705,3.1705,3.1705,3.1572,3.0767,3.0079,2.9658,2.8215,2.6962,2.6254,2.5353,2.4824,2.4489,2.4301,2.4211,2.4211,2.4211,2.4211,2.4211,2.4211,2.4211,2.4211,2.4211,2.4211,2.4152,2.3994,2.3687,2.3329,2.282,2.2274,2.1776,2.1369,2.1121,2.0976,2.0925,2.0925,2.0925,2.0925,2.0925,2.0925,2.0925,2.0968,2.0968,2.107,2.107,2.1369,2.1428,2.1522,2.1768,2.2064,2.2367,2.3011,2.3949,2.4393,2.4639,2.547,2.6312,2.6529,2.6787,2.7202,3.6359,3.6417,3.633,3.6021,3.5583,3.6187,3.5913,3.5555,3.6115,3.6519,3.6562,3.6431,3.6035,3.5175,3.4423,3.347,3.2515,3.1822,3.1756,3.2265,3.3205,3.397,3.4353,3.3878,3.3625,3.3371,3.1917,3.1501,3.2001,3.1883,3.1546,3.1201,3.1008,3.031,2.884,2.9086,2.9128,2.9194,2.9351,2.9571,2.974,2.9521,2.9314,2.917,2.8958,2.9095,2.9569,2.9439,2.9797,3.0663,3.0843,3.1163,3.156,3.1693,3.1705,3.1705,3.1705,3.1705,3.1617,3.0722,2.9612,2.8912,2.7735,2.6484,2.546,2.503,2.4735,2.4399,2.4251,2.4211,2.4211,2.4211,2.4211,2.4211,2.4211,2.4211,2.4211,2.4211,2.4211,2.4152,2.3786,2.3379,2.3229,2.2929,2.2426,2.2021,2.1717,2.1471,2.1121,2.0968,2.0925,2.1019,2.1224,2.1377,2.1173,2.0968,2.1019,2.1121,2.1224,2.1369,2.2215,2.2518,2.2761,2.3003,2.3552,2.385,2.4048,2.4933,2.5479,2.5926,2.6812,2.7241,2.7311,2.7348,2.7586,3.7622,3.7607,3.7607,3.7459,3.7244,3.7496,3.7407,3.7244,3.7533,3.7607,3.7607,3.7622,3.6954,3.5897,3.5274,3.4419,3.3287,3.2762,3.2306,3.2028,3.2672,3.3184,3.3391,3.3648,3.3493,3.2922,3.186,3.1427,3.1764,3.1954,3.1718,3.1218,3.1117,3.0547,2.9644,2.9803,2.9774,2.944,2.9895,3.0102,2.9842,2.9714,2.9663,2.9584,2.9566,2.9808,3.0281,3.0041,3.0212,3.091,3.1271,3.1536,3.1681,3.1705,3.1705,3.1705,3.1705,3.1705,3.1472,3.017,2.9096,2.8448,2.7152,2.6091,2.5489,2.5137,2.4883,2.4646,2.4399,2.4211,2.4211,2.4211,2.4211,2.4211,2.4211,2.4211,2.4211,2.4211,2.4211,2.4202,2.4003,2.3945,2.3786,2.3388,2.2979,2.2677,2.2182,2.1691,2.1487,2.128,2.1275,2.1768,2.192,2.2325,2.2596,2.2791,2.2834,2.2621,2.241,2.2426,2.3161,2.366,2.3899,2.4335,2.4884,2.5187,2.5382,2.5781,2.6322,2.6716,2.7156,2.7384,2.7552,2.773,2.7907,3.8202,3.8202,3.8202,3.8,3.7758,3.8037,3.8,3.781,3.8089,3.8,3.7782,3.8075,3.7543,3.6487,3.5824,3.5144,3.4242,3.3487,3.2704,3.2256,3.2907,3.3259,3.33,3.3714,3.3555,3.2853,3.2263,3.2221,3.2526,3.2731,3.26,3.21,3.1902,3.124,3.0295,3.0422,3.0301,2.993,3.0408,3.0666,3.0419,3.0193,3.0027,2.9907,2.989,3.0131,3.0455,3.0393,3.0669,3.1151,3.1548,3.1705,3.1705,3.1705,3.1705,3.1705,3.1705,3.1705,3.1528,2.9886,2.868,2.8355,2.6839,2.5684,2.5586,2.5323,2.5274,2.4784,2.4677,2.448,2.4251,2.4211,2.4211,2.4211,2.4211,2.4211,2.4211,2.4211,2.4211,2.4202,2.4161,2.4211,2.4102,2.3945,2.3529,2.3288,2.2857,2.2384,2.2366,2.2321,2.2732,2.3176,2.3528,2.3972,2.445,2.4643,2.4734,2.4373,2.3944,2.4049,2.4402,2.4648,2.4894,2.5577,2.6167,2.6215,2.6418,2.6668,2.7119,2.7309,2.7494,2.7715,2.793,2.8068,2.8196,3.8202,3.8202,3.8202,3.781,3.7246,3.7886,3.781,3.7285,3.7848,3.7796,3.7376,3.791,3.7782,3.6894,3.6055,3.5507,3.5318,3.3814,3.3099,3.3169,3.3711,3.4007,3.3994,3.4051,3.3675,3.3131,3.2986,3.3395,3.3772,3.3882,3.4027,3.3301,3.3025,3.2423,3.0951,3.095,3.09,3.0502,3.0888,3.1235,3.1157,3.0781,3.0371,3.001,3.0036,3.0175,3.0471,3.0838,3.1216,3.1633,3.1693,3.1705,3.1705,3.1705,3.1705,3.1705,3.1705,3.1705,3.1294,2.9841,2.868,2.8541,2.6887,2.5586,2.543,2.5625,2.547,2.4735,2.4864,2.4864,2.4341,2.4211,2.4211,2.4211,2.4211,2.4211,2.4211,2.4211,2.4211,2.422,2.4211,2.4257,2.4312,2.4321,2.4208,2.3994,2.4026,2.3999,2.3874,2.4109,2.4593,2.4957,2.5326,2.5748,2.6241,2.6392,2.6433,2.6205,2.5819,2.5825,2.5849,2.5977,2.6143,2.6845,2.7188,2.728,2.7386,2.7596,2.7623,2.7698,2.7894,2.8109,2.8258,2.8323,2.8397,3.8202,3.8202,3.8202,3.8089,3.7886,3.8113,3.8052,3.7886,3.8052,3.7924,3.7886,3.8089,3.7962,3.7682,3.6227,3.5628,3.5224,3.3869,3.3124,3.3124,3.3283,3.3454,3.3454,3.3454,3.3368,3.3124,3.3124,3.3197,3.3411,3.3496,3.3395,3.3212,3.2835,3.2339,3.1768,3.1789,3.1547,3.1091,3.156,3.1397,3.068,3.0505,3.0316,3.0193,3.0592,3.1041,3.147,3.187,3.1901,3.1705,3.1705,3.1705,3.1705,3.1705,3.1705,3.1705,3.1705,3.1705,3.1339,2.9886,2.8819,2.8541,2.6976,2.5684,2.5586,2.5538,2.5284,2.4833,2.4775,2.4627,2.4301,2.4211,2.4211,2.4211,2.4229,2.4248,2.4238,2.4211,2.4211,2.4229,2.4537,2.4675,2.495,2.5393,2.5787,2.5714,2.586,2.6075,2.5806,2.5849,2.6229,2.6849,2.7239,2.7623,2.7925,2.8075,2.8115,2.8034,2.7823,2.7743,2.7721,2.773,2.787,2.8198,2.8237,2.83,2.8261,2.8362,2.8275,2.8193,2.8206,2.8395,2.8376,2.842,2.8549,3.8202,3.8202,3.8202,3.8,3.7682,3.7644,3.7438,3.7155,3.7116,3.6883,3.6727,3.6986,3.7116,3.6961,3.5682,3.5318,3.5359,3.3869,3.3167,3.3124,3.3124,3.3124,3.3124,3.3124,3.3124,3.3124,3.3124,3.3124,3.3124,3.3124,3.3124,3.3061,3.2754,3.2466,3.219,3.2326,3.2122,3.1693,3.1868,3.1543,3.0996,3.0824,3.0741,3.0815,3.1406,3.2071,3.2514,3.2704,3.2478,3.191,3.1705,3.1705,3.1705,3.1705,3.1705,3.1705,3.1705,3.1705,3.1427,3.0215,2.953,2.928,2.7787,2.7087,2.7097,2.6796,2.6241,2.5664,2.5401,2.4971,2.435,2.4211,2.4211,2.4229,2.4358,2.4459,2.4468,2.4486,2.4751,2.5051,2.5399,2.572,2.6025,2.6744,2.7045,2.7196,2.7345,2.7485,2.7544,2.7705,2.7897,2.8452,2.889,2.9196,2.9289,2.939,2.9359,2.9297,2.9234,2.9253,2.9055,2.9003,2.899,2.9008,2.9137,2.9215,2.9133,2.9049,2.9027,2.8913,2.8764,2.8737,2.883,2.8791,2.8889,3.8165,3.8052,3.8052,3.7567,3.6844,3.6766,3.6399,3.5749,3.5789,3.5386,3.506,3.54,3.5869,3.5548,3.5019,3.4827,3.5413,3.381,3.3283,3.3124,3.3124,3.3124,3.3124,3.3124,3.3124,3.3124,3.3124,3.3124,3.3081,3.3081,3.3081,3.3056,3.3043,3.2805,3.2511,3.2634,3.2541,3.2234,3.204,3.198,3.1764,3.1625,3.1491,3.1613,3.2382,3.2974,3.3244,3.3248,3.2885,3.1946,3.1837,3.1849,3.1837,3.1813,3.1825,3.1862,3.1898,3.1898,3.1752,3.098,3.0468,3.0485,2.9176,2.8362,2.8636,2.8015,2.7132,2.5945,2.6254,2.5401,2.4507,2.4238,2.4321,2.4395,2.4661,2.4872,2.5039,2.502,2.5419,2.6436,2.6605,2.7184,2.7662,2.8107,2.8168,2.8543,2.8799,2.9178,2.9312,2.9466,2.9642,2.9942,3.0325,3.071,3.0721,3.0721,3.0554,3.045,3.0406,3.0289,2.9785,2.9658,2.9642,2.9721,2.9934,2.9934,2.9767,2.9739,2.9728,2.9676,2.9532,2.9516,2.9578,2.9502,2.9495,3.781,3.7169,3.7169,3.6688,3.5949,3.5855,3.5775,3.5534,3.5588,3.5346,3.5346,3.5507,3.5548,3.5507,3.4744,3.4522,3.4592,3.3611,3.3124,3.3124,3.3124,3.3124,3.3124,3.3124,3.3124,3.3124,3.3124,3.3124,3.3081,3.2939,3.2896,3.3081,3.2927,3.2834,3.29,3.2857,3.2859,3.2623,3.2641,3.2487,3.2241,3.2203,3.225,3.2504,3.3278,3.3728,3.3741,3.3501,3.3188,3.2911,3.2587,3.2382,3.2334,3.2322,3.2322,3.2322,3.2334,3.2491,3.2618,3.1749,3.1054,3.1467,3.0559,2.9354,2.8313,2.8296,2.7144,2.5752,2.5216,2.5106,2.4461,2.4532,2.4652,2.4721,2.5098,2.5665,2.638,2.6365,2.6362,2.6836,2.7542,2.8204,2.8481,2.9384,2.9693,2.9911,3.0262,3.0769,3.0925,3.0979,3.0959,3.0899,3.1002,3.123,3.1127,3.1127,3.1075,3.1034,3.1086,3.1105,3.0606,3.0387,3.0413,3.0542,3.0766,3.067,3.0434,3.0518,3.0506,3.0387,3.0268,3.0161,3.0106,3.0089,2.9915,3.7092,3.632,3.6267,3.5803,3.5128,3.5047,3.48,3.447,3.4428,3.4428,3.4441,3.4428,3.4635,3.4965,3.4217,3.3949,3.4147,3.3526,3.3124,3.3124,3.3124,3.3124,3.3124,3.3124,3.3124,3.3124,3.3124,3.3124,3.3081,3.2995,3.297,3.3081,3.281,3.2742,3.2909,3.2939,3.284,3.2667,3.2578,3.245,3.2394,3.2526,3.3055,3.3591,3.4161,3.4366,3.433,3.4174,3.4042,3.3873,3.3501,3.3104,3.2899,3.2863,3.2875,3.2875,3.2875,3.2971,3.2931,3.2639,3.23,3.2747,3.186,3.1374,3.0409,2.9808,2.8385,2.718,2.6348,2.5569,2.4882,2.4927,2.5041,2.5236,2.5824,2.6508,2.7017,2.6997,2.7363,2.8089,2.9044,2.9559,3.0077,3.0534,3.0721,3.0739,3.079,3.1235,3.1286,3.133,3.1392,3.1414,3.1465,3.1527,3.1424,3.1373,3.1322,3.1333,3.1384,3.1373,3.1211,3.113,3.1154,3.1197,3.1227,3.13,3.1146,3.124,3.1153,3.1081,3.0939,3.0749,3.0624,3.0559,3.0319,3.6201,3.5427,3.5427,3.4965,3.4272,3.4189,3.3823,3.324,3.3124,3.3326,3.3124,3.3124,3.3683,3.3894,3.3484,3.3581,3.3781,3.3526,3.3124,3.3124,3.3124,3.3124,3.3124,3.3124,3.3124,3.3124,3.3124,3.3124,3.3081,3.3081,3.2982,3.3025,3.2853,3.2711,3.2723,3.2723,3.268,3.2587,3.2451,3.2476,3.268,3.2979,3.3685,3.4402,3.4679,3.4739,3.4655,3.457,3.4595,3.4739,3.427,3.3909,3.3645,3.3428,3.3404,3.3404,3.3404,3.3525,3.3633,3.349,3.3515,3.3994,3.3358,3.2998,3.288,3.1332,2.9735,2.8557,2.7482,2.611,2.5518,2.5479,2.5549,2.5841,2.6688,2.7319,2.7672,2.7672,2.8667,2.9725,3.0213,3.0584,3.0936,3.1341,3.1465,3.1567,3.1567,3.1567,3.1567,3.1567,3.1567,3.1567,3.1567,3.1567,3.1527,3.1476,3.1476,3.1476,3.1527,3.1527,3.1578,3.1476,3.1424,3.1476,3.1516,3.1527,3.1527,3.1458,3.1447,3.1567,3.1458,3.1225,3.1094,3.1018,3.0788,3.5318,3.4579,3.4592,3.4105,3.3411,3.3326,3.3283,3.3124,3.3124,3.3124,3.3124,3.3124,3.3167,3.3295,3.3253,3.3197,3.3326,3.3167,3.3124,3.3124,3.3124,3.3124,3.3124,3.3124,3.3124,3.3124,3.3124,3.3124,3.3038,3.2896,3.2939,3.2982,3.2853,3.2723,3.2667,3.2667,3.263,3.2635,3.2734,3.2995,3.3357,3.3778,3.4171,3.4775,3.4775,3.4775,3.4679,3.4402,3.4318,3.4715,3.427,3.4234,3.4318,3.4102,3.3898,3.3874,3.3862,3.4054,3.4306,3.4078,3.4186,3.4462,3.4352,3.3677,3.2957,3.1582,3.0124,2.8532,2.7172,2.5886,2.5494,2.585,2.6253,2.6788,2.7453,2.8308,2.9328,2.9746,2.9808,3.0526,3.1013,3.1362,3.1465,3.1567,3.1567,3.1567,3.1567,3.1567,3.1567,3.1567,3.1567,3.1567,3.1567,3.1567,3.1567,3.1578,3.1578,3.1527,3.1578,3.1578,3.1578,3.1567,3.1567,3.1567,3.1567,3.1578,3.1578,3.1567,3.1567,3.1567,3.1556,3.1534,3.1476,3.1378,3.1509,3.4483,3.3751,3.3738,3.3484,3.3167,3.3124,3.3124,3.3124,3.3124,3.3124,3.3124,3.3124,3.3124,3.3124,3.3124,3.3124,3.3124,3.3124,3.3124,3.3124,3.3124,3.3124,3.3124,3.3124,3.3124,3.3124,3.3124,3.3124,3.3124,3.2982,3.2982,3.2982,3.2853,3.2636,3.2562,3.2506,3.2604,3.2648,3.3024,3.3493,3.3961,3.4412,3.4691,3.4739,3.4775,3.4775,3.4739,3.4595,3.4522,3.4679,3.4546,3.4631,3.4619,3.457,3.439,3.4378,3.4378,3.4462,3.4715,3.451,3.4558,3.4703,3.4775,3.4521,3.3527,3.2277,3.0325,2.8518,2.749,2.6527,2.6289,2.6793,2.725,2.7608,2.841,2.9408,3.0224,3.0744,3.0899,3.0961,3.127,3.1465,3.1516,3.1567,3.1567,3.1567,3.1567,3.1567,3.1567,3.1567,3.1567,3.1567,3.1567,3.1567,3.1567,3.1567,3.1567,3.1567,3.1567,3.1567,3.1567,3.1567,3.1567,3.1567,3.1567,3.1567,3.1567,3.1567,3.1567,3.1567,3.1556,3.1567,3.1706,3.176,3.1891,3.3738,3.3124,3.3124,3.3124,3.3124,3.3124,3.3124,3.3124,3.3124,3.3124,3.3124,3.3124,3.3124,3.3124,3.3124,3.3124,3.3124,3.3124,3.3124,3.3124,3.3124,3.3124,3.3124,3.3124,3.3124,3.3124,3.3124,3.3124,3.3124,3.3081,3.3124,3.3081,3.2853,3.2636,3.2475,3.2604,3.2653,3.2788,3.3235,3.3759,3.4362,3.4679,3.4775,3.4775,3.4775,3.4775,3.4775,3.4727,3.4715,3.4763,3.4739,3.4763,3.4763,3.4775,3.4775,3.4775,3.4775,3.4775,3.4811,3.4811,3.4715,3.4775,3.4775,3.4665,3.3834,3.2197,3.0338,2.8625,2.7707,2.7435,2.7378,2.7877,2.8145,2.8445,2.9398,3.0495,3.0744,3.1105,3.1362,3.1465,3.1567,3.1567,3.1567,3.1567,3.1567,3.1567,3.1567,3.1567,3.1567,3.1567,3.1567,3.1567,3.1567,3.1567,3.1567,3.1567,3.1567,3.1567,3.1567,3.1567,3.1567,3.1567,3.1567,3.1567,3.1567,3.1567,3.1567,3.1567,3.1567,3.1567,3.1567,3.1589,3.1684,3.1979,3.2241,3.321,3.3124,3.3124,3.3124,3.3124,3.3124,3.3124,3.3124,3.3124,3.3124,3.3124,3.3124,3.3124,3.3124,3.3124,3.3124,3.3124,3.3124,3.3124,3.3124,3.3124,3.3124,3.3124,3.3124,3.3124,3.3124,3.3124,3.3124,3.3124,3.3124,3.3124,3.3081,3.3038,3.2847,3.2579,3.2818,3.2869,3.2808,3.3451,3.4161,3.4643,3.4775,3.4811,3.4775,3.4775,3.4775,3.4775,3.4775,3.4775,3.4775,3.4775,3.4775,3.4775,3.4775,3.4775,3.4775,3.4775,3.4775,3.4775,3.4775,3.4775,3.4775,3.4714,3.4262,3.3039,3.1564,3.0016,2.9482,2.8412,2.8198,2.8392,2.8422,2.8581,2.9102,2.9953,3.0795,3.1259,3.1259,3.1516,3.1567,3.1567,3.1567,3.1567,3.1567,3.1567,3.1567,3.1567,3.1567,3.1567,3.1567,3.1567,3.1567,3.1567,3.1567,3.1567,3.1567,3.1567,3.1567,3.1567,3.1567,3.1567,3.1567,3.1567,3.1567,3.1567,3.1567,3.1567,3.1567,3.1567,3.1622,3.1728,3.1695,3.164,3.2044,3.2709,3.3124,3.3124,3.3124,3.3124,3.3124,3.3124,3.3124,3.3124,3.3124,3.3124,3.3124,3.3124,3.3124,3.3124,3.3124,3.3124,3.3124,3.3124,3.3124,3.3124,3.3124,3.3124,3.3124,3.3124,3.3124,3.3081,3.3124,3.3124,3.3124,3.3081,3.3124,3.3081,3.3119,3.3065,3.2825,3.3064,3.325,3.3544,3.409,3.4571,3.4715,3.4775,3.4775,3.4775,3.4775,3.4775,3.4775,3.4775,3.4775,3.4775,3.4775,3.4775,3.4775,3.4775,3.4775,3.4775,3.4775,3.4775,3.4775,3.4775,3.4775,3.4519,3.4164,3.3101,3.1666,3.0535,2.9817,2.9702,2.8741,2.8774,2.9587,2.9523,2.9733,3.0203,3.0722,3.1094,3.1567,3.1516,3.1567,3.1567,3.1567,3.1567,3.1567,3.1567,3.1567,3.1567,3.1567,3.1567,3.1567,3.1567,3.1567,3.1567,3.1567,3.1567,3.1567,3.1567,3.1567,3.1567,3.1567,3.1567,3.1567,3.1567,3.1567,3.1567,3.1567,3.1567,3.1578,3.1622,3.1706,3.1782,3.1859,3.1946,3.2099,3.2829,3.3506,3.3124,3.3124,3.3124,3.3124,3.3124,3.3124,3.3124,3.3124,3.3124,3.3124,3.3124,3.3124,3.3124,3.3124,3.3124,3.3124,3.3124,3.3124,3.3124,3.3124,3.3124,3.3124,3.3081,3.3081,3.2982,3.2982,3.2909,3.2865,3.2865,3.2909,3.2909,3.3007,3.3077,3.3058,3.315,3.3456,3.3752,3.4198,3.4498,3.4727,3.4775,3.4775,3.4775,3.4775,3.4775,3.4775,3.4775,3.4775,3.4775,3.4775,3.4775,3.4775,3.4775,3.4775,3.4519,3.4519,3.4519,3.458,3.4519,3.4519,3.4628,3.4066,3.3089,3.1615,3.0442,2.9765,3.0026,3.0276,2.9408,2.9859,3.0813,3.0908,3.0918,3.1289,3.175,3.1874,3.1975,3.1975,3.1924,3.1874,3.1823,3.1567,3.1567,3.1567,3.1567,3.1567,3.1567,3.1567,3.1567,3.1567,3.1567,3.1567,3.1567,3.1567,3.1578,3.1578,3.1578,3.16,3.16,3.16,3.1611,3.1589,3.1567,3.1567,3.1644,3.1782,3.1891,3.1848,3.1826,3.2022,3.223,3.2437,3.2818,3.3571,3.4294,3.3124,3.3124,3.3124,3.3124,3.3124,3.3124,3.3124,3.3124,3.3124,3.3124,3.3124,3.3124,3.3124,3.3124,3.3124,3.3124,3.3124,3.3124,3.3124,3.3124,3.3124,3.3038,3.2939,3.2766,3.2624,3.268,3.2463,3.2376,3.2475,3.2531,3.2605,3.2729,3.3039,3.3019,3.3271,3.3837,3.4302,3.4583,3.4739,3.4763,3.4775,3.4775,3.4775,3.4775,3.4775,3.4775,3.4775,3.4775,3.4775,3.4775,3.4775,3.4775,3.4775,3.4775,3.447,3.4164,3.4274,3.4176,3.3906,3.4066,3.4066,3.3039,3.1666,3.0515,3.0088,2.8983,2.9418,3.1043,3.0453,3.0897,3.1909,3.2376,3.1942,3.2196,3.2521,3.2583,3.2583,3.242,3.237,3.2269,3.2128,3.1975,3.1772,3.1823,3.1618,3.1618,3.1567,3.1567,3.1567,3.1567,3.1567,3.1567,3.1567,3.1578,3.1629,3.1662,3.1771,3.1771,3.1749,3.1738,3.1728,3.1706,3.1804,3.1913,3.2044,3.2099,3.2219,3.2383,3.2492,3.2481,3.274,3.3323,3.3961,3.4699,3.5244,3.3124,3.3124,3.3124,3.3124,3.3124,3.3124,3.3124,3.3124,3.3124,3.3124,3.3124,3.3124,3.3124,3.3124,3.3124,3.3124,3.3124,3.3124,3.3124,3.3038,3.2939,3.2853,3.2624,3.2164,3.1857,3.2145,3.1881,3.1925,3.2388,3.2262,3.2438,3.2722,3.3073,3.3518,3.3883,3.4231,3.4631,3.4727,3.4775,3.4775,3.4775,3.4775,3.4775,3.4775,3.4775,3.4775,3.4775,3.4775,3.4775,3.4775,3.4775,3.4775,3.4775,3.4775,3.447,3.3906,3.4017,3.356,3.3201,3.335,3.3001,3.1462,3.0401,3.0025,3.0264,2.9686,3.0705,3.165,3.1768,3.188,3.3499,3.3101,3.246,3.2962,3.3224,3.3296,3.3247,3.3074,3.2924,3.2835,3.2734,3.2583,3.2331,3.2117,3.1874,3.1669,3.1618,3.1567,3.1567,3.1567,3.1567,3.1567,3.1567,3.1567,3.1629,3.1771,3.1946,3.1924,3.1902,3.2001,3.2077,3.2099,3.2197,3.2295,3.249,3.2643,3.284,3.3124,3.3211,3.327,3.3874,3.4609,3.5287,3.6005,3.6524,3.3124,3.3124,3.3124,3.3124,3.3124,3.3124,3.3124,3.3124,3.3124,3.3124,3.3124,3.3124,3.3124,3.3124,3.3124,3.3124,3.3081,3.3025,3.2982,3.2754,3.2438,3.2208,3.1757,3.1158,3.0576,3.1137,3.1181,3.1137,3.156,3.195,3.2463,3.2929,3.3266,3.3778,3.4121,3.4631,3.4763,3.4775,3.4775,3.4775,3.4775,3.4775,3.4775,3.4775,3.4775,3.4775,3.4775,3.4775,3.4775,3.4775,3.4775,3.4775,3.4775,3.4714,3.4458,3.3906,3.3511,3.3001,3.2387,3.2022,3.1513,3.039,3.0286,3.0347,3.0504,3.0674,3.1856,3.3266,3.2831,3.2851,3.4652,3.3869,3.3511,3.3967,3.393,3.3941,3.3843,3.3683,3.3534,3.3396,3.3247,3.2996,3.2896,3.2594,3.2201,3.1896,3.1629,3.1578,3.1567,3.1567,3.1567,3.1567,3.1567,3.1567,3.1578,3.1946,3.2219,3.223,3.2263,3.2492,3.2579,3.2643,3.2665,3.2711,3.2927,3.3211,3.3558,3.3938,3.4066,3.4115,3.5093,3.6379,3.6897,3.7632,3.8178,3.3124,3.3124,3.3124,3.3124,3.3124,3.3124,3.3124,3.3124,3.3124,3.3124,3.3124,3.3124,3.3124,3.3124,3.3124,3.3081,3.2982,3.284,3.2667,3.2351,3.1625,3.1125,3.0486,2.9841,2.928,2.928,2.9567,2.9943,3.0567,3.1598,3.2452,3.3306,3.3739,3.4076,3.4126,3.4559,3.4751,3.4775,3.4775,3.4775,3.4775,3.4775,3.4775,3.4775,3.4775,3.4775,3.4775,3.4775,3.4775,3.4775,3.4775,3.4775,3.4775,3.4775,3.4005,3.2387,3.2851,3.2072,3.0328,3.0078,3.0005,3.0098,3.0358,3.0851,3.1095,3.1739,3.2912,3.4467,3.3772,3.3787,3.442,3.4725,3.4724,3.458,3.4482,3.4433,3.4286,3.4188,3.404,3.4179,3.3711,3.322,3.322,3.3069,3.2578,3.2172,3.1742,3.164,3.1651,3.16,3.1651,3.1837,3.1859,3.1979,3.2077,3.2295,3.2481,3.2503,3.272,3.3046,3.322,3.3338,3.3318,3.3319,3.3709,3.4341,3.4614,3.4877,3.5622,3.6611,3.734,3.8347,3.8758,3.921,3.9738,3.3124,3.3124,3.3124,3.3124,3.3124,3.3124,3.3124,3.3124,3.3124,3.3124,3.3124,3.3124,3.3124,3.3124,3.3081,3.3025,3.284,3.2766,3.2494,3.148,3.0767,3.0204,2.9464,2.8588,2.8121,2.8484,2.8738,2.9433,3.0813,3.1529,3.2534,3.3445,3.4079,3.4486,3.4595,3.4727,3.4763,3.4775,3.4775,3.4775,3.4775,3.4775,3.4775,3.4775,3.4775,3.4775,3.4775,3.4775,3.4775,3.4775,3.4775,3.4775,3.4775,3.4775,3.4115,3.27,3.27,3.1103,2.9513,2.893,2.9422,3.0156,3.0788,3.1806,3.3486,3.3447,3.4498,3.5352,3.5023,3.5101,3.5266,3.5315,3.5206,3.481,3.4677,3.4677,3.4628,3.4592,3.459,3.496,3.4807,3.4457,3.4345,3.4001,3.3575,3.3147,3.2852,3.2185,3.205,3.1841,3.1738,3.2066,3.223,3.2383,3.2599,3.3104,3.3193,3.3215,3.3415,3.3702,3.3876,3.4092,3.4614,3.4888,3.5185,3.5483,3.6182,3.7044,3.8423,3.9434,3.9663,3.9982,4.0414,4.0831,4.1246,3.3124,3.3124,3.3124,3.3124,3.3124,3.3124,3.3124,3.3124,3.3124,3.3124,3.3124,3.3124,3.3124,3.3124,3.3081,3.3068,3.2797,3.222,3.1901,3.0756,2.9692,2.9004,2.8121,2.7352,2.7067,2.7468,2.792,2.8582,3.0368,3.1177,3.2534,3.3875,3.4291,3.4387,3.4593,3.4763,3.4775,3.4775,3.4775,3.4775,3.4775,3.4775,3.4775,3.4775,3.4775,3.4775,3.4775,3.4775,3.4775,3.4775,3.4775,3.4775,3.4775,3.4665,3.4262,3.3262,3.2134,3.0753,2.9471,2.9853,3.0874,3.2176,3.1774,3.2907,3.5039,3.5179,3.578,3.6395,3.624,3.605,3.5881,3.5881,3.5725,3.5291,3.5304,3.5328,3.5303,3.5339,3.5387,3.5723,3.5831,3.5592,3.5366,3.5034,3.4649,3.4321,3.3993,3.3333,3.2748,3.2572,3.2513,3.2864,3.3201,3.3428,3.3779,3.4134,3.4137,3.3944,3.4233,3.4601,3.4973,3.531,3.5905,3.6476,3.6545,3.698,3.8226,3.934,4.0223,4.0778,4.0993,4.1458,4.2043,4.2204,4.2289,3.3124,3.3124,3.3124,3.3124,3.3124,3.3124,3.3124,3.3124,3.3124,3.3124,3.3124,3.3124,3.3124,3.3068,3.3081,3.2939,3.2568,3.148,3.08,3.0011,2.853,2.7699,2.704,2.6392,2.6385,2.6485,2.7075,2.8202,2.9668,3.1471,3.3198,3.4036,3.3761,3.3808,3.4115,3.4372,3.4519,3.4726,3.4775,3.4775,3.4775,3.4775,3.4775,3.4775,3.4775,3.4775,3.4775,3.4775,3.4775,3.4775,3.4775,3.4775,3.4775,3.4775,3.4115,3.325,3.2185,3.1021,3.0548,3.1315,3.265,3.3754,3.3579,3.4316,3.532,3.6448,3.6836,3.6956,3.6783,3.6591,3.6423,3.6398,3.6374,3.6242,3.6194,3.6206,3.6218,3.6242,3.6266,3.6374,3.6411,3.6321,3.6234,3.5974,3.5565,3.5604,3.5395,3.5345,3.4728,3.4084,3.4089,3.4248,3.4471,3.4662,3.4948,3.5153,3.5126,3.4973,3.5372,3.5745,3.6065,3.6379,3.6823,3.721,3.7595,3.8348,3.9597,4.0579,4.1458,4.1881,4.1967,4.2128,4.2498,4.2595,4.2693,3.3124,3.3124,3.3124,3.3124,3.3124,3.3124,3.3124,3.3124,3.3124,3.3124,3.3124,3.3124,3.3025,3.3081,3.2896,3.2295,3.1569,3.0756,2.951,2.8437,2.7558,2.6829,2.6393,2.6153,2.6143,2.6437,2.7043,2.8085,2.9639,3.1656,3.2921,3.3426,3.3101,3.2989,3.3001,3.3312,3.3967,3.458,3.4726,3.4775,3.4775,3.4775,3.4775,3.4775,3.4775,3.4775,3.4775,3.4714,3.4726,3.4775,3.4775,3.4775,3.4775,3.4775,3.4323,3.325,3.2331,3.1552,3.1711,3.2167,3.3369,3.5003,3.5039,3.588,3.6761,3.7283,3.7409,3.736,3.7252,3.7036,3.6964,3.6952,3.6855,3.6747,3.6699,3.6687,3.6699,3.6711,3.6759,3.6928,3.6976,3.6964,3.6928,3.6648,3.6335,3.6574,3.6713,3.6728,3.6507,3.5818,3.5463,3.5602,3.5619,3.5759,3.5848,3.599,3.6025,3.6071,3.6426,3.6688,3.6935,3.7192,3.7631,3.8307,3.9235,4.0071,4.0971,4.1746,4.2289,4.2498,4.2582,4.279,4.29,4.29,4.29,3.2754,3.3025,3.2667,3.2723,3.2995,3.2667,3.2525,3.2568,3.2884,3.3124,3.3068,3.2982,3.2742,3.2283,3.1977,3.1392,3.0283,2.9475,2.8552,2.7898,2.6897,2.6482,2.6192,2.6269,2.6455,2.6709,2.7184,2.8064,2.9547,3.1251,3.2639,3.3151,3.2588,3.1931,3.188,3.2387,3.3101,3.3918,3.4482,3.4726,3.4775,3.4775,3.4775,3.4775,3.4775,3.4775,3.4714,3.4568,3.4421,3.458,3.4568,3.4421,3.4568,3.4775,3.3918,3.3035,3.3364,3.3056,3.3247,3.4043,3.5022,3.5853,3.6403,3.6991,3.734,3.7681,3.7769,3.7781,3.7637,3.7505,3.7505,3.7481,3.7288,3.7108,3.7084,3.706,3.7072,3.7084,3.724,3.7445,3.7505,3.7505,3.7372,3.712,3.7084,3.7308,3.7412,3.7484,3.7338,3.6984,3.6755,3.6785,3.6779,3.6773,3.6799,3.6808,3.6858,3.693,3.7138,3.7453,3.772,3.8226,3.8792,3.993,4.1159,4.1733,4.1993,4.2338,4.279,4.29,4.29,4.29,4.29,4.29,4.29,3.2077,3.2754,3.1913,3.1945,3.2667,3.1857,3.1492,3.1593,3.2307,3.2797,3.2655,3.2525,3.1821,3.1134,3.0789,3.0158,2.9235,2.8319,2.7862,2.7473,2.653,2.6153,2.6457,2.6514,2.6855,2.7158,2.7607,2.8309,2.9435,3.0724,3.1819,3.2801,3.1154,3.0442,3.0805,3.1575,3.2336,3.3001,3.3918,3.447,3.4677,3.4738,3.4738,3.4775,3.4677,3.4628,3.4519,3.4213,3.3758,3.4115,3.4213,3.4066,3.447,3.4714,3.361,3.3496,3.4237,3.4649,3.4897,3.5669,3.6509,3.7216,3.7685,3.7801,3.7849,3.789,3.7938,3.7938,3.7793,3.7757,3.7757,3.7757,3.7637,3.7565,3.7553,3.7541,3.7541,3.7553,3.7613,3.7769,3.7769,3.7769,3.7757,3.7505,3.7469,3.7817,3.7902,3.7926,3.7902,3.7724,3.7671,3.7642,3.7512,3.7382,3.7506,3.7548,3.7708,3.7856,3.7826,3.8185,3.8449,3.9169,3.9943,4.092,4.1845,4.2387,4.2741,4.29,4.29,4.29,4.29,4.29,4.29,4.2935,4.29,3.1158,3.089,3.0621,3.0711,3.0845,3.0621,3.0531,3.0531,3.0553,3.0586,3.0586,3.0496,3.0271,2.9863,2.9544,2.8923,2.8045,2.7562,2.7074,2.6899,2.6329,2.6465,2.6855,2.71,2.7405,2.7598,2.8081,2.8658,2.959,3.0213,3.038,3.0701,2.9828,2.9775,2.9523,3.0505,3.1677,3.2033,3.3001,3.3906,3.4372,3.4017,3.3819,3.4213,3.4372,3.4323,3.4323,3.458,3.447,3.4677,3.4628,3.4628,3.4787,3.4775,3.4783,3.4795,3.5108,3.5649,3.626,3.6817,3.7308,3.7661,3.789,3.7938,3.7974,3.7974,3.7974,3.7974,3.7974,3.7974,3.7974,3.7974,3.7974,3.7974,3.7974,3.7974,3.7974,3.7974,3.7974,3.7974,3.7974,3.7974,3.7974,3.7974,3.7974,3.7962,3.7962,3.7962,3.7962,3.7861,3.7849,3.7873,3.7885,3.7885,3.7974,3.7974,3.7974,3.808,3.8039,3.8502,3.9169,4.0198,4.1172,4.1534,4.2204,4.2644,4.29,4.29,4.29,4.29,4.3032,4.3067,4.308,4.308,4.2984,3.0068,3.017,3.0215,3.0215,3.0113,2.9612,2.9383,2.9246,2.8634,2.8262,2.8391,2.8947,2.9143,2.8645,2.8308,2.791,2.7201,2.6903,2.6883,2.6703,2.6719,2.6953,2.7275,2.763,2.7754,2.7959,2.8231,2.8784,2.9618,2.9408,2.9313,2.967,2.9513,2.9006,2.8548,2.9932,3.0908,3.0908,3.1971,3.2789,3.356,3.33,3.372,3.4176,3.4421,3.4323,3.4225,3.4519,3.4421,3.4628,3.4726,3.4323,3.4372,3.4519,3.4744,3.4987,3.5417,3.6326,3.6988,3.7433,3.7637,3.7878,3.7974,3.7974,3.7974,3.7974,3.7974,3.7974,3.7974,3.7974,3.7974,3.7974,3.7974,3.7974,3.7974,3.7974,3.7974,3.7974,3.7974,3.7974,3.7974,3.7974,3.7974,3.7974,3.7974,3.7974,3.7974,3.7974,3.7974,3.7974,3.7974,3.7974,3.7974,3.7974,3.7974,3.7974,3.7974,3.808,3.8238,3.9272,4.0249,4.1372,4.2289,4.24,4.2498,4.2741,4.29,4.29,4.29,4.29,4.3067,4.3245,4.3259,4.3321,4.3465,2.8877,2.9715,2.9761,2.967,2.951,2.8606,2.8149,2.794,2.7088,2.659,2.6707,2.8105,2.8115,2.7636,2.7311,2.687,2.6695,2.6774,2.6779,2.7043,2.709,2.7383,2.7607,2.7803,2.7998,2.8144,2.8325,2.8804,2.9471,2.8953,2.8847,2.9365,2.8963,2.8291,2.8591,2.926,3.0089,3.0349,3.0959,3.141,3.192,3.2387,3.325,3.4017,3.447,3.4531,3.4323,3.4262,3.4115,3.436,3.4775,3.4421,3.4308,3.4576,3.4795,3.5135,3.5911,3.6708,3.73,3.7709,3.7853,3.7974,3.7974,3.7974,3.7974,3.7974,3.7974,3.7974,3.7974,3.7974,3.7974,3.7974,3.7974,3.7974,3.7974,3.7974,3.7974,3.7974,3.7974,3.7974,3.7974,3.7974,3.7974,3.7974,3.7974,3.7974,3.7974,3.7974,3.7974,3.7974,3.7974,3.7974,3.7974,3.7974,3.7974,3.7974,3.7974,3.8185,3.8554,3.9943,4.1172,4.2029,4.2595,4.2741,4.2887,4.29,4.29,4.29,4.29,4.2935,4.3197,4.3423,4.358,4.3675,4.4082,2.7857,2.7536,2.7536,2.7223,2.6817,2.7112,2.7138,2.6916,2.7132,2.7192,2.7112,2.7042,2.7043,2.6666,2.6932,2.6947,2.6947,2.6904,2.7168,2.748,2.7529,2.7812,2.8018,2.8057,2.8203,2.8271,2.8301,2.8451,2.891,2.8548,2.8344,2.8654,2.8601,2.8344,2.8495,2.9164,2.9775,2.988,3.0037,3.0546,3.1051,3.1513,3.1819,3.2336,3.265,3.3511,3.4115,3.458,3.4628,3.4726,3.4787,3.4652,3.4747,3.4986,3.5354,3.5815,3.6597,3.7104,3.7613,3.7853,3.7974,3.7974,3.7974,3.7974,3.7974,3.7974,3.7974,3.7974,3.7974,3.7974,3.7974,3.7974,3.7974,3.7974,3.7974,3.7974,3.7974,3.7974,3.7974,3.7974,3.7974,3.7974,3.7974,3.7974,3.7974,3.7974,3.7974,3.7974,3.7974,3.7974,3.7974,3.8027,3.8027,3.7974,3.7974,3.7974,3.8027,3.8291,3.8908,4.0351,4.1521,4.2289,4.2741,4.2887,4.29,4.29,4.29,4.29,4.2984,4.3067,4.3328,4.36,4.379,4.4134,4.4583]}]]